GFSSGP_850_rhum_000.txt.gz
RH
37 19 16 26 44 58 54 49 35 37 27 18 17 18 20 22 21 20 33 36 36 50 58 55 61 84 94 89 90 84 80 64 51 97 96 92 85 78 92 84 86 96 98 84 95 99 96 99 91
31 16 24 32 51 62 55 39 39 38 29 17 17 20 19 23 26 23 27 31 36 44 49 56 65 79 84 82 85 84 72 56 53 82 90 90 95 97 85 95 72 89 69 43 41 90 84 81 100
26 21 24 46 59 56 52 39 39 30 19 17 17 18 20 22 22 25 24 21 24 37 53 51 66 80 78 77 83 73 53 48 79 96 89 89 96 98 82 65 62 47 26 23 30 39 29 42 81
26 22 24 44 43 39 36 34 27 32 21 16 15 22 24 24 23 25 25 17 21 36 51 59 57 67 64 77 83 69 58 47 83 90 87 91 95 94 80 63 49 36 27 25 21 25 29 23 28
28 24 37 36 33 30 25 20 20 30 25 19 15 24 27 23 22 22 17 14 21 32 47 57 67 74 73 77 80 72 70 57 65 97 96 90 93 93 66 65 58 44 46 35 21 17 17 17 18
30 28 37 37 32 26 22 16 17 27 25 20 17 26 27 27 20 18 13 19 31 34 41 56 66 72 75 75 78 68 63 47 53 96 99 94 95 87 55 53 52 57 60 47 32 23 16 16 18
38 47 42 34 34 27 21 23 27 28 25 18 17 35 34 28 17 20 14 31 36 38 46 51 62 67 72 71 71 65 53 37 77 100 80 65 81 55 46 45 64 54 62 59 52 40 25 15 15
34 42 37 34 32 28 23 24 23 20 21 17 17 31 30 22 21 19 20 33 34 38 43 48 52 46 44 56 58 32 18 19 51 58 28 28 31 27 32 48 51 38 48 55 58 49 35 22 16
35 51 48 34 30 27 24 30 23 22 21 18 18 22 22 22 25 19 22 32 32 34 39 41 37 39 34 37 22 14 10 15 23 27 26 22 24 25 24 27 39 33 23 27 33 40 32 22 18
41 59 49 34 27 35 29 27 25 25 25 22 20 19 21 23 23 18 17 21 24 26 28 28 32 36 39 34 25 21 17 16 18 21 21 24 24 22 19 32 32 22 19 19 24 23 24 22 16
43 53 42 36 32 32 30 27 25 25 28 22 21 21 28 28 29 21 18 18 20 27 29 25 28 35 39 34 28 26 27 24 18 18 18 20 23 26 24 28 26 24 24 24 25 20 22 22 16
50 41 37 35 34 34 28 24 27 24 22 21 21 21 22 25 27 19 18 18 22 28 30 33 30 32 33 35 32 25 25 27 20 24 22 25 27 28 30 31 33 33 32 30 29 24 25 24 18
50 45 39 36 35 32 27 28 30 25 21 20 21 21 20 22 22 22 22 25 28 27 29 31 35 30 32 30 28 30 29 28 28 28 29 30 32 33 34 34 36 38 39 37 36 33 29 26 24
41 38 33 30 28 28 30 28 27 23 21 19 19 21 20 20 19 22 24 21 23 25 25 31 36 36 33 30 30 35 34 29 28 30 30 32 33 33 34 36 38 39 41 42 42 42 40 37 34
33 43 40 32 28 30 26 30 27 20 20 19 17 22 21 19 24 22 28 28 29 30 32 33 36 38 38 32 27 27 34 35 32 29 30 33 35 34 38 38 38 43 51 55 55 54 56 54 50
34 36 45 35 33 29 28 43 30 20 21 21 18 22 21 21 23 26 27 27 28 28 29 32 34 37 39 37 34 32 30 35 29 31 36 38 40 46 52 52 52 53 56 59 62 61 61 62 61
46 51 47 41 31 29 30 35 28 21 21 20 22 21 20 22 23 22 23 22 22 23 24 27 34 36 37 40 41 40 38 37 33 34 38 46 57 62 63 61 58 58 58 63 69 69 74 71 69
53 50 45 41 26 36 34 34 29 23 19 20 22 26 25 23 23 21 19 18 18 21 22 27 33 43 45 45 45 45 45 44 42 41 40 40 47 60 70 72 71 73 75 72 73 76 78 79 82
42 39 40 36 30 32 36 33 31 26 24 26 28 30 31 29 26 23 22 22 23 22 24 29 32 38 46 49 48 48 47 46 46 46 50 60 67 74 79 80 80 81 85 84 86 88 90 89 90
41 42 43 36 29 26 28 30 30 21 27 29 30 32 30 29 25 24 23 23 22 23 24 24 26 29 32 38 49 52 51 51 53 60 66 70 70 75 80 82 82 83 83 83 86 91 96 98 98
45 46 41 41 36 32 32 40 23 26 30 33 32 31 32 33 32 29 26 24 23 21 22 23 25 29 34 38 43 52 58 59 63 73 76 74 78 81 82 86 86 84 84 83 83 86 90 93 89
48 37 36 35 39 45 35 52 30 33 35 36 35 31 33 34 36 35 32 28 28 29 29 28 29 34 38 42 46 52 62 65 64 62 62 66 69 71 74 77 78 78 80 83 84 86 86 87 84
39 34 33 33 40 40 39 44 40 36 39 41 41 33 32 36 36 36 35 35 33 31 30 31 31 31 33 34 39 43 44 44 44 44 48 55 63 74 78 79 83 81 82 79 80 87 92 91 84
36 33 44 47 48 57 46 44 41 43 36 40 41 34 32 37 36 35 38 37 36 37 36 35 34 35 37 37 38 40 42 43 42 43 44 45 44 43 42 44 53 60 64 65 72 78 82 87 94
35 46 60 59 63 62 39 43 38 32 37 33 43 36 33 34 31 34 35 36 39 38 38 40 43 43 44 44 44 44 45 46 48 52 53 53 52 51 51 50 46 45 47 49 52 55 59 66 74
39 44 64 64 70 55 34 42 32 30 31 31 34 33 34 34 33 32 35 39 43 44 45 46 46 47 46 44 43 42 42 44 49 53 54 54 51 48 43 39 36 32 30 31 36 45 50 55 59
35 47 40 50 50 55 49 40 26 44 49 44 42 37 36 35 35 37 38 44 48 49 50 50 50 50 49 40 33 34 37 37 40 43 47 47 49 47 44 40 36 33 31 29 28 28 29 36 45
34 34 46 55 54 53 49 40 41 41 50 50 51 40 36 36 39 41 44 50 52 52 53 52 52 52 46 29 30 37 37 36 38 40 42 45 46 46 44 41 38 37 37 38 39 38 38 41 40
39 38 34 46 52 55 54 46 36 36 43 47 47 39 36 38 42 45 49 53 54 56 55 56 55 50 38 27 32 36 37 42 46 47 47 49 50 47 43 40 40 44 48 49 52 58 57 61 72
38 40 38 47 45 53 52 45 30 34 33 34 38 36 39 40 44 50 53 55 57 57 56 52 49 44 33 36 40 37 34 34 41 45 48 50 45 39 35 35 38 42 48 56 66 62 74 78 66

GFSSGP_850_rhum_003.txt.gz
RH
37 25 16 24 42 56 52 46 38 38 32 20 18 19 20 23 20 21 25 28 30 32 41 49 58 80 90 89 84 87 86 79 61 91 96 86 87 85 90 95 88 99 98 94 96 96 98 92 90
35 24 21 33 52 60 53 41 38 38 32 25 18 20 18 20 24 21 22 26 30 33 39 48 64 87 92 84 82 84 87 73 64 83 87 83 88 94 96 98 72 81 86 54 64 98 93 87 99
35 24 23 50 60 58 51 38 40 29 21 19 18 18 20 20 20 20 22 22 26 29 44 48 69 74 80 76 78 80 72 54 58 74 83 86 88 96 92 77 62 59 42 41 48 50 38 54 72
34 23 25 40 42 40 39 33 24 26 24 20 16 22 22 20 18 17 19 19 22 30 47 55 72 76 76 75 77 77 65 48 56 86 81 85 90 96 98 72 64 51 44 33 29 26 32 28 34
33 24 35 37 33 29 28 22 20 27 27 21 16 20 24 20 18 15 16 14 21 32 45 52 63 63 66 68 76 77 62 52 48 89 91 88 93 92 96 66 74 64 54 46 31 20 18 23 21
33 30 36 35 32 28 25 19 28 24 27 23 17 26 23 20 16 14 14 16 25 33 40 48 58 68 73 72 72 69 56 50 43 64 98 98 94 98 92 74 69 64 55 48 41 33 24 17 17
38 46 41 36 36 27 22 22 29 32 28 24 17 28 26 23 17 15 14 20 29 33 38 44 53 62 79 72 74 72 70 54 41 59 100 97 99 93 84 68 52 52 32 30 34 35 31 23 16
36 46 42 40 33 28 22 27 24 25 23 18 20 28 24 22 18 17 15 24 33 36 34 39 46 53 54 50 61 65 59 42 25 66 44 33 61 81 52 32 32 31 25 25 37 34 34 34 25
38 52 55 41 32 28 27 34 25 23 24 23 20 23 24 24 19 18 16 23 30 32 30 37 36 45 45 42 47 51 33 22 16 25 20 22 26 26 23 22 24 29 24 24 30 35 36 38 36
43 62 53 39 27 32 34 33 29 26 25 23 21 22 21 22 19 19 17 18 23 26 25 34 36 40 44 42 39 31 25 18 18 20 20 22 24 25 24 20 25 27 26 25 26 30 35 33 31
47 55 44 38 31 35 37 34 28 27 29 23 23 23 23 25 24 24 19 18 22 26 28 30 33 35 42 42 42 33 30 24 20 18 20 21 21 22 25 26 29 31 33 32 33 32 32 26 28
51 44 40 37 35 39 38 34 30 26 24 21 21 21 22 25 26 23 22 19 22 22 26 29 30 32 34 40 41 40 31 27 25 22 22 23 23 27 30 32 34 36 41 43 44 44 45 41 36
54 48 43 40 40 36 32 34 33 28 23 21 22 20 20 22 23 22 24 24 26 27 28 32 34 33 33 34 41 38 35 29 25 28 26 30 31 33 39 42 45 46 47 50 52 52 51 50 47
48 47 44 38 35 32 34 32 30 25 22 22 21 20 20 22 24 28 30 30 32 33 32 36 36 37 42 40 38 39 41 34 30 27 28 35 37 39 41 45 47 48 52 55 57 60 62 60 60
42 44 42 38 35 36 29 36 34 23 23 21 19 18 19 23 26 30 32 30 34 30 30 33 38 41 42 42 42 40 37 36 33 32 35 36 38 39 43 44 46 49 53 57 58 60 63 65 65
37 41 47 37 33 31 31 43 34 24 24 23 23 21 21 22 23 25 26 26 25 24 25 28 36 40 41 42 43 43 42 41 38 37 38 41 47 52 54 56 56 60 63 64 64 66 68 70 70
43 54 50 42 32 31 33 40 32 25 23 22 24 23 22 24 26 25 24 22 22 22 22 23 28 35 42 45 46 47 48 50 47 46 45 45 55 62 69 71 73 77 82 84 85 86 85 84 82
57 50 49 48 33 36 35 40 31 27 22 22 24 27 26 25 25 25 24 24 21 22 24 24 27 33 39 44 47 48 49 51 51 49 52 58 63 70 78 84 86 89 90 89 91 95 98 98 97
49 44 42 40 33 34 41 39 33 29 24 28 31 31 32 30 32 31 29 26 25 23 24 26 28 29 32 37 44 47 49 50 53 56 60 65 71 80 88 91 90 87 91 91 94 95 96 97 97
43 44 49 40 35 35 34 38 34 26 27 30 32 34 36 34 31 29 30 27 24 25 28 29 29 31 36 38 45 54 56 59 63 68 74 77 84 86 85 85 86 88 89 87 84 89 97 98 89
49 48 50 43 41 35 38 44 37 26 30 33 34 36 38 37 33 31 29 29 30 28 29 30 32 36 38 43 52 59 64 71 76 73 67 65 68 72 75 77 79 80 82 81 84 89 93 87 84
75 43 42 44 45 52 38 58 39 31 37 39 39 38 39 38 36 34 33 32 32 34 34 32 31 31 34 39 44 50 55 53 50 47 48 54 59 62 63 64 66 69 74 74 78 81 87 93 98
61 36 41 43 43 44 42 51 45 34 42 43 43 38 38 36 34 34 35 35 36 37 36 36 34 34 36 36 38 38 40 44 46 45 45 45 47 47 46 46 47 48 49 53 58 62 65 84 95
37 37 44 51 52 62 50 47 46 43 34 41 41 38 37 34 35 35 38 39 38 40 38 38 37 38 41 40 41 41 42 44 43 43 42 42 43 42 41 40 40 40 38 36 36 40 48 54 58
38 47 66 64 67 68 46 52 37 30 33 35 43 37 36 35 32 36 40 40 41 41 42 42 44 44 46 44 42 42 42 41 38 37 35 32 31 31 34 39 40 41 38 35 32 30 28 28 33
46 48 65 66 73 60 48 51 36 37 36 29 32 32 35 34 34 38 41 42 43 45 46 47 48 49 49 39 33 34 34 34 35 36 35 37 39 40 42 42 43 42 39 36 35 35 35 35 35
38 50 44 54 56 64 54 44 32 46 49 45 39 36 36 35 40 41 44 45 47 49 49 50 50 50 48 37 30 33 34 32 33 35 40 40 42 42 43 43 42 38 36 36 39 40 42 47 54
36 38 50 61 63 60 53 47 45 42 49 52 52 40 36 41 44 44 47 48 50 51 52 54 54 51 43 30 31 35 37 36 36 36 36 37 37 37 35 33 30 29 29 32 39 45 48 56 74
37 38 44 51 57 58 59 49 36 34 50 50 49 35 37 41 44 46 48 51 52 54 56 56 53 44 36 32 37 39 37 37 37 36 34 30 26 22 16 10 7 7 9 16 32 43 55 91 84
38 39 40 53 48 56 56 48 36 36 46 44 41 42 41 39 43 47 52 54 55 56 57 52 47 42 34 40 42 42 41 39 34 25 17 9 3 3 4 4 4 4 6 11 20 29 63 67 46

GFSSGP_850_rhum_006.txt.gz
RH
32 32 19 24 42 57 52 46 40 38 36 24 21 21 21 22 18 23 19 24 28 31 40 46 65 75 80 77 83 80 83 80 70 84 93 92 94 83 95 86 98 98 100 95 98 97 97 90 97
32 30 20 34 52 58 52 43 41 33 28 23 21 20 20 20 22 18 20 21 25 27 38 42 59 71 88 92 79 82 84 80 65 76 84 89 88 95 97 98 75 77 77 47 66 89 99 85 97
33 28 21 54 62 56 50 39 42 29 20 25 19 18 20 20 19 18 18 17 18 22 37 46 61 91 90 79 76 77 81 68 60 48 79 88 82 86 95 82 70 62 54 42 49 60 42 58 56
36 24 25 37 41 41 42 34 25 25 22 26 18 20 21 19 18 17 15 15 16 22 36 50 68 80 75 80 78 77 72 57 48 63 85 89 82 91 95 85 65 63 54 44 38 39 32 33 38
37 25 34 34 34 30 30 23 20 30 28 26 18 19 21 20 19 16 15 15 20 24 37 49 69 74 68 72 73 78 75 62 49 82 86 81 88 91 98 79 71 53 44 48 44 40 30 21 25
36 30 41 40 29 28 26 21 27 31 29 27 20 22 20 19 19 16 15 16 23 27 36 45 62 78 77 75 74 71 63 54 44 57 97 90 92 92 98 69 63 45 48 49 59 58 52 37 24
40 46 45 36 38 33 23 26 27 31 32 28 20 24 20 20 21 16 16 18 24 28 36 46 53 78 87 83 81 73 64 63 48 40 64 99 93 98 64 72 54 44 50 93 99 97 70 58 41
36 47 46 44 39 32 22 29 28 27 29 24 20 26 22 24 24 17 17 18 23 28 35 45 52 59 66 65 75 73 71 66 55 36 76 50 64 47 27 37 33 34 50 69 89 44 52 50 49
39 54 59 45 37 31 25 38 30 30 28 23 23 23 24 22 27 20 18 18 20 27 30 37 43 55 58 50 49 63 66 62 53 35 32 39 30 30 27 26 23 26 37 41 43 71 47 50 45
45 63 55 42 31 29 32 38 35 32 28 24 22 23 23 21 24 23 20 18 19 23 29 35 39 50 52 45 43 44 43 42 35 30 29 29 28 28 27 27 31 36 40 45 49 54 54 50 44
49 58 48 40 34 32 41 40 36 31 34 24 22 21 21 20 24 26 22 21 19 26 30 33 35 44 44 42 47 43 41 38 32 27 22 23 23 24 28 32 39 39 45 50 56 57 54 52 48
51 44 42 40 37 39 44 41 37 33 27 22 23 23 22 20 21 24 25 30 28 28 31 33 34 40 41 43 42 45 43 39 31 31 29 25 26 26 28 33 39 42 45 48 53 56 57 58 56
58 51 46 42 42 44 42 40 38 31 25 23 23 23 22 20 22 27 33 34 34 32 31 31 34 39 42 42 43 43 40 41 36 33 30 31 30 33 36 37 42 47 52 54 56 57 57 58 59
52 48 47 47 43 41 38 38 34 29 24 24 24 22 21 20 22 26 32 34 33 34 35 39 37 39 40 42 46 47 48 44 43 40 34 34 34 36 39 44 48 51 54 55 58 58 60 60 63
49 52 49 41 38 42 35 40 39 28 27 25 23 22 21 19 22 26 28 29 29 30 30 30 33 38 40 40 42 46 48 49 47 43 43 43 46 51 56 58 60 63 71 76 77 76 78 79 79
48 43 56 42 34 33 34 36 32 23 27 24 23 25 24 23 24 26 26 25 25 24 24 23 26 32 38 40 42 46 50 51 50 50 52 57 62 65 68 71 72 78 85 90 92 93 94 93 95
45 55 54 47 34 36 38 46 30 27 25 25 23 29 31 28 28 26 24 22 21 21 21 20 21 26 33 41 44 45 47 49 51 53 57 63 70 75 81 84 84 90 93 94 96 98 100 98 99
64 53 50 52 36 37 39 44 33 29 26 25 24 32 34 30 31 30 28 26 24 23 26 26 24 26 32 38 44 47 49 51 55 60 68 73 77 84 91 93 95 96 95 91 92 94 95 96 96
59 50 59 43 35 36 41 44 36 31 28 27 29 37 38 34 38 35 30 29 27 26 26 22 22 22 26 31 39 51 60 64 69 73 75 77 76 80 85 86 82 82 81 80 83 86 89 87 90
47 49 51 49 38 37 42 42 37 36 28 26 32 40 40 37 34 33 30 27 26 25 24 22 22 25 29 35 45 53 62 70 77 76 74 70 68 68 69 71 73 76 76 78 80 84 93 98 94
53 57 57 58 46 41 45 47 41 30 31 34 36 40 42 36 35 36 32 32 31 27 27 27 27 26 27 32 42 57 70 72 63 54 50 52 58 60 59 57 55 54 53 56 61 64 65 94 94
87 52 46 46 50 59 42 63 48 34 37 43 42 43 43 39 41 39 38 34 33 34 34 32 31 32 34 37 36 38 41 41 47 50 51 50 49 49 49 49 48 46 44 41 40 40 42 48 55
72 47 49 45 51 48 46 55 49 36 42 45 49 44 45 42 40 42 40 38 40 39 37 36 35 36 39 38 40 41 43 48 50 46 43 39 37 36 35 35 36 38 39 40 39 36 34 33 34
51 49 45 52 53 67 52 50 53 42 40 42 44 42 45 43 45 45 43 43 42 43 42 42 40 41 43 43 42 40 39 38 34 31 30 30 30 31 32 33 36 39 41 41 39 38 36 36 37
51 50 77 65 71 72 50 57 49 35 34 38 45 39 44 45 46 45 45 44 45 44 45 45 45 45 45 37 33 33 34 33 32 33 33 33 33 33 34 34 34 35 34 33 32 31 32 34 39
61 57 70 71 75 64 54 59 41 35 44 35 34 33 43 46 46 46 46 46 45 46 46 48 48 47 46 40 31 32 34 35 35 35 35 36 36 35 32 29 24 20 17 14 13 15 22 32 41
51 56 46 61 60 70 62 47 39 43 50 48 42 38 45 45 44 46 48 48 46 48 50 52 52 50 43 34 30 33 36 37 39 40 39 37 30 22 14 7 3 3 3 3 4 5 9 23 50
44 43 54 62 65 68 61 50 49 34 41 51 54 46 45 46 46 49 49 48 49 52 53 55 54 48 40 33 35 39 42 44 44 40 32 22 10 3 2 3 3 3 4 4 4 5 7 17 60
40 45 51 55 62 62 63 50 40 36 39 53 52 42 44 45 45 47 50 52 53 55 57 57 52 45 38 38 45 48 49 46 37 26 12 3 2 3 3 4 4 5 6 6 6 6 8 12 20
36 41 45 61 56 62 60 53 36 44 43 49 48 43 41 42 44 48 51 53 56 59 60 56 50 42 40 49 54 55 49 39 22 7 2 2 4 4 4 5 6 6 7 7 7 8 11 14 19

GFSSGP_850_rhum_009.txt.gz
RH
32 31 20 22 39 48 49 44 39 34 32 28 27 23 20 21 19 23 19 21 24 20 29 42 85 82 85 89 82 80 77 80 74 67 96 94 98 89 97 74 94 96 100 77 96 94 94 99 95
32 31 19 31 46 47 43 40 40 33 25 23 22 23 22 19 21 20 20 19 21 19 26 36 66 73 80 81 83 84 83 82 72 70 93 92 90 89 90 87 83 70 74 45 44 90 98 97 92
32 30 20 51 54 46 42 38 33 26 23 25 22 19 19 19 18 19 18 18 19 22 26 34 48 72 85 85 87 82 77 79 60 54 85 89 88 85 86 87 55 44 42 43 44 53 49 63 72
31 26 23 30 36 38 40 34 28 24 25 26 21 19 20 19 19 18 18 18 20 25 29 37 59 87 85 72 73 74 76 67 45 50 82 93 88 85 89 57 54 55 55 51 45 41 50 46 49
33 26 35 33 31 30 28 26 24 28 30 26 22 20 20 19 19 19 18 17 22 26 30 40 61 87 67 68 69 66 72 66 50 55 77 85 85 88 91 68 62 66 50 50 54 52 46 37 34
37 31 42 46 34 27 26 22 29 31 31 29 24 22 20 21 21 19 19 18 25 28 29 37 53 83 72 86 73 74 68 60 56 56 94 91 86 90 93 86 75 67 50 66 96 99 84 65 52
44 48 49 41 40 36 24 26 29 30 32 28 25 25 21 26 25 21 19 20 26 31 29 33 42 62 85 83 85 81 73 72 67 50 59 93 98 84 99 81 87 80 62 97 100 99 98 100 98
36 45 49 45 43 36 23 27 31 30 29 25 23 25 25 25 25 26 20 21 26 33 33 34 39 47 55 69 74 92 90 85 74 65 46 75 77 66 67 78 83 92 51 53 100 97 99 99 63
39 50 56 46 41 36 25 37 34 34 32 28 25 25 27 22 21 27 22 21 27 34 34 34 37 41 45 50 55 64 86 97 60 54 44 57 50 48 48 45 42 40 41 42 52 94 97 95 87
46 60 54 42 36 32 29 38 37 36 34 28 24 22 23 23 21 23 27 24 27 32 35 37 38 39 40 44 45 45 51 50 46 40 37 34 38 35 35 32 33 36 39 43 47 52 56 57 56
50 56 49 42 37 34 37 43 38 35 38 28 24 23 22 22 22 21 27 28 28 29 31 34 39 41 41 41 45 44 48 44 38 36 36 29 28 27 28 30 34 40 45 46 49 53 55 57 57
54 48 44 41 38 41 44 42 43 38 32 25 27 25 23 22 22 21 24 29 32 35 34 33 35 38 43 45 42 46 46 46 42 38 37 38 34 34 36 38 42 44 48 50 53 55 57 59 60
56 51 47 42 42 46 47 48 44 38 34 31 24 25 24 22 21 20 24 30 35 34 38 38 38 38 42 44 44 46 49 47 49 46 42 39 40 42 44 46 48 50 54 59 64 68 70 70 71
55 50 47 46 45 48 44 43 40 36 34 32 28 26 23 21 20 20 25 28 31 31 32 36 34 38 42 42 43 48 51 52 50 51 55 58 55 54 55 57 60 64 74 79 83 87 89 89 90
53 57 53 49 44 43 39 44 43 30 29 31 29 26 23 25 23 21 23 26 28 28 28 27 27 32 35 40 42 46 51 53 54 58 63 66 69 69 69 70 73 80 87 91 93 94 94 94 95
59 52 70 51 37 35 34 45 30 26 32 30 25 25 29 33 31 28 26 25 25 25 24 21 20 25 34 39 43 48 52 54 58 64 69 72 75 78 81 81 80 82 87 89 86 87 86 85 86
53 76 64 57 41 42 39 41 34 27 26 27 25 28 34 36 34 29 26 24 22 22 24 23 24 25 30 41 45 49 49 52 59 67 73 75 76 76 75 77 78 84 84 82 84 84 85 82 85
64 63 53 52 39 40 41 42 34 31 29 27 27 32 36 36 38 35 29 26 24 24 24 22 22 26 35 41 47 52 53 57 61 64 66 70 71 72 76 82 86 81 75 75 76 76 78 81 85
54 52 51 53 37 38 41 41 34 31 31 32 31 39 39 39 42 39 33 30 29 26 26 24 24 27 32 35 43 50 55 62 66 72 74 74 72 70 68 68 69 68 69 69 68 66 66 65 72
56 55 55 50 40 39 44 42 34 36 34 28 32 43 40 42 40 37 33 30 27 26 25 22 22 24 25 30 43 56 67 71 71 68 63 58 56 56 54 51 49 47 46 44 43 42 40 40 41
63 64 60 59 50 44 46 44 40 32 32 36 37 40 40 38 40 41 36 32 32 29 26 25 25 25 27 31 41 54 58 55 48 45 46 48 50 50 49 47 43 40 38 38 39 39 39 39 36
82 52 52 52 60 68 42 56 46 36 34 44 49 48 43 43 44 40 36 36 34 34 33 31 30 30 34 37 38 39 41 43 51 53 51 44 36 33 33 33 33 34 34 35 36 37 37 37 38
75 61 60 53 55 50 49 50 42 38 38 45 51 52 48 45 42 42 40 40 40 40 37 36 36 37 41 42 42 42 42 42 39 35 32 32 33 35 36 36 35 33 30 27 24 23 23 26 32
49 58 62 53 50 63 52 46 47 39 34 45 49 52 51 48 46 46 46 46 44 44 43 43 41 42 40 37 35 33 32 32 31 32 34 37 39 39 37 34 28 21 13 7 4 3 4 5 10
52 72 98 96 74 67 54 55 42 38 34 38 42 48 50 47 47 48 48 48 48 47 47 46 45 43 42 38 32 31 32 34 36 39 40 42 43 40 34 23 13 5 2 3 4 4 4 4 6
75 72 80 76 71 60 57 58 37 35 41 37 38 42 49 49 50 50 49 49 50 50 50 49 48 46 40 34 32 34 37 40 44 47 46 40 33 23 11 5 2 3 4 5 6 6 6 6 7
78 85 49 62 62 67 60 48 38 39 45 48 48 45 50 51 52 50 51 51 52 53 52 53 51 46 40 35 35 39 45 49 49 46 40 32 19 10 4 3 4 5 6 7 7 8 8 7 7
56 48 77 61 67 70 62 53 48 36 39 53 53 54 53 52 53 53 53 54 56 55 55 56 52 46 40 37 42 50 52 49 46 41 32 20 8 4 4 5 6 6 7 8 8 9 9 8 9
53 74 57 54 61 62 58 46 40 37 37 48 51 49 50 50 52 54 55 58 57 58 58 57 51 44 40 45 53 55 54 48 40 30 18 8 4 5 6 6 7 7 8 9 10 10 10 10 14
42 50 49 59 60 61 56 50 36 44 47 48 50 45 45 46 51 54 56 58 60 61 61 57 50 43 47 56 63 60 52 45 33 18 8 6 6 6 7 7 8 9 10 12 11 11 11 15 21

GFSSGP_850_rhum_012.txt.gz
RH
32 28 26 28 27 27 23 25 29 26 25 21 20 21 18 17 16 22 20 21 21 21 29 40 85 75 78 78 83 83 77 76 75 63 96 82 73 76 98 73 80 92 96 55 74 82 90 96 90
33 28 21 31 22 24 19 26 31 26 20 21 21 22 20 16 21 29 27 21 20 21 27 62 72 83 79 87 72 73 77 80 80 56 96 90 91 90 83 76 76 61 64 52 47 69 93 97 90
35 28 23 24 29 24 24 28 23 20 21 23 20 18 17 17 22 30 20 21 21 24 27 38 58 68 76 80 81 87 79 76 73 57 85 94 92 87 90 87 78 49 50 46 40 42 52 67 72
36 28 23 19 17 24 29 25 19 21 22 25 22 18 19 19 27 21 21 21 24 28 30 30 53 68 81 83 81 74 72 72 55 45 76 85 95 86 91 86 59 59 55 59 51 42 41 48 46
36 28 27 28 26 16 15 18 19 23 22 23 25 20 19 22 23 23 22 21 29 33 38 37 63 81 82 72 71 70 61 56 51 43 74 86 87 88 90 89 70 78 73 53 56 71 75 52 43
33 30 30 33 30 25 21 20 23 22 22 24 22 20 22 29 28 25 23 20 29 37 39 46 61 79 67 69 74 66 60 51 48 50 88 86 83 89 90 92 90 84 79 77 100 98 98 98 96
37 33 32 32 30 30 20 21 20 22 22 23 24 21 21 32 26 30 25 21 28 34 40 47 66 74 80 83 85 78 70 66 63 52 53 69 92 92 91 97 98 92 94 85 82 98 94 96 98
40 32 35 32 29 32 23 20 29 25 22 25 24 20 21 36 24 32 29 24 25 33 36 47 63 91 97 99 72 86 92 84 77 63 45 56 57 58 79 66 68 58 72 41 41 51 80 90 92
42 38 38 34 34 28 22 27 30 32 30 24 24 25 28 24 23 26 35 29 25 28 34 38 50 71 94 96 93 62 81 99 88 60 44 37 75 89 61 56 43 39 38 37 41 46 52 55 56
41 41 35 29 26 27 27 31 34 33 26 24 21 24 26 26 32 38 48 50 33 28 30 36 40 45 76 70 82 91 95 94 94 93 89 80 80 86 44 41 37 38 40 44 45 48 52 55 80
43 42 31 33 32 31 32 33 36 35 32 24 23 21 24 26 27 32 37 42 49 36 30 29 35 41 53 55 72 91 88 92 92 76 63 63 42 48 45 42 40 42 45 47 56 58 68 79 80
47 40 35 34 37 38 35 35 36 36 36 33 30 30 28 26 24 25 28 36 38 33 38 37 34 36 43 50 52 69 67 61 69 54 46 45 46 48 49 49 50 50 57 64 65 77 82 83 90
48 37 40 38 40 40 40 40 37 38 36 34 33 33 28 26 24 25 20 22 30 36 38 36 36 36 39 45 51 52 60 57 63 56 58 58 55 55 58 64 66 68 77 80 87 88 96 96 96
44 44 42 39 40 40 42 37 40 33 31 31 30 30 29 26 22 25 23 26 30 34 33 33 34 36 39 42 46 52 56 64 61 63 65 64 66 68 72 73 76 78 84 84 88 89 86 85 90
47 50 43 42 42 39 40 41 36 32 26 25 24 27 32 25 26 27 24 26 28 31 28 27 26 28 36 42 48 53 56 61 64 66 69 71 71 72 75 74 74 88 90 82 88 91 95 98 98
54 53 56 36 38 40 39 42 26 27 25 25 24 28 38 35 33 30 28 27 26 25 23 21 20 23 31 46 49 54 57 63 66 68 71 72 72 73 73 76 85 87 83 92 95 97 98 97 97
57 62 57 42 38 36 36 36 23 26 25 23 22 28 36 42 41 30 27 26 25 27 26 26 28 28 36 48 52 54 59 65 67 70 72 71 73 75 77 81 86 87 84 81 83 87 91 85 93
60 58 45 48 35 34 36 36 26 24 27 24 22 30 36 40 41 32 31 31 33 31 28 27 29 38 43 50 57 58 64 68 70 73 75 77 76 75 74 71 66 62 60 57 54 70 74 76 78
36 41 47 39 33 36 37 35 28 27 27 25 25 30 36 41 43 38 37 36 35 32 31 32 36 38 43 52 59 69 70 74 74 72 70 67 62 54 50 45 43 43 43 41 38 38 41 51 58
45 48 48 34 35 36 38 40 32 26 24 25 25 30 36 44 46 42 37 34 30 28 26 26 27 31 39 50 58 65 67 67 64 56 48 45 45 44 41 36 32 31 32 33 33 35 38 57 58
51 49 40 42 43 42 39 37 30 25 26 29 27 32 38 41 44 48 38 34 31 28 28 27 26 28 32 41 50 52 49 47 46 47 46 41 34 32 33 35 36 35 33 30 26 28 31 56 48
66 43 46 52 61 57 41 49 32 24 26 29 32 38 40 44 46 50 51 42 35 34 33 32 32 33 35 37 39 41 42 43 42 36 34 34 36 38 39 37 33 27 19 14 9 7 11 39 52
50 47 49 54 60 59 49 48 30 28 26 30 32 38 42 47 49 55 57 40 39 39 37 36 36 37 39 39 37 35 34 32 33 34 38 40 42 39 34 29 23 16 8 4 4 5 8 32 48
50 51 53 49 54 63 41 42 31 26 22 26 33 40 45 50 53 58 46 43 42 42 40 40 39 38 37 35 32 31 31 34 38 42 45 41 37 34 32 25 15 6 4 5 6 7 8 10 12
51 65 98 91 89 60 39 42 29 24 24 25 32 40 45 52 56 60 56 48 46 45 44 43 42 40 38 34 31 32 35 41 45 42 40 39 37 33 29 19 8 5 5 6 7 8 9 16 18
69 53 53 62 58 47 44 44 28 26 29 28 28 38 46 52 54 58 61 51 49 48 47 46 45 41 37 34 34 37 43 46 44 45 43 39 34 27 16 7 5 5 6 7 8 9 17 32 37
84 87 40 45 46 45 36 33 27 29 31 32 32 41 49 52 56 59 63 55 52 51 51 50 47 42 38 37 39 44 48 49 51 46 40 37 28 15 6 5 6 6 7 8 9 13 17 21 36
67 50 68 51 58 54 39 39 29 27 26 34 33 41 48 54 57 61 64 63 57 54 54 52 48 43 40 41 46 51 55 54 48 43 39 28 13 8 6 6 7 7 9 12 15 21 22 32 37
66 78 69 46 44 43 39 32 24 26 26 29 31 37 47 55 57 62 66 64 57 57 56 54 49 44 43 49 56 59 55 50 45 39 30 18 10 6 7 7 8 10 14 18 20 22 29 37 42
47 53 53 59 55 43 39 32 25 28 31 32 33 39 47 53 58 61 69 63 59 59 59 56 50 45 49 59 61 57 54 49 42 32 22 9 6 7 8 10 13 17 20 20 20 31 38 43 47

GFSSGP_850_rhum_015.txt.gz
RH
29 36 25 30 25 20 21 17 22 24 25 19 19 19 18 17 16 24 35 49 32 58 70 38 72 89 67 85 87 84 80 77 74 62 86 68 79 81 66 66 78 86 92 60 77 88 87 88 94
31 32 27 23 20 23 16 14 21 22 20 19 19 19 19 16 17 31 40 40 36 58 72 87 79 74 83 86 87 77 72 71 77 59 96 86 86 86 88 74 78 71 65 57 50 50 72 80 95
40 30 24 22 20 21 22 19 20 19 20 20 20 18 16 17 21 28 44 26 39 60 67 78 63 87 78 86 82 81 76 73 73 57 80 84 85 86 93 91 78 65 68 62 53 41 46 57 62
37 27 23 26 24 16 20 22 18 19 20 20 20 18 18 28 28 43 45 36 54 60 68 32 55 72 79 81 83 82 72 72 61 43 72 83 86 90 89 89 81 69 71 56 55 48 42 38 34
36 27 28 28 25 18 11 14 16 20 20 20 22 20 19 34 41 44 51 50 53 59 69 32 49 72 82 86 79 73 65 51 49 36 73 85 87 98 84 89 87 84 79 68 69 88 80 78 70
35 28 30 29 25 22 16 15 16 18 20 20 20 21 26 36 41 49 52 53 56 63 71 60 48 70 82 72 79 74 61 50 37 38 67 84 82 86 94 95 97 92 88 84 82 78 84 90 93
36 31 34 26 24 25 21 14 16 18 19 19 21 20 22 32 40 45 56 53 60 66 66 74 51 63 70 79 92 85 65 58 53 44 37 58 86 87 87 91 87 71 70 58 39 38 49 67 74
38 30 36 29 29 26 21 18 16 21 20 21 21 20 21 33 38 38 58 57 61 67 67 72 77 90 91 85 62 73 92 80 69 60 48 34 51 58 62 79 66 43 35 34 35 40 44 49 50
42 38 37 31 28 24 21 22 21 26 26 22 20 21 25 29 38 48 55 60 60 65 69 71 72 80 84 86 88 72 53 89 64 48 52 33 41 83 86 81 40 34 36 39 43 44 47 48 49
41 39 33 23 22 24 22 25 27 28 25 22 21 20 23 23 24 28 34 41 52 55 64 69 72 75 83 84 88 92 94 94 89 91 85 84 73 74 74 45 32 33 37 41 47 51 54 55 64
41 41 28 25 24 26 26 27 27 29 30 26 22 21 22 25 22 22 26 30 37 46 52 63 71 75 78 84 86 84 85 86 82 82 82 80 76 74 75 80 68 56 67 56 78 82 82 86 87
43 35 32 28 28 30 31 29 28 29 29 28 30 29 28 27 21 21 21 25 36 45 50 56 64 73 78 80 86 81 82 84 82 84 84 82 80 80 80 79 83 84 86 86 89 91 89 91 91
45 34 32 32 31 31 33 32 31 32 30 30 29 28 29 28 25 22 23 33 36 44 51 57 60 69 77 81 80 82 81 83 83 89 90 88 88 87 87 86 88 90 91 91 92 92 91 89 87
45 38 35 31 33 33 33 32 31 30 30 28 26 26 26 26 27 28 31 36 41 44 52 56 60 62 71 79 84 82 83 82 87 88 94 94 90 91 92 93 94 94 95 94 94 93 94 94 90
44 44 37 34 33 33 32 38 33 29 28 26 20 19 21 29 34 34 39 39 41 42 43 40 38 52 65 76 84 84 86 87 89 92 93 95 93 96 98 98 99 97 97 98 98 98 97 91 86
47 55 66 39 32 32 35 45 25 23 24 20 19 19 27 35 36 40 43 44 40 43 46 28 24 27 59 71 85 85 86 89 93 94 94 97 97 98 98 100 99 98 98 97 94 89 84 82 82
60 68 60 52 30 30 35 40 24 24 22 20 19 19 26 33 36 43 44 45 38 42 44 31 39 60 68 79 85 86 90 88 93 96 99 100 98 93 100 95 81 77 78 70 57 58 61 59 52
67 65 46 53 31 35 36 36 27 25 22 22 20 18 25 30 36 44 47 48 50 53 52 46 62 72 79 82 85 90 96 93 87 79 79 75 70 64 57 48 41 38 44 40 36 44 44 44 53
42 47 44 35 28 32 36 34 28 23 23 22 21 19 25 31 41 46 47 48 51 60 68 71 73 77 79 83 86 82 74 72 71 68 63 50 44 42 36 31 32 33 35 39 37 37 38 34 50
73 49 38 31 30 34 33 33 26 24 25 24 20 20 25 34 39 45 46 46 47 53 60 72 77 85 84 75 74 70 69 65 52 44 45 42 32 31 33 36 37 36 33 32 28 27 26 34 28
65 53 35 37 34 34 36 41 36 28 26 23 23 21 26 34 37 42 45 48 50 46 35 32 35 39 45 49 48 48 46 53 51 43 33 32 34 37 38 34 30 28 25 23 15 18 18 36 37
89 42 35 38 46 53 37 42 25 23 24 24 22 23 29 33 36 41 45 52 51 34 33 32 33 34 39 50 52 56 50 40 33 32 36 39 40 36 33 32 30 26 19 13 8 12 13 30 44
80 39 38 45 49 61 53 52 31 23 24 24 22 26 31 36 39 44 51 58 50 39 37 37 36 37 39 38 37 34 32 31 34 39 42 38 37 36 35 31 27 19 12 7 7 8 9 13 38
70 43 49 48 50 64 43 42 30 26 23 20 23 29 34 38 42 49 58 61 47 43 42 40 38 37 35 34 32 31 32 36 41 41 40 41 38 36 34 28 19 11 7 7 7 8 9 13 35
91 71 92 84 89 51 32 37 29 21 21 19 25 30 36 40 46 53 58 62 60 51 44 42 39 37 35 33 32 34 38 42 42 45 46 42 39 36 34 26 14 8 7 7 8 8 11 22 32
89 65 52 58 55 42 35 43 28 22 22 21 26 32 37 42 46 52 55 61 68 60 52 45 41 38 36 35 36 39 44 46 48 50 47 42 38 35 29 19 11 7 7 8 10 14 27 32 30
83 68 39 42 35 36 38 31 25 22 26 24 25 32 38 42 46 50 57 63 67 64 59 49 43 40 38 38 41 46 49 52 51 48 45 42 37 32 23 12 7 7 8 12 18 22 26 30 29
68 46 56 42 51 46 34 31 29 27 25 26 25 32 39 42 47 51 57 61 62 63 56 51 46 42 40 42 48 52 54 52 50 48 44 40 31 22 10 7 7 8 12 19 23 24 26 31 33
86 79 54 38 37 40 36 31 21 22 23 26 25 32 39 43 47 52 56 61 63 62 54 52 49 44 43 48 55 56 55 54 50 46 39 30 17 10 7 8 8 13 20 23 27 28 32 33 36
55 72 47 49 49 38 37 32 21 22 26 25 25 31 38 44 47 51 56 63 64 63 58 55 52 47 47 55 58 58 57 52 48 40 30 18 9 8 8 9 17 21 25 28 32 35 34 36 42

GFSSGP_850_rhum_018.txt.gz
RH
27 25 31 28 43 36 36 25 17 24 24 19 19 20 22 19 22 43 44 44 52 47 32 33 64 86 75 81 84 87 87 78 73 61 74 63 77 85 72 57 63 66 70 62 73 89 91 94 89
29 26 28 28 35 36 29 18 24 22 20 19 19 19 20 20 26 38 50 40 54 52 42 37 78 81 75 82 85 83 71 70 71 61 95 91 75 74 81 80 68 62 54 50 46 55 63 81 75
37 34 29 41 38 30 27 25 24 19 19 19 20 18 17 26 28 40 49 32 48 53 67 66 57 73 82 88 83 77 78 71 70 57 82 86 87 89 95 89 74 56 62 53 45 41 35 48 48
42 30 28 35 37 28 17 19 20 19 20 20 20 23 26 33 37 44 43 45 54 57 55 43 53 72 83 79 81 86 74 59 70 42 77 81 82 91 88 90 88 87 74 54 33 33 34 38 36
38 35 41 40 35 26 14 11 16 18 20 20 21 24 30 38 39 48 48 52 55 62 56 30 33 54 75 77 79 72 60 44 43 35 83 82 82 83 81 88 88 95 80 53 28 25 28 38 42
39 32 45 44 32 22 18 14 16 16 18 20 21 21 34 36 41 41 47 52 55 61 46 31 32 53 63 73 68 63 50 42 34 35 76 86 82 81 86 89 90 69 47 38 36 31 33 39 55
45 46 46 40 33 26 22 15 14 18 20 20 21 22 33 35 26 51 52 53 59 60 57 40 37 44 50 42 48 47 53 46 43 35 41 57 78 78 80 83 68 40 31 28 30 34 38 41 41
44 44 45 40 39 36 22 20 16 17 22 23 20 23 29 33 27 37 52 55 60 66 64 65 48 52 50 46 46 43 40 42 41 30 32 33 41 60 58 62 59 40 32 34 37 39 41 44 45
44 56 52 42 38 32 20 22 21 22 25 24 23 20 25 24 26 32 43 53 60 61 69 71 74 76 72 79 83 79 62 40 30 32 41 51 37 65 82 79 52 34 34 37 40 43 45 47 48
51 60 49 31 28 27 22 23 24 27 27 25 23 21 20 22 23 24 30 40 45 56 62 69 72 75 83 84 84 74 58 71 70 80 82 78 73 76 80 69 46 40 41 46 48 51 56 60 60
52 61 40 30 26 24 25 27 25 28 34 28 25 27 28 27 26 22 22 27 33 43 53 59 69 72 76 84 83 88 87 86 84 83 82 82 77 63 72 71 71 62 53 55 57 62 67 72 76
54 44 40 36 30 27 30 29 30 28 29 29 29 29 30 29 28 22 21 21 27 38 46 54 62 69 76 81 84 84 83 84 84 83 83 83 81 80 76 79 79 80 80 83 82 88 90 91 90
56 49 39 34 32 31 29 32 34 32 30 30 30 30 29 28 28 26 23 22 29 38 45 50 57 66 67 80 82 81 82 82 84 84 88 87 84 82 88 85 83 87 91 91 92 93 93 91 89
49 50 48 41 32 31 33 33 32 32 30 29 29 29 26 26 27 26 25 29 36 40 47 53 57 60 70 77 80 83 83 82 84 87 91 92 84 83 87 86 97 95 95 93 92 91 89 88 84
43 55 47 46 37 35 31 39 38 32 31 29 29 28 21 22 26 28 31 33 35 40 47 51 56 61 65 73 83 84 84 84 88 92 93 94 96 97 96 96 97 93 93 91 89 87 83 84 81
66 54 73 49 40 36 37 51 36 30 29 29 27 19 22 28 31 34 37 38 39 39 39 41 37 40 63 72 84 86 86 89 93 95 94 96 98 94 95 97 94 92 82 84 80 61 50 46 46
71 78 66 62 41 38 38 46 34 31 28 25 22 20 22 31 35 39 42 46 45 49 49 34 34 35 61 74 84 84 88 92 92 94 97 98 93 92 95 82 56 50 44 38 36 34 36 35 33
78 80 64 68 50 44 46 40 36 29 25 22 21 20 23 30 35 42 46 48 53 56 51 48 56 64 73 81 86 86 88 92 94 94 83 73 63 55 45 38 31 33 35 36 35 33 30 28 27
58 58 66 49 39 45 43 38 36 30 28 28 25 22 24 30 38 43 48 52 63 68 71 67 68 74 79 86 91 92 89 77 72 68 58 45 40 32 31 35 36 34 30 28 28 25 22 20 16
69 73 69 53 39 39 41 41 35 31 29 26 24 23 23 34 41 46 46 51 63 76 78 78 79 82 87 89 84 71 66 66 53 45 40 32 31 35 36 34 32 30 29 27 23 18 14 13 13
60 83 74 79 49 36 41 46 39 31 26 24 24 25 24 34 42 45 46 49 58 68 72 78 78 73 73 68 63 62 50 47 43 34 32 35 37 36 35 35 34 32 29 24 16 12 10 11 11
72 55 68 67 85 78 42 66 42 35 34 31 28 22 31 36 40 44 49 53 53 51 47 48 50 50 52 50 48 46 44 39 35 36 38 38 37 38 37 36 33 29 25 18 12 10 10 10 11
72 61 75 77 87 75 62 62 47 32 38 34 29 24 33 34 39 44 51 54 51 49 45 44 44 47 53 54 50 40 33 33 36 40 39 41 41 41 40 37 33 29 23 16 11 10 9 9 13
63 70 91 89 78 92 62 62 49 37 32 30 27 26 33 36 40 47 56 60 54 51 46 43 42 40 39 36 34 33 33 37 41 41 44 43 43 42 41 38 33 27 18 13 10 9 8 9 14
72 84 100 100 99 79 44 53 45 24 24 25 28 31 35 38 44 53 60 62 55 50 47 43 38 36 34 33 33 35 39 42 44 47 47 46 45 44 42 37 31 21 13 9 8 8 9 13 18
80 97 100 96 92 61 39 54 42 27 23 24 27 33 37 41 48 55 62 62 56 50 48 42 39 36 35 35 36 40 42 45 48 49 48 48 46 43 40 32 20 12 9 8 8 10 15 18 22
87 99 83 70 38 52 50 35 28 29 29 31 33 37 40 43 50 55 60 64 59 54 50 45 41 38 37 38 40 43 46 49 50 51 50 48 44 39 28 18 12 9 8 9 15 19 20 20 21
97 75 94 69 59 65 54 47 43 37 37 30 38 40 41 43 50 54 60 65 63 59 55 49 44 40 39 40 43 47 50 52 52 51 49 45 38 28 18 12 10 8 11 18 21 21 19 21 26
95 96 86 57 49 60 59 46 33 32 32 34 35 38 42 44 50 53 60 64 63 61 57 53 47 44 42 44 48 51 54 55 53 52 48 41 29 18 12 9 8 13 19 22 22 20 21 27 34
80 75 65 58 58 56 50 45 28 31 29 32 29 37 41 43 49 54 59 62 62 60 59 54 50 46 45 48 52 55 57 56 54 51 43 31 20 12 8 10 15 20 23 24 22 26 30 38 33

GFSSGP_850_rhum_021.txt.gz
RH
26 24 28 29 39 46 43 34 19 29 26 21 20 20 23 24 27 45 53 50 36 38 28 33 73 80 77 82 81 85 86 76 64 56 75 59 88 93 74 54 61 62 42 42 46 80 87 91 88
29 26 30 29 35 38 39 25 29 25 21 20 20 19 21 28 37 49 50 43 46 39 32 30 77 84 73 82 80 84 74 58 61 55 89 92 68 77 80 75 54 47 46 40 33 36 59 66 67
33 31 35 45 47 39 32 25 23 19 20 21 21 20 24 35 46 50 50 40 46 41 40 34 66 63 81 81 81 78 61 56 56 45 81 84 72 86 94 88 79 57 52 39 24 26 22 22 33
42 34 31 40 42 34 28 20 20 19 18 21 20 26 36 37 38 43 39 45 44 38 36 37 48 63 77 86 80 58 61 44 39 32 69 83 86 82 83 87 82 76 46 23 20 20 22 23 26
46 41 48 47 44 35 26 13 17 19 20 21 21 25 36 44 44 44 46 55 49 48 48 30 35 44 70 71 66 63 57 33 30 27 67 83 82 82 81 85 87 82 35 28 25 29 26 28 39
49 42 58 58 46 33 27 15 17 17 18 19 22 24 40 48 45 52 51 55 54 51 48 31 27 39 59 60 67 56 50 34 28 29 65 65 79 79 84 86 88 47 36 34 36 35 38 38 38
59 62 62 51 47 40 29 16 16 19 22 24 22 27 38 33 32 48 51 54 56 55 46 38 33 39 53 43 43 39 48 38 39 28 43 58 67 77 80 82 71 43 39 37 38 39 41 43 43
58 60 62 56 51 47 30 21 16 17 21 23 22 28 35 30 28 40 51 54 55 57 51 51 44 43 42 38 39 45 42 36 34 32 30 28 34 48 48 46 44 45 38 38 39 43 45 46 48
66 75 74 62 50 41 29 24 21 20 23 25 25 24 23 24 25 29 36 46 52 60 55 56 60 58 58 65 70 72 63 51 37 32 51 44 40 66 72 61 62 49 39 38 44 46 53 57 60
71 84 67 45 40 38 31 27 24 26 30 28 27 27 25 24 26 28 28 30 42 45 45 54 65 66 66 82 78 77 66 70 69 75 71 71 69 69 75 72 64 61 56 53 56 60 62 67 73
67 79 56 44 38 35 31 30 27 29 33 29 30 30 29 30 29 26 22 24 28 33 46 50 64 72 72 71 77 73 79 76 77 83 82 82 80 75 69 71 70 68 67 68 70 71 80 85 89
82 62 58 51 45 43 38 30 32 30 31 29 29 30 31 30 29 29 22 23 24 35 41 49 55 68 76 79 80 74 85 84 85 84 84 84 83 80 76 76 76 79 80 84 86 88 92 90 90
68 59 54 50 46 42 38 36 35 33 31 30 29 29 29 30 29 29 27 23 22 34 42 47 53 59 71 79 82 84 84 84 86 85 87 85 84 81 78 79 81 88 94 92 92 88 88 85 85
52 52 52 54 52 44 40 37 35 33 32 32 31 30 30 30 27 28 29 26 24 33 42 45 48 53 66 77 82 83 83 83 83 86 89 89 82 83 85 86 95 94 93 92 91 90 85 82 79
62 66 53 51 53 53 46 45 42 32 32 32 31 31 30 29 26 27 27 26 27 39 46 50 54 58 62 70 82 84 84 82 84 90 90 95 95 96 94 98 96 93 89 89 84 84 62 44 38
73 71 77 53 50 48 47 63 43 33 33 33 32 31 30 26 26 28 28 28 33 40 50 54 56 59 63 72 79 83 83 83 87 89 91 95 97 99 100 96 92 90 86 69 54 36 33 35 34
85 90 83 67 49 52 49 57 42 35 34 33 33 29 30 24 25 25 28 32 34 35 39 39 42 50 64 73 86 82 83 84 90 94 94 96 99 96 94 91 70 44 33 33 35 34 30 26 24
69 88 83 82 56 54 60 56 46 34 36 36 32 26 25 27 28 31 33 39 44 47 45 41 38 42 65 77 85 83 86 90 94 92 94 92 82 77 49 34 33 35 33 30 28 27 25 22 19
72 79 82 66 53 58 57 56 49 41 34 37 30 24 28 33 36 38 39 48 58 58 56 63 58 64 71 83 85 85 88 91 92 92 73 49 38 31 35 34 33 32 32 31 30 27 24 21 18
77 87 86 67 58 61 56 58 45 40 38 34 31 29 32 42 40 41 47 60 70 74 74 73 73 78 80 83 86 86 88 86 72 54 39 32 35 36 35 36 35 34 32 29 25 21 18 16 13
79 87 80 73 62 60 68 67 52 41 35 32 30 27 31 36 40 46 50 62 77 78 81 82 82 82 81 82 85 79 70 56 42 34 33 36 37 38 37 39 39 37 34 29 22 17 14 13 13
80 58 60 61 75 86 69 87 64 46 40 37 31 30 34 42 42 46 48 59 74 83 85 84 86 89 86 75 62 54 43 39 34 34 37 38 40 41 42 42 42 39 33 26 20 15 12 10 10
68 56 64 62 77 84 85 96 69 45 42 36 34 36 37 40 40 45 46 50 65 70 82 84 76 69 61 49 42 41 38 34 36 39 39 42 43 44 45 45 42 37 30 23 16 13 11 10 11
61 68 69 78 81 96 84 95 68 53 40 36 34 40 44 45 45 49 50 50 56 59 58 55 49 50 51 50 50 37 33 35 40 41 44 45 46 46 46 44 37 30 21 14 12 10 10 10 14
81 85 92 93 95 89 65 85 75 37 34 36 36 44 45 44 49 53 52 54 56 57 54 52 52 52 53 46 36 34 36 40 42 46 47 47 48 47 44 35 28 20 14 11 10 9 12 16 17
89 78 80 90 78 68 77 97 63 38 32 29 36 43 46 52 52 52 53 55 56 53 48 44 43 39 38 36 35 38 41 44 47 48 49 49 48 45 38 29 22 15 11 9 11 15 18 19 16
86 95 59 95 96 83 90 52 32 34 41 43 45 47 53 56 54 54 56 55 55 51 45 40 38 36 36 36 38 41 44 48 50 50 50 50 47 41 31 24 17 11 9 14 18 20 21 18 17
72 59 90 100 98 98 75 53 50 41 45 46 48 49 55 58 56 57 58 57 57 50 46 43 40 37 37 39 42 45 48 50 52 52 52 51 45 34 26 16 10 11 16 20 22 22 20 18 18
94 99 75 83 86 85 78 59 38 38 38 46 48 48 54 56 55 58 61 62 58 54 50 46 42 40 40 42 45 48 51 53 54 54 54 49 38 26 14 10 12 16 21 23 22 21 21 22 25
63 84 72 86 94 74 60 51 35 38 37 41 45 49 52 52 55 58 62 66 63 58 54 49 46 43 43 45 48 51 54 56 57 57 54 42 26 14 10 13 16 22 24 22 20 22 24 29 36

GFSSGP_850_rhum_024.txt.gz
RH
34 28 27 28 35 45 45 37 24 27 27 22 21 21 24 28 27 39 47 49 40 40 29 46 80 83 75 78 79 81 69 73 54 42 39 62 89 89 81 56 52 49 38 34 37 78 82 76 63
38 28 30 30 37 37 38 27 26 23 21 22 23 21 24 40 44 43 47 41 42 32 27 43 76 78 79 83 82 82 75 52 51 54 64 58 88 87 76 56 43 45 40 32 30 37 60 64 62
41 35 35 47 51 44 34 26 26 21 19 22 22 26 31 41 48 44 48 36 40 36 28 39 70 71 83 87 83 82 60 47 48 44 74 84 60 70 78 71 71 62 46 28 24 27 27 28 31
45 40 36 46 47 41 29 31 24 20 16 21 23 34 37 40 43 42 40 41 41 40 40 41 64 64 86 80 78 73 53 41 40 40 74 86 84 87 95 84 75 85 51 28 26 27 28 32 39
48 46 54 52 50 39 32 26 20 20 20 22 22 30 42 44 41 40 34 43 45 42 44 43 52 62 81 78 77 56 52 36 30 34 65 85 88 86 86 85 81 84 34 33 31 34 35 35 36
55 48 66 63 49 38 35 27 19 19 20 23 24 34 42 45 49 45 51 52 53 47 49 47 40 50 64 62 63 62 46 34 27 30 55 70 79 86 88 88 86 58 35 34 36 38 40 42 43
66 68 68 58 52 48 36 28 20 21 24 24 24 37 39 37 38 48 53 56 56 54 54 43 34 45 59 62 60 51 45 42 36 26 39 55 66 76 80 79 66 48 41 38 39 43 44 46 48
62 68 70 63 59 54 35 28 19 18 20 24 23 39 37 33 34 47 50 53 56 55 57 48 37 38 44 42 43 46 47 48 40 31 29 31 43 57 55 50 50 50 43 40 41 45 50 56 61
74 86 87 67 59 47 34 33 28 22 22 23 25 27 26 29 41 50 52 54 57 56 52 46 48 44 48 50 56 72 68 56 36 33 51 33 31 53 66 63 59 50 50 50 54 56 61 65 69
84 94 80 57 50 47 39 34 29 28 30 29 28 28 28 27 34 34 38 37 41 44 44 41 48 52 60 64 71 77 70 64 68 63 68 64 61 64 64 66 65 63 62 62 64 67 70 78 84
80 89 64 54 46 43 43 38 34 30 35 29 28 31 31 30 31 34 32 34 27 30 42 46 45 54 61 65 73 76 75 76 77 78 78 77 74 74 67 62 68 72 74 78 82 85 89 89 89
83 71 65 62 56 53 53 42 41 34 30 28 29 29 29 30 32 32 30 27 24 31 36 45 49 52 60 71 73 79 81 82 80 82 85 84 83 80 78 78 81 83 89 92 92 93 91 90 89
76 70 62 63 60 57 53 52 47 40 35 30 29 29 28 27 29 30 30 30 23 25 30 43 51 53 59 68 77 81 82 86 86 86 87 87 86 84 82 84 88 94 96 96 91 88 87 87 84
59 61 61 57 57 57 58 56 46 41 35 33 32 31 29 26 28 30 30 30 27 23 25 40 52 59 65 72 81 84 85 82 83 84 87 91 91 90 89 92 92 96 94 90 89 87 82 85 72
63 77 69 58 52 58 53 64 61 46 40 34 32 32 31 29 30 30 29 29 29 27 24 38 53 62 68 74 81 84 81 81 85 85 87 92 96 95 93 95 97 91 90 86 84 86 69 40 34
75 75 83 52 52 52 55 75 53 41 38 37 35 32 31 32 32 31 29 30 28 27 28 43 56 60 63 71 82 82 79 82 79 82 86 89 94 97 98 95 91 89 88 77 45 34 33 33 28
84 97 84 72 51 56 61 62 51 42 41 38 35 33 32 32 32 30 30 29 29 33 41 50 55 58 62 72 78 82 80 79 80 82 88 93 95 98 99 92 88 58 36 34 32 30 29 28 27
70 86 83 81 64 58 62 63 54 46 43 40 36 33 35 32 31 27 28 28 30 33 38 47 53 58 65 70 79 81 80 81 86 89 90 93 94 93 76 42 34 34 33 32 31 29 26 23 21
73 77 87 77 62 72 68 61 51 47 49 47 41 36 35 31 34 34 34 32 34 40 42 44 42 44 58 72 84 83 82 83 84 90 93 85 60 36 34 34 35 35 34 34 32 28 24 22 21
85 88 84 70 56 62 68 72 60 50 45 43 43 40 35 30 37 39 36 34 41 43 49 48 45 42 63 74 85 85 86 84 90 94 71 38 34 35 36 36 38 39 40 36 31 27 22 18 14
87 91 79 77 67 56 57 61 60 52 48 43 40 38 36 32 36 39 40 42 52 56 64 66 64 72 79 84 87 87 91 92 85 54 35 35 36 38 39 41 44 44 41 34 28 22 18 14 13
90 69 73 74 75 90 70 80 62 55 52 48 42 39 36 37 36 41 48 54 61 65 74 79 81 85 87 88 88 86 84 75 47 35 35 37 40 42 44 46 45 40 33 28 20 15 13 12 12
74 56 63 71 82 80 72 86 68 57 57 50 43 38 35 37 36 42 49 57 73 71 78 83 82 83 85 84 78 71 59 42 35 35 38 41 43 45 47 46 40 31 27 20 15 13 12 12 15
65 69 70 73 84 92 65 78 68 66 59 46 42 38 37 45 45 50 60 72 82 83 85 87 90 90 85 67 54 42 37 34 34 38 41 44 46 47 47 42 33 26 21 16 13 12 14 17 20
63 79 92 100 96 80 51 72 60 58 54 42 38 42 39 51 49 56 65 70 77 85 87 85 84 76 56 47 44 40 34 36 39 41 45 47 48 48 45 37 28 22 17 12 11 15 18 20 20
79 77 91 91 97 62 67 81 63 50 40 36 37 34 47 57 51 55 57 63 68 69 73 65 57 50 53 52 44 36 37 40 43 46 48 49 49 47 41 30 23 16 11 12 16 18 20 20 18
88 94 61 79 76 96 86 77 57 54 44 45 44 53 60 67 61 57 57 58 62 61 58 55 54 54 55 46 38 39 41 43 47 49 50 51 50 45 36 26 17 11 13 16 19 22 20 18 16
70 64 93 94 98 83 78 91 62 50 48 56 56 58 66 75 72 61 60 57 59 57 56 55 51 46 43 40 39 41 44 48 50 51 52 53 49 40 28 18 12 13 15 21 22 20 18 17 17
94 98 85 66 77 95 78 76 43 38 42 57 60 60 71 77 68 62 61 59 55 52 49 46 42 39 39 40 41 44 48 50 53 54 55 53 44 31 19 13 13 15 21 23 20 18 19 21 25
94 83 79 78 71 96 98 71 39 42 45 48 55 60 70 72 66 62 62 59 56 52 47 44 41 40 40 42 44 48 51 54 56 57 56 48 35 22 14 13 15 23 24 20 19 20 21 28 34

GFSSGP_850_rhum_027.txt.gz
RH
36 31 26 28 38 47 42 37 27 27 26 23 23 25 26 31 28 37 42 45 33 41 33 75 83 92 84 76 78 80 79 66 54 48 60 92 87 96 83 64 45 40 38 38 42 91 88 74 69
40 31 28 31 45 38 38 30 28 25 21 24 23 24 28 42 43 40 41 35 37 31 25 36 79 85 81 82 83 82 76 60 48 46 83 89 92 80 70 43 40 51 48 39 35 57 73 72 63
44 36 34 49 54 51 36 27 28 25 20 23 24 31 35 44 43 36 43 32 34 29 24 34 65 82 85 89 87 79 81 54 54 55 85 79 95 81 69 62 72 84 55 33 27 32 35 35 32
43 42 38 50 52 45 30 29 29 26 18 23 25 35 39 40 43 45 40 33 35 31 26 32 57 66 87 88 85 79 73 53 49 48 83 85 82 90 87 83 75 87 38 28 26 25 26 29 35
47 48 58 57 55 42 35 30 27 25 21 22 22 31 41 40 38 40 36 35 38 34 33 36 57 58 84 83 74 69 61 47 41 40 75 85 93 88 92 89 82 84 34 31 32 34 37 39 40
56 51 71 65 50 40 38 30 27 22 20 24 25 39 41 41 40 37 38 42 49 44 38 38 47 54 88 81 68 65 59 40 32 31 64 76 90 89 84 89 87 78 44 39 40 42 43 45 46
69 69 73 62 54 48 38 30 30 26 23 25 24 40 38 40 42 47 47 51 52 55 52 46 38 45 61 64 60 64 54 45 36 27 47 61 75 78 90 85 76 48 40 38 40 42 46 50 56
66 74 75 69 59 54 36 30 26 20 21 24 24 40 35 32 35 52 54 55 55 55 57 53 39 37 45 58 60 56 54 50 43 32 32 52 56 70 69 61 45 48 44 43 46 51 57 63 67
75 87 89 70 64 50 38 36 31 28 24 26 26 27 27 28 32 50 52 56 59 58 58 57 49 37 44 52 53 60 68 62 44 37 47 37 34 48 60 60 61 59 65 64 64 68 72 76 82
87 95 76 61 54 50 40 39 35 33 32 31 30 28 26 31 31 36 39 40 47 50 49 53 50 48 48 54 58 74 78 70 62 52 62 57 53 64 66 67 65 68 73 77 79 84 86 90 90
87 87 64 62 53 48 50 44 42 37 39 31 30 31 30 31 33 34 35 33 31 31 45 48 49 52 58 61 72 81 80 76 76 75 78 73 69 70 67 68 68 73 80 86 92 93 94 92 91
82 73 72 67 61 61 61 50 45 40 36 36 33 32 31 30 32 34 35 36 35 31 33 40 49 54 60 69 75 81 80 81 79 85 86 85 82 79 77 75 76 82 90 96 96 93 94 89 87
81 74 66 62 64 66 62 65 62 53 49 43 41 34 32 31 30 30 30 31 32 31 27 34 47 52 59 68 78 85 84 86 86 88 88 88 88 86 84 85 88 93 92 95 92 88 88 83 82
64 65 65 57 58 61 64 62 60 52 47 48 43 35 32 31 29 29 28 29 30 30 26 24 36 51 58 67 75 83 85 88 89 86 88 90 91 93 94 93 93 89 91 91 86 83 84 85 82
66 78 70 67 56 59 52 61 63 54 53 52 47 41 33 32 30 31 29 29 30 29 29 25 26 47 58 64 75 85 86 84 81 80 84 88 92 98 98 98 96 93 86 87 88 88 80 50 36
76 78 88 56 62 56 53 67 54 48 48 50 44 38 36 33 31 30 31 31 30 29 30 28 28 48 61 71 80 84 78 78 77 80 86 86 88 94 97 96 92 90 87 80 49 35 33 32 30
84 95 88 71 56 55 67 63 50 42 47 49 45 41 38 34 32 32 31 30 30 30 30 29 31 52 65 76 84 81 78 82 87 89 87 84 89 95 98 96 92 70 38 34 33 32 31 29 27
76 98 84 82 62 66 70 66 54 47 50 53 47 42 40 37 34 32 31 32 32 34 34 36 44 58 69 78 84 84 76 87 93 90 89 82 88 96 97 75 35 34 34 33 33 33 31 28 26
88 86 84 79 64 72 75 72 65 56 52 50 52 46 44 40 35 33 32 34 35 33 34 45 55 65 65 74 80 84 73 88 91 92 90 88 91 80 38 35 35 35 37 40 39 35 30 26 23
89 96 86 75 64 64 69 69 56 50 49 54 49 47 43 41 38 35 33 35 36 34 36 42 47 56 64 69 77 79 78 80 81 89 91 88 52 35 35 37 38 42 42 39 32 29 24 20 17
86 87 69 71 60 63 72 64 45 38 41 48 52 47 42 40 36 36 33 35 37 37 39 41 46 48 51 72 80 84 76 82 79 83 89 53 35 36 38 40 44 44 35 28 26 23 19 16 14
88 72 76 80 86 88 70 81 51 46 46 45 46 48 46 43 40 37 34 37 39 44 47 52 54 50 61 85 82 80 76 77 80 83 54 35 37 40 42 45 45 38 29 26 24 20 17 13 13
73 61 77 78 85 87 75 95 67 51 48 47 59 49 43 39 40 37 35 38 44 52 56 69 67 69 81 87 85 86 86 87 84 53 35 37 40 43 46 47 42 35 28 24 21 17 13 13 16
62 69 74 76 88 97 67 80 56 40 42 55 54 45 44 40 38 39 38 50 54 62 69 82 86 91 92 92 91 90 89 81 56 36 37 41 43 46 48 46 40 32 25 21 16 12 14 17 20
68 91 97 97 96 83 56 71 55 41 49 53 51 44 40 39 45 43 45 65 65 66 75 86 88 90 91 90 82 77 67 47 35 36 40 44 47 48 48 44 36 28 20 14 12 14 17 20 20
86 87 95 90 92 84 49 71 49 39 32 29 28 35 39 42 49 45 46 61 67 70 79 88 91 89 88 77 62 50 40 36 38 40 44 48 49 49 48 41 30 20 14 13 15 18 21 19 18
99 98 72 87 68 89 80 67 56 36 55 56 49 43 40 51 58 54 58 67 74 77 83 88 91 89 78 54 47 42 38 40 41 45 48 50 51 50 44 32 20 14 14 15 18 21 19 16 16
83 65 95 98 96 91 60 68 73 52 40 30 42 55 54 62 68 69 69 70 77 81 86 85 83 73 54 54 48 39 40 42 46 49 51 52 53 47 36 24 15 14 15 19 22 20 17 16 17
93 96 90 75 84 90 75 48 29 42 37 39 58 61 68 75 76 77 76 72 68 74 76 71 64 59 60 54 43 41 42 47 50 52 54 55 50 40 28 18 15 15 18 23 21 18 17 16 17
63 71 77 81 88 76 71 65 45 52 49 49 67 72 80 85 85 77 69 66 66 66 64 62 60 56 52 46 42 43 46 50 52 55 57 53 44 33 21 16 15 19 24 23 20 18 17 17 21

GFSSGP_850_rhum_030.txt.gz
RH
34 34 28 27 40 48 42 37 30 28 28 25 25 25 28 27 33 41 39 37 33 38 34 94 88 80 83 86 79 76 70 68 54 47 71 84 80 88 84 73 42 40 40 41 55 97 93 73 86
35 33 28 30 48 46 41 33 31 26 24 22 26 31 30 39 42 42 41 34 30 34 32 53 92 87 82 77 81 79 78 71 52 41 97 96 94 77 63 42 47 56 44 35 34 74 79 73 60
38 39 32 49 57 55 41 27 28 29 24 22 26 31 34 42 44 36 36 31 28 29 28 42 77 90 86 80 82 84 79 64 50 44 80 93 94 74 61 65 79 74 40 28 25 31 36 39 36
46 42 38 52 54 47 33 24 31 31 21 24 28 35 38 38 41 42 42 31 30 27 27 36 64 80 82 88 86 80 73 59 47 48 90 70 84 87 80 81 75 56 36 31 29 26 27 30 32
51 48 57 59 56 44 38 32 30 31 24 22 24 30 37 38 39 40 37 32 35 31 32 35 57 78 84 87 84 75 59 53 38 40 86 89 88 92 90 88 83 63 36 35 36 39 41 43 47
55 52 72 69 53 42 39 32 31 26 24 20 27 37 36 39 39 38 35 39 42 40 36 39 53 58 74 86 75 68 56 48 32 34 69 87 93 90 86 88 88 71 46 45 45 46 47 49 51
69 73 74 63 57 48 39 31 31 31 25 23 26 36 33 38 41 42 43 46 52 53 49 39 40 48 67 91 75 65 61 48 34 30 52 74 84 88 87 86 87 58 50 47 46 49 52 60 67
69 72 77 72 60 56 35 33 29 22 22 23 27 38 33 32 31 44 49 52 55 58 60 55 46 40 49 60 68 66 59 53 43 31 45 64 72 75 86 82 62 56 56 54 62 62 71 73 76
73 87 93 74 66 54 39 38 34 32 30 29 27 28 26 27 31 35 47 52 54 57 60 59 55 42 45 52 63 65 61 62 50 39 39 48 53 60 58 62 67 67 70 68 72 74 77 81 86
87 97 79 65 58 50 44 42 40 38 39 34 31 29 25 25 29 29 37 39 44 46 52 56 57 51 44 50 57 60 74 71 53 46 52 43 35 55 73 74 69 70 74 79 82 86 90 92 91
88 89 69 65 59 57 55 50 46 42 47 35 34 34 41 39 32 33 33 36 34 35 45 46 52 56 55 51 56 64 80 71 68 61 70 66 65 69 71 70 70 75 81 87 93 96 95 93 90
84 77 76 72 66 67 66 60 62 49 43 36 39 41 36 36 44 34 35 36 38 38 40 42 48 56 59 61 65 75 82 77 76 77 82 81 78 81 79 76 77 82 89 96 93 94 92 88 86
86 80 69 65 62 63 64 71 72 66 58 49 44 46 40 37 32 33 32 33 33 33 33 36 41 51 58 63 72 81 84 82 85 88 89 89 88 89 85 84 84 93 93 94 90 84 85 83 84
68 67 68 62 58 59 66 64 63 59 56 51 50 45 42 39 34 32 31 29 29 30 31 31 30 38 55 62 70 79 86 88 91 89 90 90 90 89 90 94 96 93 89 88 87 86 84 83 76
70 82 75 70 62 62 54 68 69 53 53 54 52 49 44 39 35 33 32 31 30 28 30 30 30 28 46 60 70 82 89 89 88 85 85 84 86 86 95 97 96 94 92 87 87 80 49 36 34
75 80 93 62 65 58 57 71 51 41 49 56 50 48 45 38 37 34 33 32 29 30 30 30 29 28 38 60 72 84 92 84 82 80 80 82 84 87 91 94 94 93 90 71 40 34 33 32 31
78 83 86 75 57 61 73 69 56 50 52 55 55 52 47 41 38 34 33 33 32 31 30 29 29 30 34 62 75 86 89 79 81 84 84 87 87 84 88 94 95 87 43 34 34 32 32 32 30
74 72 62 74 65 69 75 74 60 54 51 52 49 46 48 47 43 39 36 36 32 30 30 28 31 31 41 67 77 86 88 80 87 88 90 92 89 82 90 96 73 35 35 34 37 37 32 27 25
77 93 90 75 66 76 75 69 58 50 55 60 56 54 51 44 43 41 38 36 32 33 32 30 33 36 51 69 78 88 90 88 90 95 95 95 89 85 86 40 35 36 38 39 32 24 23 23 22
85 87 77 70 65 71 71 68 56 52 52 51 56 54 55 46 39 39 39 39 33 36 33 31 32 45 59 73 78 84 92 90 89 94 96 96 91 79 37 36 37 41 42 35 28 23 23 23 21
88 91 84 78 62 63 70 66 44 35 37 41 40 43 45 50 47 39 37 38 36 35 33 32 35 52 68 79 83 91 91 88 87 92 96 88 69 38 36 38 42 44 40 36 28 24 23 20 14
89 74 76 80 88 92 72 82 51 41 41 41 37 41 48 42 42 42 40 38 37 36 37 38 40 50 63 80 86 85 83 76 85 79 74 76 43 36 39 43 45 45 42 35 26 23 19 14 13
76 69 79 83 95 98 85 92 66 48 48 44 50 45 41 36 30 33 38 36 36 38 38 42 45 54 57 72 90 88 84 77 70 76 77 49 37 40 43 46 46 45 40 32 24 18 14 14 15
64 74 76 92 97 95 69 82 58 44 36 33 48 37 36 38 40 40 38 38 38 43 46 51 51 58 59 73 91 82 79 74 73 74 57 37 40 43 46 47 47 44 36 26 18 15 14 15 18
82 100 97 98 97 86 64 79 55 38 34 41 43 40 38 39 38 42 42 39 42 47 50 61 65 66 73 90 82 82 82 83 83 72 40 39 42 46 48 48 46 40 30 20 16 15 16 18 18
82 88 95 92 86 85 59 76 49 39 35 31 31 30 31 42 42 43 42 41 42 49 54 69 80 84 90 88 87 91 93 87 62 39 39 43 47 48 49 47 43 34 24 17 16 16 19 19 16
98 98 72 97 96 96 80 67 52 46 44 48 49 35 32 30 29 42 46 46 49 54 59 70 88 94 95 94 94 86 70 49 38 39 43 47 49 50 49 45 36 27 19 16 16 19 20 17 16
81 79 97 98 96 94 76 68 56 45 30 30 38 32 28 36 43 46 53 56 60 68 72 85 92 94 94 89 74 58 44 40 40 43 47 50 52 52 48 40 33 23 17 17 21 22 19 17 17
97 96 100 89 95 92 72 51 32 29 26 43 50 37 31 34 38 50 64 67 70 80 86 92 95 94 87 69 53 45 40 41 44 48 51 53 53 50 44 37 26 19 17 22 24 21 19 18 16
68 77 78 84 88 86 82 55 32 43 55 58 61 58 50 51 65 73 77 83 86 85 91 94 92 88 72 56 50 42 41 44 48 52 54 55 52 48 43 31 21 18 22 26 23 20 19 18 18

GFSSGP_850_rhum_033.txt.gz
RH
35 33 30 27 36 38 36 31 32 28 28 26 24 26 26 28 32 35 40 41 36 38 37 75 85 83 86 84 76 67 56 57 47 39 38 68 80 90 82 74 39 36 37 46 83 96 86 93 95
36 34 30 28 39 42 36 31 31 28 26 26 27 30 29 33 39 42 45 36 33 37 34 59 86 79 77 80 73 71 70 53 41 37 86 84 91 67 52 39 53 49 38 32 38 74 77 72 71
39 37 32 41 46 42 37 29 29 29 25 23 28 32 30 37 42 39 38 33 30 34 40 59 89 84 78 70 71 75 73 51 39 38 93 94 91 60 57 68 70 45 33 29 31 44 50 48 41
43 42 38 43 44 43 34 25 31 31 24 24 28 33 36 39 41 40 38 35 29 31 40 67 95 91 88 71 75 76 70 51 40 45 83 87 75 76 66 74 70 38 35 36 33 33 32 38 39
48 46 49 53 48 41 37 34 32 31 28 22 24 28 37 37 39 42 42 33 30 28 38 65 82 87 82 80 81 75 60 52 38 43 77 79 90 88 89 85 85 65 45 44 45 46 46 48 52
56 51 58 56 50 43 38 34 32 30 27 24 27 35 34 38 36 38 37 37 36 30 31 50 80 91 81 83 75 69 57 50 34 34 75 92 88 88 89 86 88 76 52 51 50 52 54 55 59
65 62 64 58 54 44 37 30 32 30 31 25 27 33 32 39 42 38 38 45 45 42 38 40 59 74 72 94 72 64 57 48 34 29 59 87 87 88 84 84 82 66 54 54 51 54 60 70 74
67 60 71 63 52 48 36 34 31 25 25 23 28 31 31 36 42 40 42 49 56 54 54 52 50 62 64 82 76 64 57 49 40 30 47 68 80 84 88 85 75 57 59 58 78 68 73 75 77
71 79 79 66 61 48 41 39 35 34 32 34 29 28 31 30 37 37 41 45 50 55 58 62 61 55 57 64 74 68 60 56 48 36 39 57 61 74 80 73 62 65 74 72 75 77 77 82 84
81 91 75 63 54 49 46 45 43 39 40 38 34 33 35 30 37 35 33 36 42 47 54 59 64 61 53 57 66 69 64 69 54 39 45 42 47 56 64 68 70 70 73 77 81 86 86 90 91
88 90 69 66 60 62 62 59 52 46 50 40 36 31 35 42 44 46 41 35 35 39 48 54 61 64 60 50 57 67 68 76 61 46 56 50 44 61 73 73 71 73 77 84 91 96 93 91 86
83 81 83 72 64 65 69 66 68 60 49 44 39 42 41 40 38 51 47 39 37 37 40 46 53 60 64 59 56 63 71 77 69 59 69 68 70 75 74 75 75 79 87 95 92 90 89 86 85
86 79 72 68 64 61 61 70 67 67 57 55 53 51 46 43 39 35 41 40 40 36 34 36 41 46 54 61 62 67 78 82 79 75 80 85 84 86 84 83 84 91 92 88 89 84 84 82 82
71 71 70 66 62 60 62 58 64 51 48 49 50 50 43 43 40 37 34 31 31 30 30 31 32 33 44 56 62 70 83 86 87 86 85 87 87 89 86 86 91 91 89 87 87 86 85 74 51
72 78 71 69 66 63 57 64 68 54 54 51 47 49 46 41 40 38 35 33 32 30 29 28 30 31 31 41 62 72 84 91 86 82 84 85 86 83 86 86 90 89 90 92 87 78 43 34 33
74 74 82 63 62 63 56 59 50 44 50 56 54 49 43 28 34 37 36 36 33 33 31 30 30 29 30 30 57 71 87 90 85 87 86 84 85 86 81 86 92 93 93 83 42 34 33 32 32
79 86 88 68 58 63 67 69 53 56 58 56 53 56 55 49 37 30 34 36 36 34 32 31 31 30 30 30 55 73 86 91 84 88 86 86 90 88 83 85 91 95 72 34 34 33 33 28 21
82 90 72 64 55 66 68 67 54 52 52 51 53 51 48 48 48 46 34 35 38 36 34 33 31 31 31 34 54 76 86 92 93 83 92 90 95 91 85 86 81 62 34 34 38 33 25 20 19
78 86 79 67 59 70 65 64 56 50 51 51 50 49 47 42 39 42 44 42 40 38 35 32 31 31 31 34 55 79 84 91 89 92 91 96 96 91 88 84 46 35 36 41 36 31 24 21 18
79 84 69 56 53 65 66 66 51 48 46 44 44 45 46 33 38 36 39 42 42 40 35 33 34 37 35 41 51 74 83 90 92 94 98 98 93 96 85 53 34 37 42 40 37 32 26 21 17
85 88 82 79 63 59 63 59 37 32 35 38 42 44 44 43 36 32 35 35 38 39 37 35 36 39 39 43 60 83 94 99 100 100 99 98 96 87 52 35 37 42 44 42 40 33 24 18 15
90 73 73 77 82 86 69 67 38 34 33 32 35 38 41 38 39 24 29 36 37 37 38 36 38 38 44 57 73 81 86 92 97 96 98 97 86 54 37 38 41 45 45 43 38 30 22 17 15
75 67 74 77 89 87 76 84 49 47 47 40 34 32 30 30 32 28 24 34 36 36 38 37 39 45 50 68 85 91 96 92 93 95 93 79 64 45 39 41 45 46 45 42 35 26 19 16 15
64 76 78 83 88 96 65 81 55 42 36 34 32 29 26 25 29 34 34 31 38 39 40 42 43 50 56 76 93 94 94 90 91 86 81 71 58 40 42 45 46 47 45 39 31 23 18 16 16
72 100 95 96 98 83 58 80 57 39 34 36 33 30 23 23 32 35 43 44 39 42 39 44 46 53 61 77 94 96 95 89 81 73 73 64 44 41 45 47 48 48 43 36 28 20 18 18 18
86 87 91 92 82 70 62 78 50 40 34 31 29 30 29 31 29 37 41 40 44 41 41 44 47 58 64 79 93 96 94 87 78 73 61 47 41 45 47 49 49 46 40 33 23 19 18 19 18
97 97 72 89 79 95 69 55 43 40 43 39 38 31 33 28 28 33 28 45 46 44 42 44 52 63 66 80 92 94 92 90 80 59 42 41 44 47 49 50 48 44 38 26 20 19 21 20 18
87 72 96 98 96 86 72 72 53 43 31 24 31 51 47 39 36 32 32 40 46 50 53 60 67 71 80 88 88 93 94 71 59 44 41 45 48 50 51 50 47 41 29 22 20 22 22 20 19
91 95 99 89 88 81 66 48 36 31 28 32 55 55 50 39 42 38 35 44 49 57 71 79 85 89 89 84 92 89 69 51 40 41 45 48 50 52 51 49 43 32 23 20 24 24 23 21 20
63 72 76 96 80 92 87 63 29 35 42 54 44 54 54 58 56 58 57 60 66 79 91 93 96 94 91 90 82 64 49 41 42 46 49 51 53 52 50 45 36 25 21 26 27 26 24 22 20

GFSSGP_850_rhum_036.txt.gz
RH
36 34 30 30 27 25 25 17 21 22 21 22 22 22 21 22 25 27 36 42 36 36 90 87 87 83 78 76 67 53 48 48 44 41 44 88 85 88 86 75 38 38 63 77 90 88 90 92 94
37 34 33 28 27 28 21 18 20 22 21 23 23 24 24 22 35 49 50 38 40 47 89 98 92 81 82 79 69 61 63 48 39 38 48 84 84 86 77 45 62 48 37 35 57 81 87 90 87
39 35 31 26 26 26 23 20 18 22 21 21 23 28 25 28 45 46 47 33 42 65 90 94 90 84 80 77 68 66 64 43 32 57 91 87 88 45 47 64 48 34 30 28 33 58 67 63 56
51 39 33 29 27 24 23 18 23 22 21 23 23 24 32 38 46 50 38 36 41 85 92 62 90 84 81 69 67 70 62 41 32 71 89 89 58 53 74 76 58 37 37 36 32 33 33 38 39
49 37 29 32 26 22 22 22 23 22 22 20 20 22 27 43 39 39 39 38 64 82 91 68 97 92 92 76 72 69 57 41 35 52 77 74 80 82 82 82 80 52 44 44 44 45 48 50 54
41 34 32 31 25 24 23 22 24 22 21 21 19 20 24 37 41 40 40 37 58 79 84 94 93 96 92 87 79 69 55 46 32 49 72 86 84 85 93 82 84 69 49 48 50 51 51 55 58
35 33 28 26 24 25 23 24 24 21 20 20 23 21 26 38 45 41 40 47 44 60 52 92 91 89 87 90 84 69 56 47 33 34 75 90 89 84 84 82 84 68 50 49 56 53 58 64 65
44 33 30 33 27 28 22 26 24 24 20 23 26 19 22 42 46 43 40 46 49 47 66 88 94 98 90 89 87 75 64 52 38 29 60 83 82 86 90 80 82 65 55 56 75 64 68 71 73
65 39 35 32 31 27 32 28 24 32 29 30 26 28 36 31 47 55 63 54 62 54 52 72 93 96 97 99 90 82 73 62 51 33 42 62 93 82 91 85 71 58 80 66 70 72 74 79 82
48 44 34 29 30 31 31 32 33 32 28 26 29 34 37 34 46 67 67 66 72 67 61 65 87 96 97 96 96 85 95 84 77 46 39 90 92 89 73 62 59 64 70 73 76 81 87 93 95
50 48 35 46 44 49 43 43 42 33 32 29 27 28 38 42 54 59 58 54 64 72 77 59 65 84 94 94 96 98 95 98 96 71 57 72 57 53 70 74 72 73 74 93 89 96 92 89 85
57 50 50 48 55 57 50 48 47 41 32 30 40 41 44 42 40 46 53 54 56 65 53 52 57 57 62 92 94 98 97 98 96 66 64 64 76 64 86 87 76 81 95 99 95 88 83 82 82
54 44 50 50 58 51 47 46 43 42 43 46 46 47 44 42 42 41 44 52 53 56 46 46 48 52 52 63 89 96 98 97 95 69 72 85 89 94 80 87 92 95 93 87 87 85 84 83 80
54 57 54 54 52 50 50 44 42 40 39 38 38 40 40 40 39 40 40 40 40 47 51 45 35 40 51 51 64 89 97 98 98 87 76 82 84 83 86 85 85 87 86 85 85 85 85 73 43
60 61 47 45 45 45 48 47 43 39 38 36 35 34 35 34 35 40 40 40 36 35 37 34 34 35 37 49 64 79 95 99 97 97 82 82 82 83 80 81 82 85 86 87 89 84 52 33 31
53 52 52 43 46 46 49 41 28 35 37 40 38 35 32 34 34 34 39 40 41 41 36 34 33 33 33 45 77 93 96 97 99 88 81 81 78 79 80 79 81 86 88 90 75 35 33 33 29
53 53 55 50 41 45 49 47 37 45 40 41 39 40 41 41 37 34 35 38 42 41 40 34 33 32 33 39 86 94 97 99 97 86 83 79 79 82 84 81 83 86 91 63 34 34 34 27 22
45 54 48 49 40 44 45 46 39 40 39 39 40 39 39 41 43 42 41 40 39 38 36 36 33 33 33 36 86 94 100 100 94 86 86 86 86 88 88 87 85 78 56 34 36 36 35 30 23
53 54 55 46 42 45 46 44 38 35 36 35 34 34 34 35 37 40 43 43 44 42 33 36 34 33 33 39 78 96 99 85 82 88 96 94 88 94 94 90 88 56 34 35 40 39 37 31 24
59 61 58 46 40 44 43 41 32 29 29 29 28 27 25 25 27 29 37 41 45 45 43 39 36 34 32 47 62 86 91 82 78 82 98 99 94 96 92 89 72 34 36 41 41 41 38 33 24
64 64 55 54 45 42 43 41 27 20 20 23 27 27 27 25 24 24 25 36 41 45 46 40 36 33 35 43 75 67 73 88 96 100 99 99 99 97 96 70 36 36 39 43 44 43 37 30 24
62 45 54 54 59 62 50 52 33 26 24 21 21 22 25 27 29 29 27 28 34 42 41 40 38 35 40 42 45 53 64 91 99 100 100 100 100 97 60 41 37 39 43 44 45 42 36 28 19
60 51 54 56 61 63 58 85 37 30 31 26 22 21 21 24 27 28 31 32 35 42 34 38 39 40 40 43 47 72 93 100 99 100 100 99 98 78 44 39 40 43 44 46 45 41 33 24 18
54 62 62 60 73 90 52 66 41 26 24 23 20 20 20 22 26 29 31 36 38 47 37 38 40 42 43 47 57 85 93 94 98 99 98 98 89 62 41 40 43 45 46 47 44 38 30 21 18
64 89 75 84 93 67 34 42 43 24 24 24 20 19 22 22 24 28 38 42 49 52 39 42 44 46 46 52 73 92 94 98 96 91 96 94 76 53 46 42 45 46 48 46 42 34 23 19 18
78 74 69 68 44 40 43 54 31 22 22 23 22 24 26 25 28 29 37 47 54 47 34 45 48 52 52 62 83 93 99 100 97 92 92 83 59 51 42 44 46 48 47 44 36 26 20 20 20
82 96 58 80 66 76 47 31 24 21 23 23 23 23 28 32 30 34 33 46 56 62 43 44 51 56 60 71 86 92 90 99 97 90 83 62 49 44 45 47 48 47 45 39 29 22 21 22 21
66 53 87 92 78 61 39 36 33 25 25 23 22 24 32 35 35 40 40 45 55 69 59 67 69 69 70 77 86 93 88 95 89 82 64 50 44 45 47 48 47 45 40 31 24 22 24 24 23
82 92 94 63 61 70 51 34 20 22 20 21 19 30 33 42 46 52 49 53 70 83 88 74 77 76 77 82 85 94 91 84 87 67 49 43 45 48 49 48 46 41 34 26 23 26 27 26 25
43 55 61 89 70 79 73 58 27 23 21 28 29 27 37 51 65 71 67 74 87 94 93 85 84 80 79 83 90 93 89 90 77 47 43 46 48 50 48 48 43 37 28 25 28 29 29 28 26

GFSSGP_850_rhum_039.txt.gz
RH
38 46 38 33 27 24 23 18 12 18 16 15 19 19 19 20 22 30 54 65 61 76 88 74 83 86 81 70 56 48 48 49 48 45 67 84 87 84 80 66 34 39 71 83 87 84 85 100 99
36 42 35 26 28 27 21 15 15 14 17 19 19 19 20 20 26 48 56 61 63 74 93 98 86 81 75 75 63 55 55 42 39 39 62 91 85 81 80 40 46 37 43 60 78 88 88 90 82
39 40 29 26 27 25 20 16 13 16 18 19 18 22 21 24 34 40 55 54 65 74 88 95 79 79 79 79 70 66 60 38 29 39 62 83 77 49 42 49 33 30 27 30 38 48 77 82 72
47 35 28 30 27 19 16 16 13 17 17 20 20 20 25 34 36 43 60 60 66 72 80 92 82 81 79 76 71 72 62 36 36 92 94 89 86 50 68 68 50 37 36 29 31 37 35 31 30
48 31 30 27 23 17 15 15 17 17 17 18 19 19 23 38 46 55 60 60 63 71 81 79 82 80 80 75 70 67 55 37 38 77 79 65 51 71 74 76 68 44 43 43 42 43 44 46 46
36 28 30 28 22 16 14 17 18 17 16 17 18 19 23 42 46 56 62 58 61 70 82 98 87 89 91 79 76 72 55 41 34 62 80 68 81 87 89 78 75 53 45 46 48 49 49 50 53
37 31 29 24 20 16 15 18 18 17 16 16 17 18 22 31 52 60 61 60 64 70 80 95 95 87 91 89 84 74 60 48 35 62 68 83 87 85 85 84 83 69 48 45 50 51 56 60 64
38 30 30 24 20 19 14 17 19 18 17 18 20 17 18 38 58 59 60 64 68 72 77 81 93 96 85 83 88 77 64 54 37 39 75 85 85 82 85 81 84 72 51 51 61 60 64 67 69
50 42 35 27 20 20 18 20 21 21 21 21 20 20 33 39 57 59 62 68 69 73 75 76 79 99 99 94 86 80 70 61 46 31 47 67 89 92 90 85 84 58 70 62 64 67 68 73 82
47 41 29 17 16 19 19 22 21 22 23 20 23 24 33 41 51 56 57 60 64 71 71 75 76 82 83 93 96 88 79 62 55 42 38 60 87 89 94 82 74 57 72 67 70 72 78 84 86
42 44 24 22 32 32 28 24 28 26 27 19 19 22 28 35 41 50 51 49 56 62 69 76 80 80 81 85 95 99 98 99 96 90 79 84 85 82 66 60 59 68 70 90 83 89 84 81 79
44 36 32 29 36 43 41 34 30 29 28 23 24 29 34 34 33 38 43 44 45 54 66 75 79 84 83 86 88 98 96 92 88 88 78 78 73 76 77 81 85 90 87 86 92 82 80 79 76
44 38 33 37 41 42 44 39 35 34 34 32 31 32 36 37 33 33 34 40 42 47 59 70 77 87 93 88 88 83 82 88 92 89 81 78 76 78 81 83 85 84 89 85 83 77 69 75 76
40 40 38 40 40 40 42 37 35 32 31 30 31 32 33 35 34 33 34 35 41 42 51 60 73 82 88 91 88 84 81 87 93 89 88 85 85 87 87 89 90 82 84 82 79 76 82 77 42
50 52 42 39 38 38 39 42 39 34 32 30 29 27 27 27 29 32 32 34 35 36 41 47 59 74 83 90 90 84 83 86 95 91 91 92 94 80 81 80 76 78 81 82 84 85 72 34 30
48 45 51 30 34 34 38 44 22 25 28 28 28 27 26 25 25 26 29 33 35 34 32 35 40 57 70 76 87 84 82 84 94 94 90 96 77 77 75 76 76 81 83 85 85 65 33 33 28
44 48 41 33 31 34 41 43 25 35 33 27 28 29 28 27 26 25 26 28 33 36 37 37 40 42 52 66 74 81 80 83 90 94 98 87 77 73 75 78 78 81 82 84 64 33 35 33 31
42 42 38 37 30 37 39 37 29 28 30 32 32 32 31 29 31 31 29 27 27 32 36 37 38 43 44 51 64 77 78 82 90 94 99 88 76 75 78 80 81 84 81 67 34 36 37 37 34
36 43 40 32 30 37 37 34 29 26 27 28 29 30 29 29 30 30 33 35 33 32 35 37 37 40 45 52 64 75 80 81 92 98 99 84 83 79 82 84 82 86 73 34 34 39 40 40 36
47 49 45 36 32 36 36 35 27 24 24 23 24 25 26 25 24 26 28 32 35 35 37 38 37 41 47 56 64 75 81 86 92 100 98 90 85 88 90 89 86 85 41 35 39 41 42 42 37
51 51 45 44 37 34 36 36 25 20 19 20 22 23 23 22 22 20 21 24 30 35 35 39 39 41 50 56 72 86 87 94 100 100 100 100 83 96 95 92 88 68 35 38 42 43 44 41 37
55 37 40 44 51 52 40 51 30 21 20 18 18 19 20 21 22 22 21 20 21 27 35 39 41 46 55 55 71 72 53 74 91 100 100 98 95 99 97 92 86 38 39 41 43 45 45 41 33
49 45 48 49 54 59 51 60 36 19 22 22 19 19 19 19 19 20 22 25 23 22 33 42 46 55 64 58 76 66 70 76 82 99 100 100 100 100 96 90 53 38 41 43 45 46 46 41 28
47 51 57 56 65 86 46 44 34 21 15 14 15 17 18 18 19 20 23 24 26 28 31 43 54 65 77 75 55 56 82 77 80 100 98 100 99 99 97 69 39 41 43 44 46 47 45 37 26
53 73 72 83 88 65 27 32 32 20 18 18 18 17 18 18 20 20 20 24 29 30 33 50 65 73 75 54 67 76 94 79 86 99 98 98 98 97 68 44 42 42 44 46 47 47 41 31 22
60 65 66 61 37 34 29 42 28 17 16 18 19 18 18 20 20 26 27 26 36 38 39 52 71 75 67 64 82 91 96 86 96 100 99 99 96 88 57 42 42 44 46 47 48 44 35 25 21
64 86 54 70 55 63 39 26 21 18 17 16 16 18 20 20 23 28 29 33 30 43 48 62 74 75 71 82 88 96 91 94 100 100 98 96 89 65 50 44 43 46 47 48 46 40 29 23 23
55 47 80 90 82 59 33 29 26 21 19 17 18 17 20 26 28 32 37 42 31 43 54 65 73 77 78 87 92 91 92 99 100 94 92 90 63 50 45 44 45 47 48 48 43 32 25 24 26
68 76 67 54 60 62 52 35 23 28 27 23 18 16 23 26 34 39 47 52 39 46 62 70 75 80 84 84 79 84 95 100 99 91 88 76 60 44 44 45 47 48 48 44 35 27 26 27 28
42 58 58 86 59 62 78 61 29 29 27 26 27 26 25 27 30 52 61 58 52 61 75 78 80 81 82 74 74 89 91 98 95 84 81 68 50 47 45 47 48 48 45 38 30 28 28 30 32

GFSSGP_850_rhum_042.txt.gz
RH
35 46 39 35 46 41 39 30 13 17 16 13 17 18 21 20 34 61 56 60 56 50 48 55 58 71 66 51 50 58 59 51 48 70 73 78 84 81 64 45 28 51 62 85 80 84 81 89 76
35 41 36 33 46 45 34 22 18 14 16 18 18 18 18 24 38 44 59 61 78 62 58 57 65 70 65 53 43 48 49 42 37 45 83 94 90 84 82 36 32 28 48 63 80 81 83 84 81
36 43 36 44 42 42 32 19 17 15 17 17 18 17 18 31 37 50 56 62 75 81 68 63 72 73 64 61 56 58 52 37 36 43 91 90 79 58 41 32 25 23 24 30 42 53 84 76 68
50 42 34 39 38 30 26 19 15 17 16 18 18 20 25 35 37 48 52 62 72 83 81 77 74 70 71 62 57 55 42 28 48 52 82 86 67 42 46 32 27 27 22 23 26 35 38 34 28
50 43 44 38 34 27 20 15 15 18 16 18 19 22 32 39 40 52 48 64 70 79 90 88 71 67 69 62 59 55 42 27 70 96 90 62 58 60 57 54 40 37 36 35 34 35 38 42 40
45 35 45 45 33 22 18 14 16 18 17 16 17 18 36 42 48 56 58 62 68 73 82 83 79 69 71 61 61 54 43 28 40 67 64 46 60 68 74 75 62 44 42 43 43 43 43 46 50
46 46 43 36 31 23 18 14 18 18 18 17 16 18 32 42 50 59 57 58 65 75 82 62 73 78 78 60 57 55 45 32 34 56 69 60 72 84 93 84 75 55 43 42 43 45 50 55 58
40 46 47 37 32 28 17 14 17 17 19 16 18 20 33 53 54 59 57 58 63 74 82 79 72 73 82 75 65 53 47 41 30 47 56 77 83 78 83 83 82 69 44 45 52 55 59 62 66
42 56 53 43 34 27 15 19 19 19 20 18 19 19 33 51 57 58 59 64 66 73 78 84 80 89 95 84 73 64 54 47 38 31 56 67 77 86 81 77 78 64 57 58 58 63 67 74 81
52 64 52 30 25 25 18 18 19 21 21 21 21 22 29 33 56 59 61 66 68 72 75 77 83 86 90 94 85 81 67 53 48 35 36 59 91 89 89 87 81 53 59 60 65 71 78 84 80
46 58 34 28 23 32 34 31 24 26 29 22 21 21 24 34 41 54 56 57 63 69 71 74 76 80 87 89 84 93 82 64 62 55 39 51 89 89 79 73 62 57 60 80 84 90 80 76 77
47 38 36 34 30 38 40 35 36 28 27 26 26 25 29 32 35 41 49 49 53 59 67 72 75 78 81 84 88 90 97 96 95 92 74 72 86 83 73 63 75 71 79 87 89 82 77 74 71
42 39 34 33 35 36 40 42 44 39 32 30 28 29 30 34 34 32 34 42 44 51 58 69 76 80 81 82 82 87 81 85 89 90 79 75 76 65 72 82 84 83 86 82 85 81 70 72 72
37 38 38 35 34 37 39 39 39 34 32 33 33 32 31 32 35 35 32 33 38 41 51 63 72 81 84 86 87 87 85 88 85 87 79 78 72 73 81 83 85 85 84 80 78 72 74 75 43
44 55 47 43 40 41 37 46 44 37 36 33 30 29 29 30 32 33 34 33 34 39 43 53 65 75 85 83 89 85 84 81 87 85 86 82 83 86 81 84 80 78 82 82 80 81 78 43 29
55 56 71 40 39 36 40 54 35 30 32 33 32 30 28 27 27 27 29 32 33 34 38 46 53 63 75 84 82 89 85 80 84 84 89 83 88 88 79 75 72 77 83 84 83 83 48 30 32
53 64 56 44 35 34 41 50 35 31 30 31 29 28 27 27 26 26 25 26 29 32 34 34 42 55 63 75 83 84 85 83 79 85 89 87 91 81 77 75 74 77 80 83 84 69 31 35 36
57 59 51 46 37 37 44 46 36 30 29 29 31 31 30 28 28 27 25 24 25 28 33 35 35 39 48 67 76 81 82 80 76 82 84 86 87 78 78 74 75 74 78 80 79 34 35 38 39
45 45 46 39 30 37 42 39 34 29 28 28 28 28 28 30 30 30 28 30 26 26 28 35 36 37 37 47 64 74 80 78 77 80 78 85 90 78 78 76 78 77 79 76 41 33 38 41 41
46 51 53 43 34 36 40 41 34 29 28 26 26 26 27 28 28 28 29 30 31 31 29 28 36 38 39 38 49 64 76 78 76 79 87 84 98 80 83 83 80 78 79 63 34 37 41 43 43
54 58 54 50 41 39 42 45 36 25 26 25 24 23 23 23 24 26 26 26 28 31 33 34 33 36 38 41 46 60 75 78 81 83 87 92 97 88 93 90 86 84 81 48 35 40 42 44 44
62 43 44 45 54 67 46 76 41 30 27 23 21 21 22 22 22 23 23 23 22 25 30 31 35 37 38 41 51 60 73 79 81 82 88 96 100 100 100 97 93 89 83 42 38 42 44 45 45
51 48 51 52 62 69 60 74 49 24 27 23 22 19 19 19 19 20 21 22 21 21 23 28 30 36 39 44 52 67 71 70 59 69 90 94 98 98 99 100 97 89 65 38 39 43 45 46 45
47 50 56 59 68 93 66 64 59 29 23 19 20 19 19 19 18 20 20 20 22 24 22 22 33 33 41 48 58 75 67 62 65 81 98 96 100 99 99 99 95 81 46 40 42 44 47 47 43
49 62 94 98 93 91 34 56 44 24 20 21 19 17 18 18 18 19 20 20 22 24 25 26 26 42 43 59 70 84 74 70 57 64 79 98 99 100 97 94 84 66 41 42 44 46 48 46 41
60 68 94 86 77 70 43 55 38 23 20 18 17 17 17 18 18 20 22 27 28 28 28 28 29 52 53 67 75 84 91 73 60 62 76 94 99 98 96 93 69 43 42 44 46 48 48 45 37
64 86 58 78 64 86 56 30 24 20 20 20 19 17 18 18 19 22 28 32 35 37 33 34 33 57 68 73 80 90 90 76 78 72 98 100 99 99 95 74 47 43 43 45 47 48 47 40 31
54 49 85 94 96 85 50 44 37 30 36 33 28 23 21 19 25 28 34 39 39 45 36 41 42 57 75 81 88 92 93 92 88 88 99 100 100 93 79 51 45 44 45 47 48 48 42 32 27
68 72 64 64 73 91 80 51 32 37 36 38 35 27 26 26 27 31 36 40 39 45 37 46 51 72 78 88 91 92 94 95 88 96 99 99 92 73 55 46 43 44 46 48 49 44 36 29 27
53 62 64 82 74 77 92 68 33 32 33 35 35 29 28 25 28 31 51 48 45 52 48 56 63 68 82 87 92 95 94 90 95 98 96 87 72 71 48 46 43 46 49 48 45 39 32 28 29

GFSSGP_850_rhum_045.txt.gz
RH
35 33 38 39 49 56 52 44 29 21 17 19 19 20 21 27 34 54 54 56 60 50 68 62 52 46 42 50 60 69 71 73 82 82 81 75 73 70 49 24 47 58 91 81 87 78 75 78 73
35 34 39 38 58 59 54 34 33 19 19 17 16 18 19 45 42 60 60 62 59 52 64 58 56 46 35 35 41 40 37 37 41 59 68 89 85 78 66 27 24 42 57 80 77 84 84 78 76
36 40 45 56 59 60 51 27 23 20 17 17 18 18 21 41 43 50 55 64 64 58 63 58 56 46 36 29 31 33 25 24 28 80 85 89 80 45 34 23 21 25 35 42 51 50 75 70 70
38 46 43 50 55 43 35 29 20 18 17 17 19 22 36 40 45 54 59 59 75 67 60 61 60 50 47 44 41 35 23 20 25 71 85 80 42 37 31 25 25 21 23 24 28 33 44 37 25
57 52 58 55 47 36 32 26 20 19 18 18 19 23 43 47 42 51 63 65 75 80 71 64 58 56 53 48 46 38 23 34 48 60 73 75 44 47 41 31 29 30 29 26 26 28 34 37 36
53 48 66 65 51 33 28 21 19 19 18 17 18 20 41 48 42 48 64 68 72 79 84 74 63 60 54 46 41 33 25 40 96 86 73 59 47 48 49 41 35 35 36 37 38 40 42 45 48
55 61 62 48 46 37 29 21 21 20 18 19 17 20 47 52 54 52 66 69 72 80 86 86 77 60 57 52 46 37 27 24 49 61 45 43 57 71 75 66 43 36 36 38 40 44 51 54 57
44 61 58 53 45 40 26 19 17 19 21 17 18 24 56 54 59 54 62 67 69 75 77 72 74 63 61 56 54 45 36 26 29 42 48 58 76 81 83 82 57 45 38 40 43 47 52 57 60
44 67 73 59 50 40 25 24 19 20 18 19 20 32 48 54 60 58 58 69 67 72 75 71 60 68 67 68 63 54 44 36 28 36 53 70 77 80 81 78 72 50 48 47 52 55 60 67 70
56 74 67 44 40 36 30 34 27 21 21 21 20 32 50 50 59 59 60 63 68 72 77 80 78 69 72 76 68 59 50 42 35 30 45 59 73 74 79 75 72 48 54 53 58 65 70 76 74
51 77 53 49 37 34 40 36 34 30 30 22 21 25 32 26 41 59 61 64 65 71 74 80 83 82 77 72 73 75 67 53 45 37 32 57 80 80 84 79 77 50 54 63 73 72 69 74 76
59 48 46 43 39 38 43 42 44 40 33 33 28 26 27 38 33 54 59 61 65 68 70 76 78 83 84 77 77 78 69 72 53 50 32 59 70 86 83 71 55 56 71 84 86 81 77 75 72
53 48 41 40 37 36 36 44 45 43 38 31 31 31 32 31 37 42 49 54 58 61 65 70 74 77 82 80 86 85 79 66 60 70 65 54 71 82 78 66 72 70 84 86 86 87 80 68 68
40 43 45 43 44 42 41 41 39 40 36 32 33 31 33 33 33 34 34 38 44 51 58 64 71 75 80 82 83 82 77 74 74 85 86 68 71 78 56 70 81 81 84 87 86 84 70 73 64
49 55 54 50 46 47 40 52 51 38 36 37 34 31 31 32 33 32 33 33 34 37 48 58 64 68 80 82 82 83 81 84 83 86 84 81 68 63 67 82 84 84 86 85 80 76 78 77 37
56 59 78 55 46 44 45 59 43 35 38 39 36 33 31 30 30 29 33 33 33 34 34 54 57 57 66 83 83 81 85 83 84 85 83 80 74 78 80 80 78 83 84 79 82 81 81 51 31
62 78 76 64 41 45 51 56 42 36 36 37 36 34 33 32 30 29 28 28 31 33 34 36 53 54 53 61 82 84 84 85 80 85 85 83 79 83 83 77 78 77 76 78 83 83 79 31 35
75 76 64 60 43 43 50 56 46 34 35 34 31 30 33 32 30 27 27 27 26 28 33 33 41 51 53 51 61 71 78 83 80 78 84 84 84 84 88 83 77 74 75 76 79 82 46 33 38
64 61 57 48 39 40 48 51 46 37 35 34 33 31 29 28 30 30 29 28 27 26 25 27 32 39 53 62 66 72 84 86 76 76 77 82 83 82 89 81 78 75 74 75 73 67 32 38 41
67 58 61 51 39 42 46 44 37 35 34 32 31 32 28 27 27 28 29 30 30 29 26 25 27 35 44 60 62 56 69 80 79 71 78 78 78 85 84 81 78 77 76 74 72 39 33 40 42
56 62 62 62 51 45 52 51 44 37 33 31 29 28 28 27 26 27 27 28 29 29 30 30 30 31 39 42 49 58 62 73 74 74 74 80 80 81 80 84 82 82 80 78 73 35 34 40 42
67 51 52 54 62 74 57 87 64 40 33 28 29 28 27 26 24 24 23 23 24 26 27 28 30 32 34 40 39 39 57 70 76 72 75 81 84 80 71 90 90 89 85 84 68 36 38 41 44
59 52 57 60 71 76 72 79 68 50 32 29 26 22 21 20 21 21 20 21 21 22 23 24 26 28 30 36 42 40 43 54 62 69 68 71 68 81 78 92 94 93 90 83 48 37 40 43 45
50 56 58 63 78 96 76 72 60 40 27 23 20 19 20 19 21 20 21 22 22 22 22 22 22 26 30 27 39 43 42 45 59 66 61 63 68 80 89 96 99 93 92 79 49 39 42 45 46
60 70 94 89 95 93 58 74 63 36 28 24 24 20 18 18 19 19 18 20 20 22 24 23 24 24 25 33 31 46 46 50 52 56 58 57 71 96 97 96 98 97 91 64 43 42 44 46 47
64 70 92 93 92 83 57 77 50 32 26 23 20 19 19 18 18 19 20 24 26 26 27 28 28 26 26 32 38 40 49 58 65 60 60 68 82 98 98 95 98 92 66 53 44 43 46 48 46
68 85 65 79 77 94 72 47 33 28 38 34 27 26 25 18 18 21 27 28 31 32 28 31 32 32 30 31 52 49 57 67 65 64 74 95 100 100 95 96 96 78 59 47 43 45 48 47 42
59 59 86 92 94 94 74 58 43 35 38 39 40 35 32 26 22 27 32 34 34 33 27 30 36 38 35 55 60 59 71 71 65 74 86 84 100 100 97 96 82 79 49 48 44 47 48 46 40
72 80 64 73 87 96 96 70 37 39 36 37 39 39 40 39 27 31 32 31 31 29 26 38 34 41 42 60 69 70 87 71 70 87 82 86 99 100 99 92 75 56 45 43 45 45 44 41 34
63 68 65 92 75 89 92 74 36 38 40 38 42 49 46 46 36 40 42 44 42 39 36 46 43 46 56 64 71 86 88 83 86 93 91 99 100 98 93 88 55 42 42 53 64 46 44 37 30

GFSSGP_850_rhum_048.txt.gz
RH
38 35 39 37 48 60 58 51 35 33 22 20 20 20 26 32 37 44 55 54 63 65 59 61 54 47 62 81 79 78 78 80 79 77 76 73 69 64 40 26 72 82 94 92 54 89 85 75 76
39 35 41 40 62 61 56 41 35 30 21 20 17 18 25 47 49 53 56 57 61 53 56 50 48 42 43 49 56 54 54 58 72 76 69 62 71 66 50 22 52 86 89 77 78 73 77 78 75
41 37 42 56 67 66 54 34 25 21 19 18 18 20 31 42 37 43 51 57 62 53 49 50 49 32 28 31 36 39 36 37 45 54 81 82 77 43 24 22 29 46 68 72 66 83 81 80 76
43 45 48 59 66 51 44 30 28 25 19 17 21 26 42 44 40 42 50 52 60 56 50 53 55 39 26 24 26 26 22 22 31 90 93 85 53 26 20 20 19 26 34 37 37 36 62 55 30
55 53 64 62 56 46 39 30 27 28 21 18 20 27 41 50 49 44 43 50 59 55 55 53 57 48 37 33 31 23 17 20 37 81 82 73 31 29 23 23 23 21 21 24 28 29 31 28 34
59 57 77 62 53 39 35 26 25 23 20 19 20 34 47 51 50 48 56 56 64 58 58 60 62 55 50 42 34 23 17 24 30 56 64 61 34 40 34 29 30 31 32 33 35 38 40 43 47
64 68 73 63 56 48 36 25 24 24 22 20 18 36 55 57 60 50 61 73 75 74 69 65 61 61 57 47 40 28 20 26 32 55 58 50 43 48 48 37 34 36 38 39 39 43 47 51 54
47 64 65 57 53 47 32 24 21 22 22 18 19 57 58 55 60 64 69 73 80 82 79 79 78 64 58 53 47 35 24 23 30 39 38 40 48 71 75 62 42 37 37 40 43 47 52 56 63
48 73 82 61 53 42 31 31 25 21 20 20 24 31 26 49 58 65 70 74 82 90 84 83 84 76 60 56 56 47 35 26 30 35 42 56 68 75 84 73 53 39 42 45 49 54 57 60 63
57 81 71 52 45 43 34 36 33 27 23 23 28 33 50 56 60 61 63 70 78 84 85 80 76 74 67 64 60 54 45 34 28 34 44 58 66 73 77 78 72 48 62 52 56 60 65 67 66
59 79 56 52 46 44 41 41 40 36 30 28 34 50 55 59 61 60 59 58 62 71 76 75 75 73 66 65 66 62 50 43 35 31 39 53 60 68 72 72 67 50 54 59 62 68 71 72 70
60 54 50 49 41 45 43 40 46 42 33 32 34 33 40 56 61 60 61 60 63 67 70 73 76 77 77 72 71 66 56 50 46 38 36 47 52 60 62 64 68 55 53 71 73 74 72 72 72
60 53 46 43 43 44 39 43 47 45 38 33 36 36 34 32 38 59 60 62 63 62 62 64 71 76 77 78 80 71 74 69 60 50 37 41 52 58 64 70 55 53 65 79 81 78 73 76 70
50 48 46 44 44 46 45 45 40 41 38 35 34 33 33 33 32 39 54 62 64 63 63 62 66 70 72 75 80 79 79 77 73 55 51 36 44 60 66 76 64 68 73 80 81 79 81 74 71
50 55 54 50 47 49 43 51 55 39 34 36 34 31 27 28 31 32 33 36 38 45 64 67 65 67 68 64 75 82 80 82 71 67 72 67 51 60 67 67 63 71 76 80 82 85 84 72 75
58 62 69 51 46 43 46 56 43 36 38 38 36 32 26 23 25 30 30 32 34 35 37 58 64 67 67 66 66 78 76 83 77 73 76 77 75 62 67 65 70 76 79 84 88 87 79 79 72
64 78 76 66 50 50 57 61 46 35 39 38 35 35 34 30 27 23 28 31 31 33 34 34 54 71 68 68 67 67 69 79 79 78 79 84 83 70 68 68 75 80 83 87 87 82 82 83 46
82 77 69 66 47 49 58 65 51 40 41 40 36 35 33 32 29 27 28 24 30 30 31 32 32 54 64 65 65 68 62 70 80 80 78 84 85 80 74 79 82 82 85 87 81 83 83 82 33
59 66 63 52 42 44 49 52 47 40 40 40 38 37 32 30 29 30 31 29 28 28 27 27 26 29 52 63 65 64 65 67 77 84 82 83 86 85 79 85 87 84 83 76 79 80 82 57 35
74 71 69 55 45 44 50 50 40 36 35 34 33 31 31 30 26 27 28 29 31 30 30 28 27 26 26 48 58 60 57 62 63 66 76 74 77 80 76 81 86 88 83 80 80 77 76 35 37
63 64 62 63 54 46 57 42 38 38 34 30 30 32 32 30 26 24 24 26 27 28 29 30 30 28 26 30 48 58 63 61 65 69 71 75 74 76 62 73 81 86 84 80 78 77 68 33 37
66 52 55 59 62 76 58 74 66 47 43 35 29 26 27 27 25 24 24 23 25 26 26 28 30 30 32 33 48 53 59 62 60 59 61 69 74 76 65 65 82 78 83 82 82 80 58 35 39
61 53 57 61 74 74 72 78 62 48 41 30 28 20 19 19 21 21 21 21 22 23 22 23 24 27 28 33 34 53 61 58 53 53 58 61 71 73 67 60 68 79 88 86 86 84 54 38 40
53 57 68 73 80 93 73 76 63 43 32 24 22 20 19 18 18 20 21 21 20 21 22 22 23 24 25 25 31 34 41 60 61 56 56 56 64 68 64 64 70 97 96 92 88 85 48 43 42
58 73 93 91 95 85 65 83 68 47 38 30 32 26 22 22 22 20 19 20 21 21 21 21 22 23 23 23 23 29 36 36 51 52 51 54 58 62 62 60 64 94 98 88 89 81 56 44 46
67 71 88 79 96 88 64 76 50 38 33 25 28 32 30 28 26 21 23 22 22 22 22 22 21 20 20 23 25 25 30 36 39 51 50 50 52 55 56 63 96 100 95 91 93 70 46 46 45
69 83 65 84 82 96 75 57 33 37 39 39 38 37 37 38 37 35 26 29 29 30 29 27 24 23 21 25 25 27 27 39 38 45 52 54 58 59 63 84 100 98 92 95 83 57 62 48 45
57 62 89 93 82 88 70 68 47 33 39 40 45 42 46 52 51 44 42 38 38 33 31 31 29 22 20 30 31 32 30 42 47 48 58 60 61 70 90 100 100 94 91 77 65 62 62 46 48
75 82 70 77 81 93 95 64 46 36 40 48 50 47 57 58 53 52 40 36 38 36 33 27 24 24 26 35 37 38 46 66 66 57 59 63 72 94 100 100 100 92 74 70 62 58 51 51 49
64 71 69 90 72 92 93 78 42 42 38 42 37 53 61 60 60 61 57 44 45 43 39 34 26 27 36 36 42 50 86 75 71 73 70 78 97 100 100 100 94 74 72 69 60 57 53 54 60

GFSSGP_850_rhum_051.txt.gz
RH
39 37 35 39 49 62 61 51 39 35 26 20 22 22 27 30 33 41 54 55 54 62 75 78 91 80 81 79 82 83 86 82 68 59 58 64 69 61 34 32 69 88 81 87 81 90 84 80 77
40 38 37 42 60 61 56 46 37 32 23 20 21 31 35 45 48 46 52 55 54 55 55 63 93 94 92 88 86 89 75 76 80 77 67 57 60 58 45 41 88 85 82 83 96 96 78 75 79
42 39 44 57 72 64 49 39 31 25 22 23 21 24 30 41 41 40 43 46 57 57 45 41 93 92 93 75 66 71 85 77 61 61 54 63 68 52 23 25 68 93 80 69 73 72 80 81 77
42 43 46 65 67 55 44 33 32 31 23 20 23 37 43 44 43 45 45 49 58 50 45 30 39 64 52 49 48 46 57 71 50 49 68 70 59 24 20 20 29 39 59 60 54 68 67 62 52
50 54 71 69 62 53 42 34 31 33 28 23 22 34 42 42 45 48 49 50 55 56 48 34 34 34 33 35 33 26 24 27 30 90 74 69 26 18 17 18 19 24 28 28 29 31 36 27 32
62 60 78 68 57 44 39 31 28 26 24 22 23 43 45 45 41 46 54 57 65 56 53 45 43 38 28 28 30 25 19 21 35 57 65 55 24 20 20 21 22 22 23 25 28 34 36 42 46
70 76 79 60 46 46 38 27 29 28 26 23 20 54 50 46 46 49 58 64 74 64 54 52 47 47 42 39 36 26 18 22 26 45 50 48 28 28 24 26 29 32 35 36 38 42 49 53 58
54 66 69 64 55 46 32 28 25 25 25 21 20 54 61 46 48 53 68 72 79 78 70 56 52 48 54 46 42 33 21 27 33 48 42 38 34 38 36 30 31 34 37 40 44 50 55 60 60
52 77 85 58 56 44 34 33 29 27 24 22 23 27 32 39 51 60 76 83 84 82 82 68 67 61 53 50 46 39 27 33 38 41 40 39 41 59 65 53 40 36 39 44 51 56 60 66 65
62 83 74 55 48 43 39 40 38 34 31 24 29 33 43 53 53 50 59 71 83 82 78 82 85 80 72 55 50 45 36 30 36 40 43 40 55 64 74 66 53 40 44 48 53 56 65 66 68
64 77 56 54 46 48 45 43 40 42 39 28 33 61 61 64 64 58 55 50 42 65 75 74 80 79 75 63 52 48 43 35 31 37 42 44 59 62 71 76 70 50 62 53 54 58 66 71 71
64 58 55 48 44 47 45 42 46 41 39 33 37 42 61 68 65 63 62 61 61 65 68 72 73 75 73 67 62 54 48 42 37 33 38 49 56 61 70 71 69 60 49 58 60 64 67 69 73
63 56 52 48 46 48 44 45 49 46 35 37 36 36 35 38 53 67 63 61 62 64 68 70 73 72 72 73 71 68 65 55 45 41 35 40 47 55 66 69 71 74 56 63 73 72 71 72 73
56 54 51 47 46 46 48 47 42 42 36 34 39 37 35 34 33 37 61 66 65 66 68 69 68 70 72 72 73 74 75 67 66 62 48 38 41 49 65 70 69 63 58 74 82 82 78 81 72
53 57 55 53 49 51 46 54 62 42 39 37 32 34 32 32 31 31 36 52 68 68 66 68 66 68 70 72 74 78 76 73 77 78 71 53 40 43 60 73 71 68 71 82 87 87 84 84 76
63 62 74 51 51 47 44 57 44 35 37 39 35 31 29 26 25 28 26 33 36 46 49 58 66 71 72 73 72 69 72 72 75 78 72 56 54 45 55 72 72 69 80 80 84 85 85 85 78
66 86 77 62 49 48 58 65 46 36 38 38 33 28 27 28 23 23 24 23 31 32 34 33 36 47 68 71 70 70 68 71 74 75 72 64 68 68 62 68 72 70 82 82 82 86 89 84 82
87 75 72 69 49 55 64 70 54 47 46 46 43 40 36 34 29 27 27 28 26 26 31 32 32 31 32 59 72 70 74 76 80 79 79 70 70 76 78 68 72 73 81 84 87 90 88 85 83
68 69 68 58 45 47 52 54 47 40 39 40 35 37 37 35 31 31 31 30 31 30 26 30 31 30 29 30 61 72 71 70 76 74 71 67 75 76 84 76 71 74 79 82 87 90 86 84 84
76 75 74 60 49 47 55 56 44 39 37 34 33 31 31 30 29 28 28 29 29 31 31 28 27 28 28 29 28 57 64 66 64 63 60 55 64 77 74 77 74 75 80 86 88 87 82 82 81
82 72 65 63 55 50 62 52 44 35 35 32 31 30 30 29 27 24 23 23 24 25 30 30 31 30 30 29 29 44 68 66 65 64 64 63 60 64 60 62 72 76 80 87 86 84 82 79 75
71 54 57 61 62 75 59 74 58 44 46 41 32 28 25 25 25 24 23 24 24 22 22 26 27 28 30 31 34 31 31 48 60 61 62 59 62 64 62 57 66 80 81 88 93 91 84 81 72
63 54 59 65 76 70 70 80 56 44 36 29 27 27 24 23 23 22 21 20 20 22 24 24 25 26 28 29 29 36 45 49 62 60 63 59 58 60 66 64 62 74 69 78 97 96 88 82 67
57 58 69 80 77 89 68 72 55 40 33 30 34 35 35 31 26 23 23 21 20 20 20 21 22 22 22 24 25 28 31 43 56 72 64 66 60 58 61 63 61 63 67 77 99 97 88 82 69
60 71 89 83 91 79 71 79 62 46 42 38 36 39 39 36 34 33 26 22 22 22 21 21 21 21 21 22 24 24 25 31 38 43 56 62 63 59 56 59 64 64 66 80 99 93 88 79 64
64 68 85 68 88 87 67 79 48 42 34 33 40 41 39 34 38 38 38 34 27 28 27 23 22 21 21 22 23 24 25 24 26 36 36 45 58 60 58 58 63 65 74 98 100 95 81 81 52
73 84 64 85 83 93 74 58 32 42 42 42 43 39 42 48 52 46 46 45 39 35 32 32 27 24 22 21 21 20 22 26 27 25 36 40 46 54 60 60 60 64 89 99 96 85 76 71 72
59 64 83 92 66 75 62 70 48 35 39 46 51 43 47 58 56 52 48 52 44 42 38 33 32 31 28 27 23 20 20 30 30 30 31 45 50 53 63 65 71 97 100 99 92 79 77 55 59
75 85 80 80 77 87 88 55 48 37 41 48 50 42 54 58 62 58 52 54 53 52 50 44 40 36 30 25 23 22 29 34 35 39 49 60 65 66 68 85 96 100 100 92 82 82 70 64 65
65 71 72 86 76 94 94 78 44 48 44 44 41 43 59 65 68 62 70 70 58 52 54 48 46 39 34 31 31 39 40 42 47 64 81 89 90 99 99 99 100 100 94 80 82 71 69 74 78

GFSSGP_850_rhum_054.txt.gz
RH
40 40 35 38 48 62 59 48 41 35 29 22 23 25 28 26 36 42 48 55 47 45 83 93 86 79 81 88 82 84 85 87 83 83 82 75 62 62 47 28 63 96 68 61 98 93 84 76 76
41 41 37 41 58 59 54 47 40 35 25 24 23 38 34 39 47 45 54 46 49 45 52 68 80 80 78 78 78 86 88 90 81 68 48 56 59 52 30 84 84 80 57 88 98 99 82 75 79
42 40 44 58 72 62 47 38 39 28 26 24 22 24 28 38 40 43 43 40 44 54 43 50 84 88 90 74 78 83 87 92 100 90 74 52 56 42 19 71 90 85 75 78 84 87 74 81 78
44 42 46 66 67 58 38 31 32 34 24 23 23 36 44 41 41 40 45 43 41 55 48 52 96 96 96 91 82 86 88 93 91 72 58 63 49 20 17 26 47 86 60 58 62 65 73 73 65
46 49 72 72 67 53 47 38 33 34 30 25 23 29 42 44 43 40 47 51 46 53 51 47 86 97 95 89 88 71 86 91 88 55 64 63 25 16 15 16 21 30 42 42 40 40 57 42 29
61 56 78 71 63 45 42 35 32 29 27 24 23 36 44 46 45 43 43 52 62 54 49 44 42 61 69 58 50 47 46 42 36 91 64 58 20 17 17 16 17 20 22 24 27 31 29 33 43
73 80 77 60 52 46 39 30 31 28 28 25 21 44 41 40 41 48 51 56 64 66 54 48 40 31 31 34 32 31 26 26 30 74 68 51 24 20 19 21 22 25 27 30 35 41 44 49 54
60 70 74 67 55 47 32 26 24 25 26 23 23 38 38 35 40 53 61 65 72 68 62 52 43 38 33 30 36 34 23 23 27 36 49 50 27 27 23 27 30 33 36 38 41 48 50 52 54
58 80 84 60 56 43 36 35 32 30 30 25 23 26 32 42 40 54 70 74 80 75 67 62 53 46 38 37 36 38 29 23 27 32 45 44 33 36 34 31 32 35 39 40 46 51 53 56 58
63 86 76 53 46 42 42 41 40 36 37 27 28 49 38 51 49 45 53 66 80 76 78 76 61 57 58 50 41 38 34 24 30 35 43 37 39 48 63 52 42 38 44 49 54 59 59 61 61
67 77 57 54 47 48 47 45 42 43 40 30 32 56 69 69 71 62 67 59 58 73 74 75 75 78 78 73 58 44 41 31 29 38 42 37 42 56 68 72 56 46 49 51 55 64 68 67 66
68 61 54 45 48 48 47 44 46 43 38 34 35 39 58 77 78 75 70 54 52 50 58 69 76 79 79 75 70 58 48 42 34 31 40 43 42 55 60 70 70 65 53 57 57 64 75 75 72
66 58 54 50 50 50 48 47 48 45 39 37 36 37 37 39 68 77 76 75 73 63 58 58 68 71 75 73 72 68 61 53 44 37 34 41 44 49 57 65 71 70 57 55 60 67 75 75 74
60 56 54 52 50 48 50 49 46 42 39 36 35 32 33 35 35 37 54 69 68 67 62 56 64 72 72 73 73 72 71 66 63 52 43 39 40 47 57 63 67 70 73 58 66 77 76 76 78
56 60 56 57 52 52 49 58 63 43 40 38 34 35 33 31 31 32 32 35 59 68 66 65 66 74 74 72 73 72 71 70 72 69 62 59 47 43 49 60 67 66 65 64 72 81 84 82 83
67 61 77 55 56 50 46 58 44 35 35 39 38 36 34 29 27 27 27 29 30 41 67 70 72 74 77 74 73 69 70 70 69 73 75 78 74 58 46 54 73 79 78 70 81 85 86 85 84
72 89 83 65 54 50 59 66 47 44 44 44 38 32 34 31 28 25 23 23 24 28 34 46 55 60 62 69 74 71 70 68 69 73 75 80 82 68 55 46 65 81 82 76 80 84 87 86 87
72 75 76 75 50 58 64 69 51 37 43 49 44 40 38 37 32 26 25 27 29 27 25 30 34 33 34 37 53 71 68 69 71 72 74 76 78 71 67 59 59 80 78 75 84 87 89 88 88
71 74 72 62 48 48 58 57 50 42 41 41 36 33 34 33 32 32 30 30 31 31 30 26 26 30 33 34 32 36 53 65 71 69 66 73 74 77 75 72 70 75 75 68 79 86 90 90 88
72 78 76 63 51 49 57 60 46 38 42 37 36 33 32 32 30 28 27 27 28 29 30 30 30 28 30 32 31 30 30 37 54 63 65 62 66 73 70 70 67 74 74 71 80 85 85 89 86
82 78 70 67 56 53 62 54 45 34 36 32 32 32 30 28 26 24 27 27 26 24 24 28 30 32 32 31 30 31 34 38 46 63 63 61 62 63 70 66 67 69 76 73 76 84 88 88 87
98 61 57 59 63 79 61 76 56 44 40 38 34 34 34 37 32 25 24 23 23 23 25 24 24 28 29 31 32 32 32 33 31 35 52 58 60 60 62 64 64 62 71 79 82 86 91 94 91
66 56 61 64 74 68 67 72 48 40 33 34 41 44 46 44 38 32 26 23 23 22 23 25 24 24 27 28 29 31 32 36 37 41 46 60 64 63 63 59 62 62 62 76 85 88 90 94 94
60 62 69 78 74 85 66 67 45 38 39 38 39 43 45 44 40 35 30 24 23 24 22 22 24 25 25 25 24 26 28 29 30 39 49 53 63 63 60 61 60 61 61 69 79 87 96 98 99
59 69 85 74 87 74 72 74 56 43 41 42 39 44 42 46 46 44 38 33 29 24 25 25 23 22 23 23 22 22 24 29 30 29 34 48 52 60 65 64 62 62 63 64 70 90 99 100 99
68 66 82 59 80 80 70 84 48 44 34 40 43 42 39 47 55 52 48 44 39 34 27 29 28 25 26 25 24 24 25 26 26 29 37 35 38 47 59 63 66 63 59 70 74 94 100 100 98
71 85 64 87 80 94 73 57 29 45 44 43 42 39 42 52 60 64 59 50 48 44 37 37 34 31 29 28 26 25 25 23 23 25 27 32 40 42 46 60 65 71 68 70 83 99 99 98 85
60 65 80 91 64 64 50 60 41 36 38 42 48 46 46 57 66 69 65 59 57 60 51 44 47 43 37 32 30 28 28 26 24 25 30 30 31 40 56 61 59 65 84 96 100 100 99 91 73
74 88 80 77 75 78 64 38 48 38 40 45 48 49 58 65 73 73 70 72 72 66 62 54 54 44 40 37 33 29 27 25 29 34 38 38 39 43 68 87 91 99 100 100 100 98 88 68 57
63 72 72 84 79 93 93 69 42 48 44 43 46 55 72 79 79 78 78 78 71 69 61 60 56 51 47 41 38 33 32 37 41 47 56 58 63 73 98 100 99 100 100 100 94 80 65 65 60

GFSSGP_850_rhum_057.txt.gz
RH
40 39 38 38 41 46 48 39 39 34 30 23 24 26 27 29 37 37 43 52 41 44 63 96 94 76 80 78 83 81 89 90 82 83 87 87 82 68 58 31 53 54 53 91 98 92 74 65 70
42 40 38 40 46 46 40 41 39 34 26 27 25 35 35 34 46 44 54 54 46 48 58 97 88 71 78 82 84 87 84 84 90 86 80 82 66 54 30 83 80 60 69 98 99 95 81 70 73
42 40 38 49 52 45 38 34 34 29 27 25 24 27 28 38 46 48 48 43 50 45 42 57 74 73 89 91 79 75 78 87 87 86 47 56 51 43 63 83 82 54 92 97 99 92 72 72 69
44 43 46 52 56 50 32 30 34 33 27 25 23 25 40 44 46 49 48 47 47 51 46 54 77 75 68 76 78 71 75 78 98 92 51 56 44 24 51 85 88 73 67 74 82 66 65 71 59
48 44 60 64 58 48 43 40 36 32 31 24 24 24 34 46 47 46 48 49 50 54 51 59 98 86 79 79 80 74 79 88 88 86 64 63 28 20 22 54 43 41 44 46 46 50 54 46 26
56 52 64 59 58 48 42 37 36 32 28 23 24 29 37 46 45 44 47 51 58 59 56 61 99 98 91 91 87 76 83 97 90 79 77 64 23 19 18 21 25 30 33 30 30 32 32 26 33
66 63 59 58 50 46 38 32 33 31 27 24 22 32 34 43 47 45 47 54 59 61 58 53 64 86 94 86 65 53 55 79 87 79 91 65 24 20 21 20 22 23 24 27 31 32 33 40 44
61 57 69 61 47 43 33 30 25 27 25 24 23 31 30 44 47 50 52 55 61 63 58 52 44 42 38 34 32 34 35 34 38 94 91 69 30 25 23 25 27 30 32 35 39 43 46 49 56
61 70 70 57 50 40 36 34 32 30 29 27 24 28 34 41 51 56 54 59 64 68 65 62 53 44 36 29 30 34 34 29 34 95 75 69 36 32 28 30 33 36 38 41 46 50 51 54 59
63 74 68 50 45 42 40 38 37 35 37 29 33 45 38 40 56 59 62 53 59 67 67 67 62 52 45 41 40 38 35 28 26 37 43 55 42 38 41 34 35 38 41 43 48 52 56 58 61
68 68 57 54 43 44 47 45 44 42 39 31 33 55 62 79 93 80 74 63 60 63 65 69 68 59 58 57 56 48 42 36 26 33 37 45 42 42 61 58 44 40 42 45 47 49 56 61 63
69 63 54 48 52 50 50 46 46 44 36 37 37 38 47 76 98 99 90 88 79 69 70 72 74 70 71 74 75 70 53 46 36 30 37 40 38 42 56 67 58 50 45 50 53 58 61 61 65
67 60 55 50 53 50 50 49 46 44 39 39 38 36 37 39 60 80 82 83 77 83 67 68 71 76 75 74 76 77 70 58 48 39 35 41 43 39 53 61 71 72 62 55 56 58 62 67 65
61 56 56 52 51 49 51 50 48 43 37 36 36 33 33 33 36 40 53 65 72 74 71 66 61 65 70 60 63 75 73 67 60 54 46 40 39 40 44 56 66 75 73 56 56 62 70 72 71
60 66 60 54 54 52 50 54 61 40 40 40 37 32 32 33 33 34 36 34 38 56 66 67 67 64 66 72 69 74 75 73 70 67 66 57 46 42 41 48 60 71 74 76 62 65 76 76 75
67 62 74 56 57 51 46 56 43 38 41 42 39 37 34 26 26 29 29 30 30 31 35 58 66 67 66 69 68 68 64 62 68 72 75 74 63 63 52 48 55 68 76 75 71 65 81 85 82
75 86 78 63 58 56 50 61 47 45 43 42 39 37 38 34 29 25 24 25 26 27 27 30 42 64 69 66 66 66 66 63 60 64 69 75 74 79 77 64 52 64 80 82 74 69 82 87 89
88 80 78 62 53 60 66 68 55 41 42 41 37 33 34 36 32 28 26 24 25 26 27 28 29 37 60 68 69 67 61 55 64 62 64 70 75 77 86 83 64 57 79 88 86 78 85 88 92
64 73 73 66 50 51 58 59 50 43 42 42 37 35 32 32 33 33 33 32 32 32 33 31 30 29 34 36 38 43 42 46 57 50 58 62 66 71 74 78 71 57 59 76 83 78 85 91 94
68 76 76 63 52 51 56 56 45 41 42 41 41 39 38 34 29 26 24 23 24 26 28 31 32 31 31 31 33 34 36 38 37 45 54 60 59 61 64 70 70 71 60 73 83 77 80 89 96
77 78 74 68 56 54 60 54 45 36 35 35 35 35 39 40 33 25 24 24 26 25 24 25 29 31 31 33 32 33 35 37 37 36 38 42 50 59 61 58 64 68 76 71 75 75 75 86 91
93 68 60 59 64 71 60 67 52 41 40 45 48 51 52 46 40 36 30 26 26 25 24 24 23 25 30 33 32 34 34 35 32 31 31 31 42 56 62 64 63 60 65 73 77 78 75 81 91
90 58 61 63 70 63 63 65 45 38 39 41 44 48 56 55 48 41 36 32 28 26 24 24 25 26 26 28 31 31 31 31 33 36 36 38 38 44 61 66 65 61 62 64 68 80 80 80 91
69 61 68 72 70 76 62 65 40 39 40 38 41 44 50 56 55 48 42 36 32 28 26 26 25 26 28 29 31 32 32 31 33 34 35 36 38 39 50 63 68 68 63 61 62 72 86 85 92
58 71 86 68 83 70 72 75 51 40 39 41 45 44 46 56 61 59 52 44 39 33 30 26 28 29 28 27 27 27 28 30 30 33 39 50 43 44 44 45 53 65 66 66 64 66 85 89 94
68 66 83 55 65 62 69 74 43 43 36 42 43 51 52 60 65 67 64 57 52 47 42 34 30 31 33 32 30 29 29 28 27 27 28 31 38 43 54 55 56 55 63 69 71 73 90 95 99
68 80 61 85 81 84 63 55 34 44 44 45 42 47 56 64 71 73 72 68 66 61 57 54 41 38 38 35 32 31 30 29 27 26 26 25 27 31 41 56 63 73 70 71 75 75 95 100 100
60 63 78 85 76 55 42 48 31 44 46 38 45 48 56 69 73 74 74 76 72 67 64 60 59 51 46 42 38 35 33 32 30 29 27 26 25 26 35 49 65 71 91 100 100 100 100 100 99
74 82 77 71 69 61 47 31 42 39 42 45 48 48 68 79 74 71 74 77 74 70 71 64 59 57 53 45 41 37 34 31 30 31 29 28 32 37 40 51 69 89 99 100 100 100 100 100 100
62 73 67 75 76 88 84 49 38 42 44 46 46 53 80 77 72 78 82 83 77 71 67 63 61 59 56 52 48 44 42 39 38 43 47 48 57 55 61 73 98 99 100 100 100 100 100 99 88

GFSSGP_850_rhum_060.txt.gz
RH
40 37 36 36 31 27 25 22 21 25 23 20 22 21 19 22 23 29 44 59 70 77 92 87 87 71 73 73 74 81 89 97 99 98 90 88 84 73 56 27 43 49 65 96 94 86 67 58 63
44 40 39 35 30 32 22 20 24 20 21 24 23 23 27 23 45 65 74 58 82 91 95 94 92 62 84 86 80 82 88 93 100 96 80 77 66 55 54 78 84 62 86 98 96 86 71 56 55
45 43 35 31 31 30 23 20 17 21 24 22 20 24 24 30 53 66 70 56 92 92 94 94 80 67 84 89 88 87 86 85 93 79 49 69 57 46 83 81 84 86 99 99 96 85 68 60 53
52 44 39 35 34 27 22 21 21 23 22 23 21 19 34 43 58 70 49 60 90 90 92 80 78 79 91 86 82 81 75 76 72 84 46 51 51 48 86 86 68 89 92 98 96 83 60 64 42
54 40 37 40 32 25 24 22 25 23 22 19 21 19 24 53 48 49 54 60 90 91 93 82 80 81 88 85 79 78 78 80 90 84 55 53 26 28 69 81 70 63 71 70 73 54 52 44 26
46 39 39 42 33 26 25 25 25 23 21 18 19 20 27 44 51 51 58 84 93 94 95 96 92 82 83 74 77 78 78 93 97 89 75 52 21 18 33 61 42 39 44 43 39 37 42 26 35
42 41 38 30 31 32 28 25 26 20 20 17 20 19 32 57 48 50 57 94 94 94 92 92 99 97 96 95 88 82 93 98 98 94 88 60 22 19 19 23 28 31 32 30 30 30 27 35 44
48 38 36 31 32 32 25 27 23 21 17 23 24 19 24 61 50 54 60 96 95 89 82 91 92 100 99 94 94 85 71 81 87 83 94 75 30 23 22 22 24 25 27 30 35 34 40 43 55
59 40 38 38 34 26 25 24 26 27 21 22 25 32 45 38 51 62 66 69 74 89 89 92 91 92 93 95 74 58 47 39 41 75 99 80 48 29 26 29 30 33 35 38 42 45 48 52 55
38 38 29 27 30 27 27 22 27 26 25 23 30 40 37 31 52 68 81 74 70 68 89 95 94 90 75 47 47 39 42 40 44 66 91 95 87 76 70 33 36 39 40 42 46 49 52 56 65
38 35 32 43 38 33 29 30 34 25 26 22 25 40 73 51 71 92 83 84 64 65 74 61 95 90 67 56 60 67 60 66 83 96 91 95 93 56 49 45 37 40 42 51 53 50 62 70 63
50 37 38 48 48 46 37 33 32 30 23 32 40 40 49 85 96 99 94 82 88 66 64 66 70 86 78 72 61 80 71 66 80 90 92 93 91 81 88 94 92 72 68 93 93 94 88 59 62
50 46 45 45 51 48 46 39 32 35 37 40 39 35 40 41 71 92 96 95 78 67 68 70 71 76 73 72 84 82 76 65 58 57 79 85 86 72 72 95 96 95 90 90 93 92 84 73 65
50 46 45 43 46 47 44 42 43 36 37 35 37 34 34 37 39 44 68 83 91 91 84 69 69 70 77 76 80 75 73 76 68 71 68 46 55 75 79 89 96 93 96 92 92 90 88 81 69
54 53 43 46 42 37 43 42 45 36 32 32 30 29 31 35 37 38 41 43 49 64 82 94 81 66 64 63 72 75 78 80 72 70 65 59 50 60 69 78 93 96 93 97 92 88 80 71 71
51 46 54 36 41 45 41 28 33 38 34 33 32 29 31 31 33 34 37 38 38 36 42 63 90 81 67 66 61 68 70 68 66 66 71 68 69 62 54 61 71 61 96 89 96 78 59 71 73
52 45 44 50 44 34 40 30 27 38 38 33 32 32 35 33 33 30 26 29 29 30 30 30 34 75 85 64 67 65 65 68 68 66 66 64 70 74 68 66 81 72 93 93 88 91 67 70 78
55 52 47 41 46 48 47 36 34 39 39 34 32 31 31 34 33 34 36 31 29 26 27 28 28 32 63 82 54 68 64 62 65 66 64 66 66 69 69 76 78 86 84 92 92 87 72 67 82
40 47 44 44 43 44 44 45 40 36 36 34 31 28 28 32 34 32 31 31 32 32 32 29 28 26 29 72 43 55 69 61 54 53 48 62 64 66 66 66 75 81 76 90 86 84 84 74 85
46 43 45 55 46 44 44 46 37 34 34 36 35 33 32 33 32 29 26 26 26 27 28 30 31 30 29 35 65 37 56 60 59 51 47 47 60 60 61 60 65 62 72 70 94 85 91 86 84
50 46 55 50 48 43 45 42 39 31 32 34 35 38 42 42 39 39 34 26 24 24 23 24 27 29 32 32 48 80 85 79 56 40 40 40 42 46 58 56 63 66 62 70 66 64 78 91 79
64 54 53 53 54 52 46 33 39 33 39 37 42 47 50 50 47 47 45 33 29 27 25 25 26 26 29 32 33 61 84 84 45 37 35 35 34 37 45 53 58 68 66 61 63 66 63 86 83
72 56 53 52 52 50 47 46 36 32 38 39 38 44 52 58 58 54 46 38 34 29 29 26 25 26 26 26 32 42 81 79 73 83 57 39 36 34 38 40 57 58 66 66 64 63 70 76 89
49 50 50 50 54 66 44 48 31 32 30 36 36 41 49 58 61 62 53 45 43 38 33 29 30 27 26 28 29 30 37 63 88 75 70 46 50 40 40 51 51 59 62 63 65 66 71 77 83
70 58 81 77 80 59 54 50 29 30 29 30 41 46 50 58 64 67 63 54 48 43 40 36 32 31 32 31 31 32 33 38 78 91 95 84 75 45 38 43 54 58 57 61 69 66 67 74 84
59 58 69 54 43 41 57 50 31 31 31 36 40 48 55 62 69 72 72 70 65 56 51 48 45 39 35 33 33 33 32 30 29 29 30 35 42 40 33 43 55 68 75 70 68 65 70 72 77
62 72 49 65 62 56 36 39 34 34 33 36 36 44 54 67 73 75 75 75 76 70 62 57 53 52 47 43 39 36 34 33 31 30 29 28 28 28 27 29 33 48 71 92 94 86 84 79 99
53 48 67 79 66 47 33 30 27 38 37 34 38 45 56 71 72 72 75 84 75 66 64 65 63 59 57 52 47 42 38 36 35 34 33 32 31 30 26 27 29 39 54 70 97 100 100 100 100
60 64 59 48 48 44 24 21 25 35 33 37 38 48 67 72 70 73 81 77 74 70 68 68 64 62 60 56 54 49 46 42 40 38 36 33 32 31 35 38 50 67 74 95 100 100 100 100 100
52 54 47 55 63 64 62 28 25 27 32 38 41 58 73 71 71 79 79 76 78 78 75 73 71 70 67 64 61 59 56 52 49 44 40 39 43 45 44 57 70 95 100 100 100 100 100 100 100

GFSSGP_850_rhum_063.txt.gz
RH
40 43 43 36 29 24 25 19 14 17 17 16 18 16 14 18 19 32 62 71 68 81 82 65 80 81 76 81 77 79 84 91 94 98 99 96 86 76 53 30 41 47 83 92 93 68 51 63 63
63 54 41 30 30 29 22 16 19 14 17 19 19 19 18 17 34 62 68 77 70 77 94 86 76 64 66 71 70 83 87 93 98 97 99 87 72 46 69 52 49 64 94 95 91 78 58 58 48
58 50 35 30 30 27 22 15 14 17 19 18 18 21 19 26 46 54 73 73 73 78 87 80 64 68 81 78 78 86 95 95 98 98 85 77 52 72 76 58 75 90 95 95 86 79 60 54 32
64 45 38 35 32 24 18 15 14 16 18 20 18 19 26 46 48 62 77 74 73 76 82 74 60 81 86 88 88 88 92 93 96 61 54 53 46 82 80 74 87 98 97 89 93 82 56 51 25
54 39 38 38 32 22 17 16 17 16 18 17 18 18 25 59 65 72 73 72 72 72 86 76 68 76 89 91 88 88 91 89 93 58 57 46 32 58 77 70 59 88 90 91 87 62 49 40 31
53 39 41 40 31 23 18 19 19 19 17 17 16 17 34 64 69 76 75 73 72 73 90 97 77 92 94 90 86 82 87 90 96 84 66 34 21 23 49 52 35 54 55 50 48 38 39 26 39
45 40 41 32 26 24 20 19 18 18 17 16 16 17 32 59 85 82 76 74 76 77 80 94 92 81 85 82 81 81 81 96 99 97 68 40 19 17 23 39 41 35 37 32 28 28 28 29 43
46 37 39 32 28 25 19 21 18 19 17 17 17 18 24 57 65 54 85 77 78 81 78 81 96 93 96 96 97 91 86 93 95 98 95 62 23 19 18 19 25 25 25 25 27 28 31 37 46
46 44 41 34 29 22 18 21 21 19 17 18 17 24 50 73 49 55 84 81 79 83 78 74 82 96 97 97 98 96 87 84 77 76 62 64 42 22 21 21 22 23 25 28 32 35 39 44 53
43 45 36 26 23 24 20 22 19 21 19 16 19 34 59 73 46 64 88 92 94 83 79 76 75 77 80 81 90 90 91 51 53 82 61 96 85 62 50 31 28 30 32 35 37 40 46 51 64
39 32 26 22 31 32 23 22 18 21 17 16 17 22 53 69 79 96 96 97 89 90 85 80 80 80 80 82 81 80 80 82 77 83 96 76 87 81 63 43 30 34 36 39 41 44 50 64 80
42 31 24 31 38 35 26 22 25 22 19 20 26 34 44 60 72 85 86 83 88 94 93 92 88 87 85 82 78 74 79 80 71 82 96 90 87 87 82 82 61 69 82 94 78 90 93 92 84
44 31 31 36 45 39 28 24 24 24 27 31 33 36 32 37 55 78 83 78 78 83 96 72 66 90 92 90 84 83 84 83 78 78 83 83 86 87 84 86 89 88 84 85 87 87 86 91 81
42 37 37 35 44 44 39 28 31 28 27 30 29 29 28 31 35 45 69 73 76 82 88 97 80 72 75 89 92 91 90 87 85 82 83 84 85 87 88 84 91 96 88 83 84 86 86 86 82
45 43 40 36 36 37 42 39 36 29 30 28 25 26 25 26 30 36 39 48 60 65 70 81 94 62 63 58 72 95 94 92 90 87 87 82 80 86 89 84 86 94 98 95 87 84 83 83 81
54 44 54 38 37 34 38 36 27 30 28 26 24 22 21 21 23 26 33 38 39 40 47 64 77 92 76 81 62 64 88 96 94 92 91 92 93 87 89 85 83 87 92 98 98 90 87 85 76
50 50 43 35 33 36 41 30 23 29 29 25 22 22 23 24 25 23 24 31 36 38 39 39 49 68 85 93 97 68 63 68 87 97 94 92 96 96 97 94 87 88 90 92 96 96 91 85 79
49 46 31 31 40 35 36 34 24 26 31 26 23 23 24 25 25 25 25 27 30 32 33 34 36 40 54 72 86 82 61 63 64 86 93 96 93 91 97 98 94 91 92 92 98 99 94 87 80
26 36 30 26 38 39 34 33 27 26 30 28 25 23 22 22 23 28 33 33 33 34 35 35 35 35 37 47 60 81 52 36 52 60 67 94 95 96 97 89 93 96 94 91 90 100 98 93 84
35 36 38 38 35 38 31 35 30 28 29 27 26 26 24 26 28 28 30 31 30 31 33 35 35 36 36 32 42 62 55 34 34 43 50 59 63 77 86 80 71 84 93 94 98 99 99 99 87
36 37 35 40 45 38 36 40 34 28 29 30 30 29 30 32 32 33 34 38 37 36 30 29 33 37 40 40 40 45 74 86 92 68 54 59 58 65 96 91 91 93 89 91 86 96 99 99 87
45 32 31 49 50 40 35 23 34 31 33 30 33 35 38 39 39 42 42 46 48 33 27 25 25 26 29 35 40 44 55 74 83 85 92 84 68 54 49 80 99 99 100 99 94 92 86 100 90
56 43 45 48 51 48 46 43 34 31 38 35 34 40 45 47 47 46 51 54 51 32 30 30 30 28 28 28 29 33 41 54 71 81 81 82 86 91 53 42 50 67 99 99 99 100 99 98 95
51 50 50 48 52 70 40 39 36 32 31 33 33 36 42 48 51 54 56 58 60 50 40 34 33 41 31 28 29 30 36 56 68 76 80 86 91 92 90 66 55 51 58 90 92 99 86 87 99
56 60 90 92 87 63 38 43 27 23 24 29 32 37 43 48 53 58 60 63 66 69 59 53 51 50 40 34 33 32 34 40 56 71 82 87 87 86 77 53 65 62 68 98 96 100 94 78 86
72 68 76 68 54 48 45 46 28 24 23 34 37 42 48 53 58 64 67 69 70 74 72 66 62 62 60 46 40 43 44 37 36 40 51 74 82 82 86 82 42 34 42 60 94 96 100 100 100
95 94 47 56 44 42 33 31 32 30 28 32 34 40 48 58 62 63 64 66 76 76 69 60 63 66 66 61 56 57 50 44 45 48 52 58 64 72 78 85 98 59 68 92 100 99 100 100 100
51 44 64 80 69 41 34 26 26 35 36 31 34 40 49 61 62 62 65 76 75 73 64 69 70 70 69 62 59 53 48 46 43 40 38 38 37 43 48 42 37 33 39 63 98 100 100 100 100
54 58 51 46 41 45 22 21 22 29 28 34 35 43 56 63 62 65 72 72 76 80 76 76 72 72 67 66 67 66 59 54 49 45 44 45 44 45 44 45 45 44 46 62 99 99 98 99 100
45 46 42 53 50 50 56 33 22 28 30 33 38 48 62 64 64 69 70 70 74 78 77 73 68 68 69 70 72 71 68 69 66 60 54 49 48 48 53 62 79 93 99 100 98 100 100 99 100

GFSSGP_850_rhum_066.txt.gz
RH
39 37 47 43 50 41 40 29 16 18 17 16 17 16 20 18 45 73 60 62 62 50 52 68 88 81 76 75 80 83 85 90 93 97 97 96 81 59 35 29 40 58 92 92 74 51 51 59 57
41 55 50 41 48 47 34 22 21 17 19 19 18 18 18 42 50 60 67 67 76 72 67 69 76 78 77 84 75 86 85 92 94 97 94 81 59 39 55 39 47 79 94 86 83 66 45 39 30
43 62 49 47 47 44 34 20 20 18 18 18 18 18 15 42 49 61 70 68 78 89 77 67 65 68 80 74 74 87 91 96 99 96 78 67 48 76 56 60 75 91 95 91 86 72 48 38 24
44 60 50 51 42 35 27 18 16 19 18 19 18 21 38 51 55 66 68 69 76 88 94 70 55 68 74 73 80 84 94 93 70 52 66 48 78 80 77 83 88 99 94 89 91 74 47 33 31
54 54 53 49 43 30 22 17 16 17 17 18 17 23 53 63 68 67 72 71 75 81 88 70 60 87 86 87 80 86 91 89 79 59 49 40 73 84 63 59 86 94 94 92 82 53 40 27 36
69 54 61 62 42 30 24 18 17 17 17 16 16 26 57 66 72 70 71 70 70 76 85 75 66 89 89 94 86 85 84 90 90 54 53 28 35 68 58 49 50 65 62 48 43 34 33 24 41
89 71 66 51 43 31 25 19 19 18 17 17 16 21 62 73 76 73 70 70 70 78 84 67 65 90 91 89 83 79 84 90 96 91 60 26 19 25 39 43 32 32 34 31 28 26 26 27 44
69 77 70 51 42 35 22 19 18 17 19 17 16 34 72 79 70 73 72 73 73 77 83 73 71 92 90 85 82 85 84 92 97 94 57 42 20 17 18 23 27 22 24 23 24 26 27 32 45
51 67 83 70 49 32 20 21 20 19 18 17 17 38 64 72 56 74 74 76 78 79 78 82 75 86 93 96 97 98 96 97 95 87 71 57 33 19 18 18 20 22 22 23 26 28 33 37 45
46 62 56 40 30 30 24 22 21 20 20 18 19 38 59 53 68 72 78 77 78 81 76 75 82 82 81 91 90 83 85 86 73 60 58 59 48 37 24 21 22 23 25 27 29 32 36 40 46
46 56 41 32 32 32 26 22 22 21 26 19 17 29 59 68 68 69 66 76 80 79 77 75 75 78 83 86 87 77 61 60 45 60 58 54 86 71 50 36 26 25 29 30 32 34 38 44 55
50 42 36 27 34 33 27 23 22 20 21 22 25 33 52 62 63 67 81 86 65 84 80 77 78 79 79 81 80 75 78 77 72 72 69 62 85 86 63 35 35 27 28 32 34 37 43 52 81
52 40 33 31 41 39 30 29 27 24 26 30 32 32 33 44 60 66 79 78 79 80 82 88 83 84 84 82 78 74 77 79 73 73 83 82 89 86 70 57 55 58 51 59 67 73 87 86 76
44 42 35 33 44 37 33 31 27 25 24 29 30 30 30 31 36 55 67 73 75 79 85 78 70 82 86 91 82 83 83 85 81 76 80 86 85 85 81 72 83 84 81 79 88 85 88 88 81
44 47 43 35 44 43 40 41 38 27 27 27 28 28 26 26 28 34 41 63 70 70 73 77 59 59 73 86 92 91 92 90 90 84 82 77 80 83 84 81 82 88 82 82 82 86 86 86 86
62 49 61 41 39 41 43 52 36 31 31 29 27 24 24 23 25 27 32 38 42 51 56 75 74 76 66 62 71 85 91 97 93 92 88 85 81 80 82 85 77 80 86 86 79 86 85 85 84
67 73 62 49 38 38 42 45 33 29 31 30 27 25 22 21 21 22 23 25 33 38 41 50 63 76 83 80 75 63 73 82 91 96 91 88 88 85 86 82 78 74 81 84 91 82 92 86 86
73 68 47 46 40 40 48 49 31 28 28 26 24 22 22 23 24 25 24 24 24 28 33 37 39 45 64 74 85 84 62 60 63 78 87 90 86 86 90 89 86 86 81 83 75 89 88 94 89
42 47 47 36 36 44 46 45 36 27 31 32 27 24 22 23 24 24 26 27 29 30 31 33 34 34 36 46 63 79 75 55 55 46 66 75 78 80 73 75 77 84 91 82 84 80 92 94 95
45 44 44 33 40 42 42 41 31 29 33 30 29 27 24 23 24 28 28 28 28 27 30 32 33 35 35 35 36 48 59 65 54 49 40 49 64 82 81 80 75 69 77 92 93 86 86 94 97
43 44 39 43 44 39 39 42 39 31 28 29 30 30 29 28 29 31 34 37 38 33 30 30 31 32 35 37 38 38 41 53 75 57 41 31 39 60 68 89 98 95 86 97 99 98 81 74 89
61 34 34 47 56 58 42 42 38 35 35 31 29 29 33 36 36 39 42 46 44 36 30 27 25 26 29 36 38 40 41 49 76 78 67 65 64 61 56 71 82 97 98 96 99 100 97 89 93
47 39 45 52 57 50 50 58 37 38 40 38 34 38 41 40 42 47 51 55 52 40 33 33 34 30 26 26 27 31 39 42 50 65 79 86 88 79 84 80 76 84 92 98 96 98 100 100 100
51 54 54 51 60 90 55 53 50 43 39 39 39 43 46 47 51 54 56 58 62 55 48 44 39 48 36 33 31 30 32 33 39 48 66 76 80 85 89 87 83 98 88 94 98 99 98 96 98
67 68 94 96 96 88 44 53 44 33 32 37 38 39 43 49 54 58 61 64 68 64 58 54 51 51 51 43 40 42 38 36 38 51 66 73 82 86 90 88 85 96 99 100 100 96 98 99 96
72 71 94 76 88 73 44 62 39 30 30 31 36 41 46 52 59 64 66 67 69 71 65 58 58 60 62 56 51 54 59 49 42 40 45 59 83 86 82 84 88 96 96 99 98 97 98 98 94
96 94 51 70 45 78 57 39 34 28 42 37 37 43 49 57 62 62 63 65 70 68 63 63 63 67 67 61 60 59 53 49 48 48 48 46 46 54 67 75 84 92 98 86 96 97 98 96 99
88 63 74 93 74 62 47 45 43 42 42 38 41 42 51 60 62 62 65 71 67 68 67 70 71 72 69 66 70 68 61 55 51 46 45 44 43 45 44 43 45 47 55 62 74 99 97 99 99
94 92 68 56 54 80 48 40 30 38 37 38 39 43 52 61 62 64 70 69 71 73 73 74 73 71 70 72 76 74 69 66 62 56 51 47 46 44 46 46 47 50 50 56 76 99 98 97 98
52 52 53 88 61 71 82 50 29 32 36 37 39 46 60 64 64 66 67 68 71 74 74 73 70 68 68 69 68 68 73 74 74 72 69 63 59 55 51 54 59 58 64 89 97 98 98 99 100

GFSSGP_850_rhum_069.txt.gz
RH
41 39 46 54 55 58 54 41 20 21 19 19 18 20 24 38 56 64 58 61 67 54 62 82 76 68 69 78 75 74 79 83 82 92 97 92 69 42 29 31 70 89 90 76 56 40 50 52 49
43 40 55 50 61 60 50 31 22 24 20 17 15 17 33 61 56 68 66 70 67 50 72 96 84 66 73 81 80 82 86 91 93 98 89 70 38 44 31 44 80 92 91 84 74 42 33 25 36
47 47 60 62 67 62 48 26 24 21 17 18 19 18 35 53 66 62 65 75 70 53 69 89 80 74 78 74 84 85 91 97 99 76 61 42 64 49 54 67 88 91 92 84 79 47 30 21 25
49 50 58 67 65 48 40 32 22 21 19 18 19 48 52 58 60 68 69 76 78 71 72 77 74 78 83 74 80 86 96 86 41 44 51 50 72 66 78 83 89 99 87 78 83 40 27 25 30
53 55 73 66 59 47 36 26 19 22 20 18 18 42 67 68 55 69 76 79 81 80 78 68 63 69 69 72 80 89 95 87 60 41 36 61 75 54 76 74 76 95 86 85 67 35 24 30 36
69 68 84 70 59 43 33 20 17 19 19 17 33 56 69 73 66 70 75 74 77 82 89 60 73 82 84 81 82 86 86 79 59 40 31 38 82 57 44 51 69 73 71 52 38 29 22 34 44
75 76 84 60 53 47 37 24 19 20 19 18 18 67 80 75 74 74 73 71 76 79 82 69 83 91 91 91 86 86 81 63 26 40 35 23 36 44 33 28 26 37 33 29 25 25 23 34 44
73 87 72 67 63 49 32 23 18 18 19 17 26 67 79 74 73 73 71 73 80 81 79 74 72 92 96 91 86 79 76 73 56 27 44 25 20 18 21 28 26 21 24 23 22 24 26 32 41
73 93 91 77 66 51 38 37 20 18 18 24 48 52 59 71 74 74 73 76 79 80 80 70 74 94 95 88 84 82 81 82 57 51 57 48 21 17 17 19 21 22 21 21 23 24 28 31 38
62 81 67 50 52 54 45 29 32 20 20 45 53 56 56 58 74 75 76 76 78 80 83 80 76 69 67 79 76 81 73 67 54 71 58 42 37 22 19 18 19 20 22 23 25 26 29 33 38
56 64 54 49 48 59 46 32 28 23 24 21 57 40 39 40 73 72 78 80 82 78 81 80 78 79 75 82 87 82 71 53 56 51 42 43 44 43 36 25 21 22 24 26 28 30 32 33 36
55 47 45 42 41 50 50 27 23 23 31 24 24 31 40 46 49 66 77 80 80 80 78 76 78 80 80 83 83 77 55 56 53 51 53 62 51 50 62 51 36 29 25 30 31 33 38 41 43
63 48 41 41 39 40 37 30 30 26 32 30 46 57 57 55 58 56 62 71 77 80 78 78 78 82 82 81 81 73 66 67 70 58 66 82 67 60 72 72 50 46 38 31 34 48 53 49 57
53 53 49 39 42 39 34 33 29 27 30 28 29 30 32 41 54 65 66 82 80 78 78 78 80 80 81 83 82 72 75 79 80 73 73 85 86 70 79 74 60 54 63 54 56 60 70 80 77
60 58 53 45 45 44 35 38 36 28 28 30 29 28 28 29 32 36 60 65 78 75 73 66 69 81 82 81 86 83 79 83 87 85 75 78 85 85 86 81 63 59 69 78 72 77 85 86 90
67 55 70 47 47 44 36 49 39 29 31 30 30 28 28 26 26 28 34 41 66 71 72 73 72 71 74 73 76 82 89 91 92 91 87 80 77 80 79 78 72 68 74 83 88 76 81 84 85
76 89 73 53 46 49 43 51 36 31 30 32 31 29 27 24 23 24 25 28 36 39 48 57 72 77 77 72 74 76 82 86 86 87 91 86 81 80 79 73 71 75 75 77 84 85 82 78 84
92 82 67 65 49 47 52 51 39 31 30 32 31 30 27 25 23 22 23 24 24 29 35 38 41 45 54 67 74 80 70 78 81 81 76 79 88 87 80 75 73 80 81 76 75 83 90 84 81
68 71 59 52 44 49 50 50 44 37 31 32 29 28 25 24 23 24 24 25 24 25 28 30 34 38 40 40 46 68 73 56 60 67 66 72 72 67 80 85 79 81 88 84 80 79 85 92 89
59 66 63 44 38 47 50 51 46 40 34 30 28 27 27 27 26 29 29 28 26 26 29 32 33 34 34 36 37 38 48 55 56 55 60 67 64 66 70 80 94 85 80 79 88 91 87 85 93
65 71 61 47 47 43 45 55 48 40 32 30 30 30 30 29 30 30 30 29 28 26 25 26 27 28 30 34 35 36 36 38 43 48 58 62 61 51 59 71 72 71 80 81 73 79 86 93 83
74 51 47 54 60 72 44 66 43 40 40 35 31 30 30 31 34 36 38 35 32 32 32 30 30 31 32 34 36 38 39 40 41 56 84 80 71 65 70 70 70 83 83 85 89 82 84 93 94
69 49 44 55 60 56 54 60 47 39 47 41 35 31 35 37 39 40 41 40 39 37 35 37 35 32 29 27 29 34 38 42 43 47 58 74 87 89 83 77 67 70 75 85 87 91 92 88 89
83 61 57 61 69 91 66 65 55 52 40 42 41 44 42 45 47 50 52 59 61 58 51 45 42 41 35 31 29 28 27 28 31 35 42 50 68 80 83 86 82 81 87 99 93 94 90 87 92
89 88 98 94 95 92 58 66 50 37 38 42 52 47 47 51 55 58 60 64 69 65 58 55 51 51 46 42 40 35 33 32 32 34 36 50 68 79 81 81 84 93 89 97 97 97 96 95 91
97 79 88 87 97 85 50 77 52 37 33 39 42 44 48 55 58 61 64 65 66 64 63 60 58 58 54 54 56 53 49 48 48 43 40 42 55 69 84 81 78 84 86 97 98 99 95 97 92
98 96 63 71 59 81 65 46 35 45 47 45 46 47 54 60 62 64 63 62 61 61 58 58 60 62 61 63 62 59 57 56 52 50 48 47 47 48 54 72 80 81 82 90 96 98 87 94 89
95 72 79 92 76 72 66 54 54 52 51 46 49 50 55 60 63 63 62 63 64 62 62 63 62 62 64 64 62 60 60 58 55 50 48 46 44 43 42 44 46 48 49 55 67 65 70 78 98
96 98 80 63 69 81 59 51 37 41 45 44 45 46 57 62 63 62 63 66 66 68 69 69 68 67 68 65 65 66 64 63 61 59 57 56 52 48 47 47 48 48 48 46 45 50 60 91 97
71 83 74 85 65 73 87 64 33 39 43 38 44 49 58 62 63 62 65 66 68 70 72 72 69 67 65 64 64 65 66 68 70 70 69 67 66 62 59 56 54 52 53 57 64 76 96 99 98

GFSSGP_850_rhum_072.txt.gz
RH
39 38 35 45 56 62 60 48 28 21 21 20 20 34 49 44 55 48 63 64 68 62 63 66 60 61 68 70 70 70 73 76 81 76 77 62 53 36 35 83 87 86 76 48 33 44 43 46 45
36 40 42 50 67 66 56 37 30 23 20 19 19 36 52 68 65 63 72 69 66 65 66 66 63 65 71 75 74 75 76 81 83 96 67 48 33 26 38 83 91 88 82 66 37 25 27 44 38
37 41 51 63 74 66 52 30 30 22 20 17 20 34 50 66 64 65 63 69 72 63 67 74 68 68 80 76 74 82 86 88 78 56 51 35 35 44 60 84 90 90 80 70 44 23 18 26 28
43 47 58 75 73 54 42 39 31 23 20 19 34 62 62 65 65 64 65 72 72 59 72 90 72 73 82 77 78 87 97 73 50 47 35 41 32 58 69 86 92 90 75 74 42 23 22 24 33
46 53 74 75 70 56 44 36 32 24 21 20 27 64 75 71 68 68 73 78 67 65 78 88 77 78 76 75 79 82 78 69 49 46 36 34 33 70 66 77 53 52 64 69 35 21 24 26 37
56 52 86 82 66 46 43 34 30 22 21 37 62 70 75 77 75 76 82 79 77 61 80 77 77 86 75 72 80 82 61 65 42 35 80 68 41 47 48 38 40 60 63 36 23 19 24 32 39
67 69 80 70 62 48 41 33 26 22 21 20 48 80 77 76 78 82 81 82 79 77 70 64 66 76 72 77 78 84 80 64 34 28 57 93 48 29 26 38 56 50 31 23 20 20 24 36 40
66 70 72 66 67 56 55 43 33 21 20 38 46 87 86 75 80 84 82 77 79 83 83 57 78 87 89 87 83 86 80 63 34 32 22 21 21 21 36 31 27 34 26 22 21 23 25 35 39
86 90 81 68 75 57 58 66 37 24 23 26 45 61 64 74 80 82 77 78 88 90 81 79 85 94 93 90 87 81 77 74 48 36 30 20 16 16 18 27 32 26 26 25 24 24 28 36 42
88 96 78 55 56 75 70 66 50 30 41 73 61 65 73 73 76 78 80 85 87 83 80 66 68 83 81 89 85 77 76 66 42 45 38 34 33 21 18 18 19 20 22 23 26 27 32 35 43
67 78 58 52 51 79 77 69 61 40 29 56 64 67 69 66 65 78 80 78 80 78 80 81 78 77 81 82 73 72 64 62 51 45 41 41 42 35 25 22 20 21 22 23 24 27 32 37 43
67 53 54 57 73 71 84 75 58 32 30 25 23 33 49 60 60 66 75 78 82 81 79 81 82 80 76 70 73 74 68 62 52 45 39 45 43 45 52 55 48 33 25 26 28 29 31 35 40
65 52 49 46 58 58 65 81 63 32 39 24 41 51 41 49 55 58 64 65 81 81 81 82 84 84 81 83 80 79 73 50 52 49 48 54 59 58 56 62 63 48 36 28 29 31 33 36 40
63 56 51 48 43 43 70 66 57 34 36 57 59 63 61 58 53 52 69 77 78 80 80 79 82 86 85 82 81 79 67 59 67 72 63 62 68 74 74 69 71 67 53 56 48 45 50 54 57
65 65 63 54 47 44 36 54 55 31 32 31 30 31 34 46 63 53 60 64 72 77 81 80 79 78 79 79 78 80 75 69 76 79 79 69 73 79 79 75 74 74 66 61 68 65 63 68 74
76 72 78 52 50 44 36 51 35 30 33 32 31 29 28 27 30 37 50 70 72 76 76 75 79 82 82 80 75 74 71 71 78 86 88 84 76 77 78 76 71 75 75 73 74 76 78 72 75
81 88 74 58 49 50 42 46 37 29 34 29 31 30 28 27 26 26 29 36 47 71 74 69 76 78 79 82 84 85 82 78 79 84 88 87 87 85 78 74 71 77 77 76 77 76 83 83 77
95 84 70 66 55 53 55 53 41 35 34 31 29 31 30 28 26 24 25 27 29 35 41 50 56 68 72 79 83 86 88 87 88 88 85 80 79 86 87 83 81 83 84 82 82 81 85 88 87
77 71 70 60 48 52 58 55 47 38 38 36 30 31 30 28 26 25 25 24 24 24 28 37 39 41 44 47 48 58 76 80 79 84 83 82 84 78 85 83 86 90 91 82 84 88 88 86 89
78 79 71 51 43 52 54 55 47 42 41 34 31 31 30 26 26 27 27 26 25 25 25 26 32 35 37 38 41 47 46 47 60 68 73 76 76 77 79 80 81 82 85 84 78 84 84 83 87
75 74 65 58 50 47 54 62 58 48 42 37 32 30 28 28 28 29 29 28 27 27 27 27 28 31 34 35 36 38 38 42 40 41 47 52 63 80 79 67 63 74 76 78 82 82 80 78 76
83 58 57 52 61 80 46 79 51 53 46 43 36 33 31 31 31 30 30 30 29 28 27 25 24 25 27 30 31 34 37 38 39 41 41 40 43 51 63 69 65 69 76 78 80 83 86 88 89
69 74 56 57 65 59 56 68 58 38 54 45 43 34 32 33 33 35 36 37 36 33 30 29 31 33 31 29 30 31 34 37 39 41 44 48 54 66 67 78 83 78 66 77 82 86 91 93 93
86 58 66 68 79 93 65 68 65 48 43 42 39 34 33 40 42 44 46 45 46 42 40 38 39 39 37 33 31 30 30 30 31 33 35 38 46 50 73 78 82 77 76 91 86 85 91 94 97
81 77 98 98 98 93 64 71 46 42 39 38 45 39 43 43 49 51 51 54 54 53 52 51 50 47 44 42 40 36 34 34 34 32 31 33 40 55 70 78 82 84 86 84 86 91 91 97 90
94 88 92 89 96 83 58 82 54 39 34 33 35 44 51 53 55 57 59 60 59 60 59 58 56 53 54 52 49 47 46 46 43 44 44 40 39 43 56 72 82 84 78 74 83 85 95 89 96
96 99 75 73 71 88 69 58 40 48 50 54 54 52 56 59 61 61 62 61 61 61 59 56 55 56 57 59 58 57 56 55 55 54 52 50 48 47 45 48 52 64 81 83 85 88 90 67 76
91 84 98 92 83 79 68 64 56 58 60 54 55 61 60 63 65 63 62 61 61 61 60 59 60 60 61 62 63 62 62 62 62 61 57 53 51 49 48 47 47 47 50 52 55 60 64 68 74
96 100 89 70 72 83 68 59 44 52 53 53 55 59 61 63 62 62 62 62 64 63 64 64 66 65 65 66 68 68 67 64 63 63 62 60 58 57 55 54 52 51 49 49 48 48 50 53 58
76 89 76 91 83 77 86 56 39 43 50 47 51 54 58 57 60 62 62 63 63 65 67 69 70 68 66 65 65 66 66 66 67 68 69 68 66 65 65 62 60 57 55 55 58 64 71 78 92

GFSSGP_850_rhum_075.txt.gz
RH
46 40 35 38 52 65 63 50 36 26 23 20 21 30 37 62 46 48 57 56 67 73 71 62 60 63 73 74 71 72 71 81 71 65 62 49 38 31 78 88 79 71 37 28 39 47 54 54 48
47 40 36 46 64 69 60 42 35 26 22 32 45 46 58 68 67 64 61 67 65 59 73 63 58 62 70 70 70 72 77 78 86 42 40 27 26 32 86 92 81 73 52 26 20 30 39 40 37
50 40 41 63 76 68 54 35 36 26 22 22 29 48 60 70 66 60 66 69 76 53 64 62 56 66 70 68 71 80 92 90 58 41 32 29 30 54 81 87 82 77 57 28 18 17 30 34 32
55 44 50 74 74 58 44 37 38 37 23 22 40 68 68 70 56 58 64 68 73 59 62 74 70 73 75 71 74 87 90 80 60 37 27 24 46 58 78 83 82 73 48 32 19 15 16 22 26
59 46 75 80 75 60 50 42 37 34 26 23 42 77 77 71 68 65 66 72 69 61 69 76 73 79 80 74 73 84 75 50 49 40 32 24 49 58 72 66 59 50 49 34 19 19 22 30 39
59 54 86 86 70 50 45 39 38 30 24 49 62 76 80 74 73 70 73 78 76 63 88 74 74 83 80 85 77 77 56 47 34 39 82 61 80 57 47 53 40 52 52 28 22 23 29 36 42
72 71 76 70 56 54 41 43 34 34 24 29 56 86 86 84 80 77 80 79 75 70 74 84 78 82 79 88 76 71 55 44 29 37 88 75 48 75 56 46 54 59 41 25 24 24 33 37 42
69 68 73 69 55 61 59 52 46 35 25 42 57 86 89 86 88 87 86 85 80 75 68 67 74 86 78 76 75 73 67 55 34 30 29 22 28 40 43 46 41 38 30 27 26 25 35 38 41
74 84 70 67 69 64 64 70 55 46 38 51 55 68 68 81 88 96 86 83 88 87 75 61 62 72 74 78 77 79 74 66 39 33 23 17 19 20 28 28 24 20 23 25 25 27 31 42 44
90 81 73 55 57 59 70 70 67 60 47 53 72 76 80 82 84 93 83 76 89 90 85 75 70 85 85 87 86 78 70 57 46 41 42 36 25 19 19 20 20 20 22 24 25 26 27 33 44
84 79 60 55 76 82 78 73 72 65 40 34 88 75 79 82 83 85 82 75 80 82 77 77 86 90 84 78 82 80 70 60 52 51 56 52 44 39 22 20 18 19 21 24 25 27 28 32 36
75 63 61 74 89 83 76 80 74 69 56 47 46 67 68 73 74 75 77 79 81 81 75 73 73 82 80 77 82 72 64 57 53 51 52 52 47 43 41 36 33 33 30 25 26 28 30 33 35
64 58 56 84 77 72 71 72 74 73 46 43 40 53 57 59 57 59 63 71 80 78 76 81 82 81 82 80 74 74 73 65 61 56 53 49 51 54 51 51 57 56 45 38 29 30 32 33 36
66 56 72 73 77 61 76 73 80 57 48 48 58 58 61 57 57 61 63 62 82 80 77 82 83 84 83 80 78 77 79 70 60 66 60 59 61 67 66 63 61 61 59 55 56 43 41 43 47
68 70 68 59 63 68 78 94 88 58 52 51 69 61 59 60 65 69 64 71 75 74 80 80 81 84 82 79 78 79 78 74 66 73 77 75 69 69 71 71 71 70 74 76 68 64 63 61 64
79 70 84 58 52 57 68 76 79 59 55 45 34 36 48 57 55 56 60 65 69 84 82 82 81 82 84 84 82 80 78 77 67 65 73 80 80 76 73 70 68 77 82 84 80 74 74 74 76
86 90 82 64 52 51 48 52 66 60 57 43 32 32 31 28 31 36 48 63 72 75 80 81 84 84 85 86 86 85 84 82 80 74 70 72 76 77 77 71 71 78 82 84 83 83 83 81 80
98 87 73 67 59 55 55 50 44 42 40 36 32 31 31 28 27 27 35 41 47 60 74 76 81 84 86 88 90 90 87 87 87 83 80 81 83 82 82 77 77 85 89 88 86 87 86 85 83
77 70 71 59 51 57 58 53 47 40 39 38 35 33 31 30 28 27 26 28 30 34 42 47 55 62 73 82 88 88 88 84 84 85 87 87 90 92 92 91 92 93 93 90 93 96 93 92 92
75 77 72 55 46 53 57 58 50 44 44 39 35 33 32 31 29 28 27 26 26 26 28 36 40 40 43 48 52 57 59 62 63 72 82 85 85 82 80 81 83 84 85 86 91 91 95 96 96
76 78 70 59 51 49 53 59 54 46 45 41 38 35 34 33 29 27 27 28 27 28 28 28 30 34 35 36 37 38 41 45 47 46 46 53 68 80 86 87 90 90 76 69 79 87 91 94 97
87 63 60 54 61 74 52 86 58 49 49 49 40 36 33 33 30 28 28 28 29 29 28 28 28 28 28 29 32 36 38 39 39 41 40 40 41 42 46 58 69 63 63 74 76 80 85 96 98
75 71 63 60 66 65 59 74 64 43 60 52 44 40 36 33 30 29 30 31 31 30 30 29 28 28 27 28 30 32 33 35 36 38 41 44 44 43 43 46 55 63 66 77 78 74 80 84 92
76 62 70 83 80 93 70 73 73 53 45 40 42 40 36 34 33 35 36 36 35 34 33 32 32 34 36 36 36 35 33 32 32 34 36 38 39 41 45 53 66 79 72 75 73 72 81 83 88
72 87 98 98 98 94 68 71 54 45 40 40 39 37 37 36 36 42 42 41 42 44 45 44 43 42 42 42 42 40 37 34 33 32 32 33 34 38 45 56 66 80 87 88 89 88 86 95 90
86 75 92 89 96 84 72 85 61 45 38 36 33 32 36 43 45 45 46 50 52 56 57 56 53 50 48 47 46 47 48 47 46 44 42 41 41 41 44 54 69 82 87 88 89 92 94 92 88
93 99 71 77 75 91 74 62 43 42 46 44 47 44 46 50 53 52 54 56 59 60 58 56 54 53 53 54 54 54 54 54 55 55 54 53 51 49 47 47 48 54 64 77 89 96 98 100 100
84 81 94 96 95 87 72 71 53 45 52 63 69 64 60 58 61 60 60 62 60 59 58 57 56 56 56 57 58 60 61 61 61 61 62 61 58 55 52 50 49 50 50 52 53 55 58 59 62
98 98 98 95 81 80 74 60 50 45 48 64 65 68 66 63 63 63 63 61 60 59 60 61 61 62 62 64 66 67 66 64 63 62 62 63 64 63 62 59 57 54 52 51 51 50 50 52 56
73 78 88 96 87 84 86 66 38 46 50 55 61 64 62 62 62 62 62 61 59 60 60 62 65 66 66 66 66 65 64 65 65 66 69 71 70 68 68 67 65 62 59 60 60 62 66 69 73

GFSSGP_850_rhum_078.txt.gz
RH
45 42 37 38 46 65 59 46 41 34 24 22 21 24 33 54 49 48 62 49 55 59 62 67 64 61 67 77 78 80 76 74 67 65 56 42 32 72 83 72 58 30 25 35 45 58 62 60 51
48 49 41 43 60 62 53 47 36 33 26 44 45 53 59 72 67 61 64 65 58 60 60 64 58 61 70 75 75 79 75 70 58 48 34 25 30 80 86 75 63 43 25 21 32 38 40 39 36
48 52 43 63 75 64 46 39 41 38 31 28 36 55 65 73 66 55 66 65 62 58 61 62 60 71 75 73 70 79 84 87 49 39 27 24 46 79 88 84 71 53 29 17 16 28 33 32 31
54 56 54 70 71 57 44 40 43 40 29 24 33 67 75 70 60 58 64 63 71 63 61 77 73 71 70 65 69 82 96 85 57 43 30 38 49 70 85 79 75 48 32 17 15 18 24 25 24
61 56 72 80 72 62 51 44 42 41 32 25 50 72 80 71 65 64 62 65 66 64 66 86 73 79 74 66 74 89 77 73 62 46 32 39 43 60 97 77 62 45 34 20 18 19 22 27 32
71 64 79 75 71 52 46 48 39 38 34 29 62 80 78 74 74 70 68 68 72 54 68 79 81 82 74 68 84 79 58 45 38 33 50 56 51 75 73 59 46 46 35 25 21 25 29 33 40
74 74 73 58 59 54 46 50 48 46 43 26 60 84 83 80 78 73 76 79 75 64 70 82 80 87 79 80 75 70 52 44 26 24 32 39 80 76 62 46 38 41 38 29 24 29 32 37 42
68 71 75 66 53 58 64 54 56 55 48 38 71 83 86 79 80 82 85 83 78 76 88 78 81 88 81 90 79 70 51 44 28 22 31 27 34 35 41 43 39 41 30 25 24 24 34 39 53
80 80 82 74 63 55 67 62 58 48 48 40 60 77 73 78 83 87 89 89 86 87 87 85 74 78 80 78 77 71 63 55 32 28 28 32 34 34 36 31 30 29 29 24 23 23 27 36 42
85 83 70 57 64 69 72 68 68 58 54 53 63 97 85 82 87 91 94 94 91 88 84 79 72 80 82 70 75 70 61 54 46 34 27 26 25 24 24 26 31 29 26 24 23 24 25 31 42
85 78 63 84 84 69 73 75 69 69 55 50 61 51 100 90 87 93 89 87 85 87 83 74 64 67 75 76 75 74 67 59 59 46 48 51 45 39 27 21 20 22 24 24 24 24 26 28 34
82 67 64 86 85 72 76 73 69 71 59 53 48 51 93 96 76 81 78 75 84 85 79 77 71 80 84 74 75 76 75 69 61 59 56 53 49 44 42 36 28 29 30 28 24 26 28 29 33
62 64 75 78 73 70 70 76 76 63 54 52 47 56 65 63 60 61 68 72 80 83 77 69 72 85 85 82 80 82 70 66 67 64 57 54 47 51 52 51 57 62 57 45 37 30 31 32 35
61 59 82 81 73 74 76 83 77 50 50 51 49 56 75 59 58 61 67 71 80 83 79 79 78 81 85 84 82 74 76 77 66 58 59 54 55 61 69 68 63 65 68 64 56 56 48 44 43
66 87 80 85 82 79 81 81 86 61 61 59 51 44 74 59 57 58 54 59 70 75 76 79 82 82 83 82 81 80 78 80 68 62 68 72 70 68 70 75 73 72 76 76 72 69 66 64 63
74 75 90 78 82 85 76 87 75 59 77 63 56 46 50 67 61 65 72 65 71 73 75 76 79 81 80 81 81 80 81 80 78 70 68 76 79 80 76 71 69 73 77 80 79 79 78 75 76
86 94 83 82 75 86 79 72 65 70 70 75 64 57 39 56 68 68 65 66 75 70 74 79 80 82 83 84 86 87 87 87 84 83 78 76 79 83 83 78 74 80 81 83 86 85 86 85 85
91 85 80 76 67 77 87 56 74 78 70 78 73 60 42 32 36 49 64 68 73 76 76 78 85 85 88 87 91 92 92 90 88 87 86 85 83 85 86 84 82 84 86 87 88 89 92 93 92
78 76 78 62 56 62 74 59 72 73 85 86 68 56 38 32 29 28 35 40 44 56 71 77 79 81 84 84 84 86 82 84 85 86 86 88 88 87 88 89 90 90 92 90 92 92 93 92 91
76 78 75 59 52 62 63 61 51 50 63 62 58 46 33 29 33 30 27 28 31 34 40 55 68 70 72 72 76 78 82 83 81 81 80 80 80 82 84 84 84 80 81 83 83 85 86 91 94
78 81 74 63 53 58 59 63 60 49 43 44 43 38 36 33 33 33 28 27 26 27 28 34 42 45 45 48 60 68 62 62 58 56 58 61 67 73 79 79 82 90 94 92 94 81 75 84 91
82 66 65 60 64 80 53 84 62 48 50 50 44 41 37 36 33 33 29 28 27 28 28 28 28 29 32 34 35 35 35 36 38 44 51 54 51 46 44 45 48 50 70 82 69 70 76 78 79
72 68 65 62 72 67 64 77 61 48 54 45 38 41 37 36 35 33 30 32 31 30 30 29 29 29 28 28 28 28 28 30 34 37 38 38 38 39 41 42 45 50 66 74 78 84 82 78 82
72 70 77 84 78 90 75 77 74 57 46 40 39 37 33 31 35 33 34 35 34 33 32 31 31 31 31 31 32 32 32 32 33 34 35 36 38 40 41 43 45 50 58 74 86 80 83 79 91
71 78 98 97 97 90 70 82 57 48 41 39 36 30 29 36 37 33 34 36 36 35 35 35 36 37 38 39 40 40 40 39 38 36 35 34 34 34 36 37 40 45 53 67 83 88 91 94 89
81 80 92 88 96 89 72 89 60 45 40 35 32 31 32 32 39 36 37 39 40 42 44 44 44 46 47 48 48 48 49 48 48 47 46 45 45 44 43 42 48 65 77 88 94 97 99 98 90
97 96 63 85 80 91 76 67 47 44 44 40 40 38 36 34 39 44 47 46 49 51 53 54 52 51 52 53 54 54 55 55 56 55 54 53 52 52 51 51 50 50 53 62 74 84 96 94 95
83 80 92 96 97 91 74 70 60 40 38 44 55 54 46 44 50 55 56 59 60 60 57 54 52 52 53 54 55 56 57 58 59 59 60 59 59 58 57 55 53 52 52 53 56 59 66 75 78
97 97 92 83 82 87 78 62 51 45 40 43 54 57 57 52 56 62 65 65 64 61 58 56 56 56 56 57 58 59 60 60 60 59 58 59 59 60 60 60 60 58 56 55 54 54 55 57 57
73 76 85 94 86 87 88 60 37 42 48 46 57 63 61 54 59 62 65 65 62 60 60 59 58 59 61 63 63 63 62 61 62 62 63 65 66 66 65 63 62 62 60 60 60 60 62 65 69

GFSSGP_850_rhum_081.txt.gz
RH
48 43 37 42 42 46 42 39 40 34 26 25 25 27 31 49 42 39 55 44 46 51 69 78 72 69 69 72 78 76 79 81 72 64 44 30 70 69 62 42 22 23 28 33 42 55 56 51 41
48 51 43 41 46 45 40 44 37 33 32 36 46 57 55 56 60 58 60 46 46 50 71 83 68 73 70 72 76 79 75 72 66 36 26 32 81 82 68 54 34 22 18 31 34 38 40 35 32
50 53 44 52 57 43 35 40 43 40 33 35 37 61 67 71 64 58 51 48 50 51 65 82 81 77 77 72 75 73 74 78 48 30 25 45 77 81 72 58 40 24 15 16 26 30 32 30 25
59 56 53 49 57 50 40 41 44 38 32 25 38 63 77 74 66 63 58 51 54 49 58 81 87 80 79 73 68 76 84 80 50 33 32 52 77 88 72 63 44 29 16 15 18 24 23 23 30
64 58 62 66 59 53 48 45 44 37 36 29 52 64 84 78 68 66 60 56 67 53 63 79 84 84 73 67 74 89 56 67 52 39 40 51 70 94 71 61 42 31 19 18 19 20 24 30 40
71 60 62 64 63 52 45 50 42 45 40 30 62 77 83 79 75 79 68 59 68 60 76 82 83 78 69 68 83 85 50 38 32 36 43 49 64 97 76 51 42 39 27 21 24 26 32 37 42
79 76 65 56 57 48 46 49 51 51 39 38 78 72 80 86 94 82 76 71 68 68 81 80 81 84 73 71 86 79 51 42 29 26 26 34 59 86 63 42 40 35 29 23 24 29 33 40 45
67 80 65 60 55 48 60 56 56 55 45 44 77 68 76 86 94 90 82 82 76 86 78 82 85 86 74 77 76 77 54 52 27 30 25 28 28 43 38 36 39 35 28 24 24 26 32 33 36
78 85 74 62 55 54 66 55 60 48 48 66 85 97 97 90 98 98 95 93 86 84 87 86 84 90 80 74 75 75 62 54 33 26 29 25 30 32 30 31 28 29 29 25 25 25 28 33 36
82 84 69 56 57 67 68 65 66 54 45 52 48 58 98 100 100 98 97 94 89 88 90 85 85 90 85 76 72 68 64 56 40 32 28 25 26 27 26 27 29 30 26 25 25 26 26 28 35
87 77 69 86 75 64 69 72 64 60 49 59 62 50 79 100 99 89 90 88 90 96 97 96 88 88 86 76 66 65 63 62 56 42 36 39 35 31 28 22 22 23 24 25 26 26 27 27 30
84 72 74 90 79 70 75 71 66 61 57 58 53 51 62 98 98 91 74 77 84 82 81 77 81 86 88 77 72 72 71 68 64 60 49 54 50 44 44 36 29 26 28 31 27 27 28 30 31
64 72 78 80 69 71 70 77 66 62 56 53 50 46 60 90 92 70 65 74 82 86 86 83 79 74 76 84 81 82 82 72 70 64 61 55 51 47 50 50 52 58 60 54 46 37 32 33 34
59 75 87 73 73 71 69 81 72 62 59 47 45 44 49 72 76 66 64 66 73 82 83 76 73 75 88 88 85 82 79 73 74 65 64 58 54 55 64 69 64 60 67 70 64 60 59 51 50
63 86 80 85 78 81 58 64 70 67 59 55 44 45 48 48 75 65 64 61 65 68 82 77 74 78 85 85 86 80 77 80 78 64 59 66 68 67 69 71 73 74 73 75 76 74 70 68 67
72 79 89 83 79 88 56 70 56 60 56 59 49 49 50 44 60 70 63 61 59 71 80 79 78 77 79 80 82 81 82 82 79 75 67 71 77 80 79 75 72 77 79 80 80 80 78 76 78
80 90 82 92 76 87 71 72 54 58 62 62 58 53 53 48 43 74 64 63 62 68 78 79 79 80 81 82 83 84 85 85 85 84 83 78 75 78 81 82 82 85 83 82 84 84 84 83 85
92 86 77 86 84 87 84 83 66 70 77 66 60 58 56 52 39 43 74 71 74 71 70 79 82 81 82 83 85 86 87 86 83 83 83 85 86 84 84 84 86 90 91 89 90 92 92 90 88
70 70 65 66 63 81 85 76 68 81 72 66 65 59 59 50 40 34 47 64 68 64 66 73 77 79 84 84 81 84 82 84 83 83 86 88 89 90 88 85 86 89 87 87 92 89 86 81 80
72 77 76 62 60 70 74 82 62 76 76 69 63 55 54 52 43 33 31 37 62 66 59 62 69 75 78 79 78 79 78 75 73 79 85 86 84 80 79 75 76 80 81 80 79 81 82 84 82
79 79 74 70 57 57 66 72 65 57 70 67 57 55 52 52 44 35 31 29 32 41 44 46 54 67 71 68 64 64 66 63 65 68 68 66 68 73 69 68 71 73 76 76 85 89 92 94 76
82 68 65 62 69 85 56 84 65 57 68 58 59 43 46 44 41 36 32 32 28 28 31 33 38 48 50 49 52 53 52 53 47 43 44 52 58 64 62 57 49 45 48 49 53 80 86 81 79
71 68 66 63 70 69 67 74 62 52 59 51 48 47 40 43 39 38 35 32 30 29 30 32 35 35 35 34 34 33 32 32 31 32 35 40 43 45 45 43 40 39 43 50 60 76 82 90 86
70 72 75 79 74 90 74 70 68 56 44 40 41 42 40 37 36 35 34 34 32 32 32 32 31 30 30 30 29 29 29 29 28 29 32 35 37 38 39 39 40 42 46 50 60 78 95 95 88
66 76 92 94 95 90 73 80 57 45 45 39 36 34 34 35 34 34 32 33 32 33 32 33 32 32 32 32 32 32 32 33 33 33 33 34 35 35 36 36 36 36 38 41 47 64 95 98 94
81 77 87 93 92 83 72 79 57 46 42 39 35 33 33 33 35 39 37 33 31 32 35 35 35 36 36 36 37 38 40 40 41 42 41 41 41 40 40 40 40 41 45 53 66 85 99 97 90
87 89 65 83 80 84 67 62 44 41 38 38 37 36 34 34 34 40 38 37 40 40 41 43 44 44 45 47 47 47 47 48 49 50 51 51 52 52 52 52 52 52 52 54 60 72 97 99 94
80 74 86 95 97 92 71 64 49 38 33 35 36 36 38 37 36 42 45 55 56 57 56 54 53 52 50 50 51 52 52 53 54 55 56 56 56 56 57 57 58 57 56 55 57 61 66 74 87
95 93 89 78 78 82 75 53 46 44 37 37 38 36 44 45 43 48 62 66 62 59 58 57 54 53 52 53 53 55 56 58 58 59 58 56 56 56 56 56 57 59 60 59 58 57 56 57 57
73 81 78 86 84 86 76 61 37 39 42 46 44 48 54 57 49 60 66 65 64 64 60 57 56 56 56 57 59 59 59 60 59 60 60 60 60 60 61 60 59 59 60 60 60 60 59 60 61

GFSSGP_850_rhum_084.txt.gz
RH
49 43 39 45 28 25 20 22 26 24 18 21 24 18 23 33 28 34 71 67 77 86 94 78 69 69 71 73 74 81 72 70 65 54 38 57 60 45 28 21 24 24 28 38 52 55 51 39 30
52 49 42 38 26 27 21 22 24 24 24 29 37 36 29 28 62 77 80 65 74 91 97 96 70 68 74 75 80 77 74 65 50 36 44 85 79 59 42 27 18 19 29 35 38 38 34 29 24
51 53 38 28 24 26 20 24 28 29 28 33 31 48 45 49 79 80 82 72 87 93 94 96 76 70 75 79 79 78 69 53 34 26 53 76 81 69 54 34 17 13 18 28 28 29 25 22 26
66 53 41 30 27 23 24 29 32 27 26 28 32 39 68 80 86 83 91 92 88 91 95 82 73 75 77 75 76 74 93 53 33 29 55 73 84 74 57 39 20 15 16 21 22 22 24 29 34
65 48 33 31 27 28 29 35 34 27 26 27 39 45 62 91 79 95 96 94 87 89 95 82 83 80 76 75 70 84 84 72 40 33 53 73 91 75 61 45 33 18 18 18 21 25 32 39 45
57 43 36 34 30 35 32 37 33 30 27 33 40 46 67 76 98 100 99 99 98 90 100 95 85 88 74 70 84 82 58 46 38 41 52 75 96 80 50 42 38 28 21 22 25 29 35 44 48
55 42 36 30 33 35 34 39 32 31 25 37 60 42 81 98 100 99 99 99 89 94 100 98 92 87 75 71 83 69 46 35 36 36 50 70 94 68 53 47 42 29 25 22 26 31 34 41 47
64 47 36 34 37 31 39 43 47 38 35 59 81 58 68 99 99 99 99 100 84 97 100 100 98 90 91 79 86 67 47 37 37 45 43 44 54 35 37 34 36 31 28 25 23 30 32 38 42
75 73 55 42 40 32 46 38 55 51 47 56 57 67 88 96 99 99 98 99 97 93 100 97 100 98 99 100 87 80 55 50 38 50 36 39 55 42 40 33 32 31 29 26 26 25 28 35 38
74 72 50 34 34 34 44 38 46 40 44 47 47 55 93 99 98 98 99 98 100 96 89 99 100 99 98 99 85 91 67 56 67 53 40 59 42 37 33 29 30 28 26 26 27 26 27 28 40
59 77 48 44 40 41 45 49 56 36 43 50 50 54 85 100 100 100 93 99 99 99 93 98 90 98 96 94 99 98 89 74 65 62 41 34 28 24 24 24 24 25 26 27 27 27 30 29 30
69 55 55 62 66 53 46 50 47 50 48 56 55 55 72 99 99 99 100 91 88 95 90 97 95 87 96 97 96 98 96 79 69 58 42 47 49 46 47 48 28 25 25 30 29 29 28 29 30
57 57 63 74 65 60 60 52 39 48 57 58 55 51 56 76 96 99 99 100 99 97 99 97 99 93 92 94 99 99 98 88 85 69 62 55 55 52 50 50 47 51 58 58 50 43 32 32 35
56 56 61 63 62 60 52 58 58 47 57 54 54 50 49 55 76 96 98 100 99 90 89 85 82 78 85 94 97 97 97 97 81 72 67 62 58 54 56 65 61 57 63 69 68 61 60 59 53
50 59 63 64 58 56 53 51 58 44 55 50 48 49 44 50 54 86 96 87 79 74 77 82 77 83 86 96 96 97 96 93 82 73 62 59 63 62 66 70 74 76 74 73 74 73 72 71 70
51 46 60 56 61 60 53 52 34 48 48 42 42 44 45 45 47 54 90 84 66 74 75 82 75 75 96 94 90 94 96 92 85 80 66 66 73 77 77 75 73 76 78 78 78 78 77 76 77
60 54 50 68 60 56 55 47 36 51 51 42 38 38 42 44 44 49 61 75 67 68 69 78 79 79 85 88 91 95 92 85 87 83 79 74 70 71 74 78 80 83 82 81 81 80 81 84 89
70 51 49 50 60 59 54 50 41 52 55 43 36 35 42 45 46 46 50 75 68 68 69 83 80 83 86 89 88 90 88 86 86 84 82 81 82 83 81 80 80 84 86 86 86 88 91 88 93
47 51 51 47 51 56 51 49 42 42 51 46 43 36 36 44 45 41 37 70 73 66 63 66 72 80 83 86 87 86 83 83 83 81 83 84 84 85 86 86 86 86 86 88 90 92 91 87 80
49 46 48 51 49 59 49 53 43 40 46 46 44 44 36 40 45 44 39 33 66 66 64 60 60 70 71 78 84 84 80 79 81 78 75 80 83 84 84 83 84 79 82 82 83 85 86 84 88
50 44 49 48 48 53 54 50 47 42 46 48 48 54 44 40 45 49 44 34 31 63 61 57 54 54 58 61 68 74 75 70 72 69 67 72 76 75 73 73 74 71 75 78 82 84 86 97 97
61 52 50 54 54 59 50 50 43 37 41 43 43 46 48 48 50 51 44 33 31 30 47 49 53 53 55 61 78 79 79 78 72 63 62 60 54 55 57 62 66 66 63 55 54 65 76 97 99
51 54 53 54 54 55 56 63 36 37 40 39 39 42 45 49 47 48 45 36 34 32 29 34 39 45 58 68 66 62 55 47 42 38 35 34 35 38 43 47 52 53 50 47 48 55 69 88 90
57 57 55 53 51 66 41 53 37 35 31 31 34 37 43 45 45 44 42 39 36 33 32 31 34 37 41 42 38 33 31 30 29 29 30 30 31 34 38 42 44 42 41 42 45 51 63 90 97
56 57 78 77 82 59 51 53 34 26 30 28 28 29 34 42 46 40 45 40 36 34 32 32 33 33 32 31 31 30 30 30 30 30 30 32 33 34 35 36 36 36 36 35 36 38 44 97 95
55 50 56 67 56 44 58 53 30 27 29 32 32 32 34 35 36 38 39 39 35 35 32 33 35 35 34 33 33 34 34 33 34 35 35 36 38 38 39 38 38 38 38 37 38 45 59 88 95
70 86 52 70 61 63 42 42 33 25 28 29 31 35 36 36 32 29 33 36 44 37 38 38 38 39 39 38 37 37 38 39 40 41 42 42 43 44 45 47 48 48 48 48 50 52 65 97 94
65 49 76 86 81 66 48 45 29 26 25 23 22 26 29 39 37 33 33 39 48 47 45 47 46 45 44 44 43 44 44 46 47 47 48 49 49 50 50 50 51 52 54 54 56 58 62 70 76
83 74 70 55 55 60 47 34 26 30 26 27 26 34 43 46 51 40 50 56 57 55 56 54 52 51 50 48 47 48 50 51 51 52 54 54 53 52 51 50 51 52 54 57 59 59 59 61 66
60 57 57 67 67 59 59 41 28 26 28 32 33 46 59 52 57 68 65 58 57 58 56 56 56 54 52 53 54 54 55 56 57 58 57 57 57 57 57 58 58 58 58 59 61 61 62 61 61

GFSSGP_850_rhum_087.txt.gz
RH
49 62 57 52 34 23 22 19 15 18 16 17 17 17 25 32 28 51 60 57 76 86 90 72 72 77 70 84 75 78 72 70 58 40 52 58 34 22 26 30 32 32 42 63 50 44 34 25 21
77 62 53 32 33 25 20 15 21 17 16 20 20 25 23 36 55 69 66 63 73 83 95 96 80 79 82 92 79 78 76 68 54 44 77 70 50 31 19 17 25 32 39 38 34 31 26 21 27
87 56 35 29 26 24 18 15 15 20 22 21 20 29 27 49 61 64 64 68 73 82 91 94 86 70 76 81 80 77 67 45 33 58 84 84 61 34 21 14 14 24 27 28 26 23 22 28 42
69 49 38 31 27 19 16 17 22 21 20 21 20 23 55 70 64 65 74 68 72 77 83 73 77 72 76 76 77 69 52 35 30 62 80 91 68 41 28 16 15 19 24 24 22 24 29 31 49
63 39 33 33 26 18 19 23 25 19 19 21 26 35 54 82 80 76 75 68 70 72 92 82 74 76 76 74 70 66 53 41 31 58 80 88 83 56 37 24 18 18 21 21 24 28 34 42 44
57 41 39 33 26 20 22 27 25 22 21 26 31 33 71 93 83 78 77 68 69 75 93 85 78 78 78 73 72 64 50 38 34 51 76 94 91 73 50 33 21 20 21 23 28 33 40 40 44
66 41 39 29 26 28 26 28 23 24 20 33 44 31 82 98 96 94 88 83 70 84 95 95 86 86 78 72 87 70 50 37 31 42 69 94 97 82 55 34 26 22 21 24 26 31 35 37 38
58 47 35 27 28 32 26 30 34 28 34 52 62 40 71 96 95 95 99 85 78 86 90 95 95 91 89 76 86 64 52 41 36 36 46 77 76 55 44 34 30 26 23 23 24 29 31 35 38
68 69 50 29 28 29 30 32 41 42 42 45 48 53 72 90 96 96 96 92 84 75 90 96 88 97 97 94 88 68 56 39 46 38 31 54 63 48 43 36 34 28 25 24 23 24 28 32 35
71 68 43 23 22 29 33 26 34 33 38 43 43 55 85 98 97 98 94 96 87 88 88 92 92 94 95 95 90 92 61 50 71 73 39 89 92 93 93 30 28 26 26 25 25 25 26 27 68
58 63 34 39 51 36 39 31 36 26 35 41 46 51 89 97 98 97 97 98 96 91 98 88 94 96 94 98 97 89 92 90 89 91 91 82 85 52 31 34 24 25 27 29 28 27 30 74 63
67 49 53 42 62 42 38 35 34 28 38 45 48 53 83 99 100 98 96 98 99 89 99 90 95 94 97 97 94 81 84 85 83 86 86 81 80 81 81 81 80 46 67 79 62 74 72 42 37
59 65 52 57 52 43 38 38 31 38 48 48 48 48 57 88 97 96 94 98 98 98 97 95 98 99 96 95 92 80 82 89 88 88 81 82 87 87 86 87 78 73 74 74 81 67 68 62 68
48 77 55 64 53 47 44 39 48 34 45 46 47 44 50 57 78 90 91 94 96 98 96 98 95 99 100 99 92 85 84 89 89 94 94 88 90 91 84 88 78 74 69 84 85 84 81 77 71
38 57 56 48 60 48 45 43 51 32 42 40 44 44 44 52 56 82 89 89 97 99 100 99 98 86 97 99 92 94 92 92 90 92 95 95 76 74 67 84 94 84 84 77 87 83 72 76 74
40 45 71 57 47 45 46 43 33 36 37 38 34 35 40 46 52 52 74 82 89 98 96 100 98 90 90 97 96 94 91 96 89 90 90 95 92 67 73 75 77 89 90 78 76 84 92 89 83
47 50 50 50 42 41 49 42 28 32 40 39 34 30 34 38 48 48 49 70 82 88 96 94 97 93 95 98 98 95 90 87 86 89 90 96 97 91 78 95 96 97 96 93 81 79 82 90 93
54 39 32 38 48 45 50 44 28 36 44 40 34 30 29 33 43 47 50 55 85 89 97 84 96 99 99 92 90 87 98 97 91 91 94 94 97 98 95 97 97 98 98 90 90 90 90 89 94
30 34 29 27 35 48 46 40 35 31 38 41 35 30 27 29 37 47 45 49 66 93 95 98 96 85 95 93 95 94 94 96 95 98 100 99 100 99 98 97 98 98 98 98 97 98 96 94 99
42 35 37 38 38 42 36 37 31 29 30 33 35 32 29 27 32 46 44 37 51 70 74 87 78 82 84 96 97 95 92 97 92 93 91 89 93 94 87 89 92 96 89 83 84 94 97 94 89
41 38 47 42 41 41 40 44 36 29 30 32 35 35 36 36 28 37 42 36 35 50 73 65 65 69 76 84 98 86 78 80 90 93 90 88 81 84 86 83 85 86 91 79 78 95 100 100 100
47 34 33 40 48 50 39 38 23 24 29 30 33 34 34 41 36 33 44 42 35 36 55 64 67 64 64 65 58 55 59 72 79 88 86 54 57 63 58 58 59 64 70 72 71 86 99 100 96
42 42 43 45 47 47 47 53 31 24 30 28 28 31 32 37 43 38 46 42 39 34 32 43 59 60 53 57 58 50 51 66 68 54 64 47 36 34 33 34 36 42 47 55 61 60 64 77 99
47 47 44 47 52 87 44 46 35 26 28 24 22 26 29 33 40 44 46 44 44 36 35 31 31 40 47 52 56 64 71 63 52 40 33 31 30 29 30 31 33 38 43 46 45 45 48 73 98
47 47 73 77 85 64 33 34 33 21 20 21 22 23 27 30 35 42 44 45 46 41 36 33 32 30 34 41 48 51 43 35 31 30 31 31 31 30 29 31 33 35 36 38 39 40 42 44 85
48 46 54 59 47 39 42 44 30 19 20 18 24 27 29 30 34 41 44 43 45 40 37 35 34 31 33 36 36 34 32 34 33 32 32 32 34 34 34 35 36 36 37 36 38 41 42 46 83
56 67 39 58 47 49 35 32 23 20 23 26 26 28 30 30 32 39 42 43 51 51 40 36 34 36 36 39 39 37 35 35 34 34 36 38 40 41 43 44 45 45 46 48 50 53 53 57 77
75 46 71 75 69 53 28 34 27 21 21 20 20 22 24 27 32 35 36 48 54 56 50 46 47 44 39 40 41 41 41 40 40 43 45 45 44 46 48 50 51 51 51 52 55 57 58 63 71
68 70 61 52 40 49 35 31 22 22 21 25 24 32 37 38 37 38 46 55 59 60 58 44 49 42 45 46 44 43 43 44 47 48 49 51 52 52 51 51 51 50 50 51 54 59 60 63 63
54 53 50 65 59 51 49 44 21 23 23 26 31 40 47 52 51 52 53 67 61 59 55 58 53 52 52 50 47 47 48 49 50 51 52 54 55 54 54 53 53 53 53 55 59 60 63 66 68

GFSSGP_850_rhum_090.txt.gz
RH
49 41 56 56 61 46 37 28 20 20 18 18 18 26 43 53 61 77 58 67 74 52 52 64 74 82 80 84 90 96 90 63 39 45 36 22 31 43 52 57 58 42 58 35 36 28 20 23 29
52 68 55 49 50 42 32 20 22 19 19 20 21 27 38 62 62 58 60 70 70 47 54 64 78 78 81 90 86 78 67 53 46 80 57 33 20 18 21 21 26 35 36 30 27 22 21 28 47
70 64 48 54 43 41 27 20 22 20 22 21 22 31 42 58 61 61 66 80 85 58 57 65 77 81 84 96 75 62 48 38 56 82 74 43 25 16 14 19 23 27 25 23 20 21 29 44 59
68 61 50 41 41 30 23 17 17 23 21 20 22 56 68 67 60 64 68 75 85 76 73 72 83 80 78 86 71 51 30 29 61 82 74 60 36 22 15 18 21 22 21 19 23 25 31 44 53
72 50 56 47 37 24 21 25 23 23 20 22 22 60 77 76 75 69 68 73 81 89 81 74 81 82 79 80 66 40 28 30 58 77 82 61 49 32 18 17 20 21 20 22 27 32 34 40 49
75 57 52 48 37 24 27 27 25 24 19 26 28 68 89 80 74 70 67 70 76 83 88 73 78 82 81 75 62 39 36 32 54 73 89 72 55 35 27 20 20 21 22 24 27 31 34 34 38
77 68 58 41 34 28 29 25 24 23 21 40 49 70 94 84 77 70 67 68 72 82 78 75 84 84 82 74 74 42 35 32 46 71 94 92 42 37 33 27 22 22 22 25 26 30 34 33 36
74 73 60 40 32 35 28 28 30 35 38 52 55 72 91 84 82 79 72 71 74 85 74 80 82 87 84 83 81 54 38 33 37 54 68 78 34 34 29 30 25 22 21 22 25 27 29 31 34
72 83 70 52 38 36 28 38 39 40 44 45 50 72 88 86 88 83 79 83 87 81 74 87 87 88 89 89 90 63 46 33 31 37 52 68 53 36 32 28 26 25 23 23 23 23 26 29 32
73 82 60 40 50 40 30 33 35 40 45 42 56 81 96 87 93 84 78 78 91 76 78 81 81 80 94 89 89 70 60 39 32 32 49 64 68 46 36 30 25 24 23 23 24 24 24 25 33
73 73 48 38 52 50 37 29 31 36 46 42 49 80 94 90 91 90 80 77 94 82 81 85 82 86 90 90 90 84 68 55 56 42 70 89 91 78 46 32 27 25 25 25 29 28 29 34 44
90 64 54 53 56 55 50 35 35 30 43 46 51 70 89 94 88 89 87 84 87 86 82 87 87 86 88 94 81 89 79 89 92 90 78 84 83 63 46 50 46 32 36 32 38 36 44 40 33
78 70 60 64 59 58 55 47 35 46 45 46 48 64 82 87 87 92 93 86 81 86 94 85 85 86 82 86 83 82 83 82 83 87 87 82 74 76 80 76 72 53 58 60 64 55 51 49 48
71 71 79 71 57 52 48 46 41 45 46 47 44 50 61 84 85 91 95 92 97 84 84 79 88 93 91 85 80 84 82 83 88 85 76 81 87 87 86 80 78 64 57 60 63 73 71 63 63
68 77 76 86 64 49 47 50 52 41 44 44 45 44 51 56 80 80 85 88 92 89 91 92 90 100 96 90 90 82 84 82 87 92 86 80 86 87 84 73 82 71 69 63 75 76 72 67 69
65 80 87 69 54 57 52 60 45 38 41 41 40 42 43 51 55 79 82 82 79 82 90 98 98 98 99 97 92 85 81 82 84 90 90 92 83 78 72 70 86 88 82 73 69 67 67 69 74
52 76 85 77 73 56 58 52 33 36 36 39 37 34 38 42 49 51 74 81 79 88 84 96 99 99 99 96 89 92 84 84 82 84 87 92 87 89 80 83 84 86 84 77 72 72 75 76 82
62 50 47 62 68 57 72 56 40 30 37 37 38 36 32 36 43 48 50 66 81 82 83 89 93 93 87 95 92 92 88 82 88 83 89 87 90 92 90 86 94 100 99 90 86 88 89 92 91
38 42 40 41 52 63 50 48 45 34 42 42 39 37 33 30 36 44 44 53 67 79 88 80 86 89 94 92 91 93 90 87 83 85 90 95 92 94 96 92 100 97 97 96 98 99 100 99 95
47 40 40 50 51 61 47 48 39 34 34 41 40 37 34 30 30 43 43 46 54 62 82 88 80 78 83 86 80 80 78 85 81 83 88 88 88 97 96 100 100 100 99 100 98 98 100 99 100
50 50 49 52 44 41 44 51 40 32 28 29 33 34 34 32 30 44 41 42 46 51 63 74 79 75 70 80 84 78 76 78 79 76 80 83 89 90 87 96 96 96 100 99 100 100 98 98 94
56 37 54 56 52 66 45 70 41 36 35 32 30 31 34 34 32 40 43 41 42 48 50 63 67 69 69 72 73 72 67 64 67 69 72 65 57 66 64 71 77 77 74 72 89 99 99 99 97
49 40 51 56 52 55 54 68 48 29 39 34 32 30 32 34 34 36 44 40 38 38 47 56 63 69 68 70 65 67 60 68 60 58 54 53 59 50 39 39 37 38 39 40 44 53 71 95 99
45 50 44 47 56 96 66 61 54 37 29 28 28 29 30 32 33 38 44 45 39 36 36 41 63 67 68 65 63 58 56 63 52 57 64 54 46 35 29 30 31 32 34 36 40 45 48 48 67
56 63 90 93 91 91 40 54 47 30 23 23 26 25 26 28 30 37 46 48 40 39 36 35 34 37 46 61 65 52 65 68 74 64 49 35 32 29 28 29 29 31 33 35 38 40 40 41 41
63 63 82 73 75 60 39 59 40 22 22 23 22 24 27 28 31 36 44 46 44 43 40 39 35 34 38 40 41 49 57 56 47 36 31 31 31 30 30 32 34 35 37 38 40 40 43 45 50
65 75 51 90 61 70 56 40 29 24 25 26 26 27 29 29 28 38 39 45 45 43 41 40 38 36 37 40 39 35 35 35 33 32 33 34 33 36 38 40 41 42 44 46 48 51 53 50 54
78 60 76 92 90 62 38 34 39 25 27 30 27 28 28 30 31 32 41 46 47 45 47 45 42 36 41 45 41 38 35 34 34 35 37 35 35 38 42 44 47 49 49 49 50 53 55 54 57
87 97 90 64 62 74 60 46 29 28 33 33 38 38 40 38 32 34 37 39 53 54 55 52 51 44 39 42 46 36 36 41 45 41 37 38 42 45 46 47 49 48 47 48 49 50 52 57 59
56 69 81 97 74 67 79 63 23 30 30 28 39 44 47 44 46 44 41 42 50 58 64 59 61 66 56 49 47 46 50 45 41 40 44 47 48 49 51 52 51 50 50 50 52 56 58 64 64

GFSSGP_850_rhum_093.txt.gz
RH
63 46 61 55 54 65 51 34 23 23 22 22 25 47 79 73 65 65 84 67 77 64 58 65 69 75 81 85 96 98 47 40 33 20 48 84 91 91 91 91 73 35 33 29 20 17 24 44 64
58 67 70 55 64 55 44 30 22 23 22 22 27 63 70 80 61 80 87 85 81 58 60 66 77 80 83 86 90 93 44 68 40 24 17 28 39 46 45 36 28 26 24 19 16 23 38 59 67
56 79 57 70 52 60 38 24 24 25 20 22 31 48 71 67 64 73 77 87 69 55 61 75 80 83 86 84 69 61 41 68 70 35 20 13 13 18 19 24 22 20 18 17 21 36 52 59 67
61 72 60 56 60 41 30 29 22 24 20 21 48 75 76 79 67 65 82 74 55 58 67 84 78 84 86 76 55 38 38 62 79 45 24 15 13 15 18 19 19 18 19 22 27 39 47 58 61
71 70 81 70 50 33 25 27 25 24 22 22 34 72 67 71 72 75 80 78 58 63 68 81 82 82 83 68 43 27 36 60 73 52 31 22 16 16 18 18 18 20 24 27 29 32 39 44 50
77 67 67 72 51 33 28 22 26 25 23 35 66 74 70 80 75 79 79 82 55 70 72 82 81 80 79 62 34 28 34 56 68 76 45 28 21 18 18 19 20 22 26 29 30 28 33 33 37
93 85 78 55 48 36 31 22 26 28 40 58 56 88 86 76 74 77 74 76 74 77 71 80 85 86 79 77 42 35 33 58 71 87 51 28 25 22 20 20 21 23 25 27 28 28 31 32 34
72 84 70 59 47 46 30 35 35 37 49 49 61 97 88 74 76 73 77 77 84 90 72 76 85 89 78 83 56 41 35 50 69 86 44 26 25 24 22 21 21 22 24 25 26 27 28 30 32
74 89 84 65 50 48 36 40 37 44 49 52 71 79 73 74 77 79 89 90 86 84 71 76 84 86 78 83 55 48 38 40 58 64 62 35 30 24 24 23 23 23 22 23 23 24 26 28 30
89 89 73 59 57 41 39 35 40 45 48 83 86 83 81 79 72 90 95 94 88 84 73 76 80 84 82 78 59 50 37 36 41 50 57 52 41 34 28 26 23 23 23 22 23 23 24 24 30
82 81 66 74 63 38 42 35 38 46 50 53 97 88 87 82 74 86 92 94 84 78 70 76 80 78 78 82 71 51 42 38 38 46 67 65 55 54 43 31 27 24 25 24 24 24 25 29 29
84 73 76 74 65 47 58 44 35 42 47 50 64 78 86 86 78 80 86 89 84 88 78 82 82 81 85 86 77 61 57 46 47 57 80 75 72 70 50 42 43 35 30 32 32 35 37 34 31
86 70 74 88 73 66 54 64 55 49 47 51 60 87 88 83 82 74 83 93 90 84 77 78 80 80 85 85 82 78 85 63 71 75 77 79 84 68 54 56 53 48 38 40 46 50 46 46 46
82 79 77 80 79 81 61 65 74 49 46 50 67 78 88 85 80 80 75 77 84 90 83 82 80 81 81 83 84 85 83 82 79 83 88 87 80 70 68 73 68 58 50 55 58 62 65 58 56
70 84 76 66 84 80 68 76 78 48 44 45 52 61 75 86 84 80 80 76 77 77 86 88 87 85 82 82 81 82 80 78 83 83 82 78 82 86 82 81 70 67 60 59 62 69 69 68 64
82 76 85 76 80 72 85 78 73 49 46 45 45 51 52 67 84 86 80 83 85 81 80 81 86 87 95 89 81 81 80 82 81 83 90 82 77 82 82 73 65 78 76 72 70 70 71 70 68
69 95 88 80 81 81 72 76 54 43 44 44 45 44 48 47 51 70 83 86 85 84 84 85 84 88 97 100 84 82 82 82 80 84 84 84 81 78 74 64 74 84 85 80 77 76 76 78 78
74 78 85 83 78 76 84 76 55 42 41 42 41 41 44 49 42 41 58 84 83 80 79 81 90 96 99 100 97 86 86 80 81 81 79 80 82 86 83 83 87 97 98 94 89 88 90 89 88
51 51 54 61 68 71 78 70 55 42 42 42 40 39 37 40 42 41 36 49 81 80 80 83 83 76 95 94 99 94 83 83 83 84 87 85 87 80 81 81 89 99 99 98 97 98 97 92 97
48 48 53 68 64 71 73 71 53 46 45 42 40 39 38 34 38 47 41 41 59 80 85 82 84 78 80 82 78 96 83 84 80 84 83 83 87 85 95 99 99 99 99 95 98 99 96 94 95
51 56 53 71 63 68 73 76 52 42 38 39 38 32 34 36 34 44 46 42 42 50 69 76 76 75 78 80 84 88 90 91 85 83 82 82 82 84 84 87 88 100 99 99 98 98 98 98 95
63 49 55 61 71 84 52 81 55 42 43 38 40 40 36 34 35 38 43 44 42 36 45 61 64 64 72 76 79 78 74 74 75 76 78 77 72 73 67 56 59 55 68 96 98 98 94 97 98
54 52 59 68 59 64 58 76 66 41 45 39 38 33 37 33 32 39 42 42 42 42 46 61 73 75 67 74 70 73 76 75 73 68 69 65 53 47 48 48 50 65 56 42 42 48 63 96 96
48 54 56 56 67 91 72 76 73 48 37 40 36 30 29 31 31 32 36 37 43 42 44 59 73 77 83 69 67 70 68 72 72 64 65 64 55 52 46 49 41 34 34 31 31 35 40 47 58
55 69 95 94 95 88 60 75 60 43 35 30 36 33 31 30 31 33 35 36 46 41 39 47 55 71 75 76 73 71 71 67 65 59 62 62 67 68 45 32 30 30 28 28 30 32 35 37 40
73 75 88 81 95 73 51 68 48 35 28 26 26 26 28 31 32 34 34 44 45 42 37 37 37 42 56 70 73 67 73 64 64 74 71 68 47 32 30 30 30 30 30 32 33 36 38 39 41
68 81 57 86 78 84 64 49 36 31 28 29 28 29 28 28 28 34 38 43 47 45 39 36 36 36 36 38 51 71 74 65 68 68 53 42 34 34 34 33 32 34 37 37 38 42 44 45 45
72 65 76 97 94 78 54 48 46 28 31 34 40 36 32 32 31 38 46 48 46 45 44 44 44 39 38 39 41 46 50 50 44 37 35 35 36 38 39 36 39 44 40 42 44 44 45 45 47
91 93 84 76 74 74 60 49 33 35 40 47 49 43 37 32 30 31 34 43 48 48 46 46 43 41 40 46 45 50 48 44 40 40 41 42 42 39 36 46 48 44 45 46 46 47 48 48 48
65 83 80 92 84 78 80 62 33 37 42 46 47 39 35 34 37 37 37 38 39 50 51 51 49 49 55 50 54 61 60 47 43 44 46 40 39 42 51 51 47 50 50 50 50 52 52 55 56

GFSSGP_850_rhum_096.txt.gz
RH
79 77 54 64 61 68 56 45 26 40 30 24 38 51 68 73 68 69 98 86 76 72 77 69 71 71 84 84 72 42 28 23 88 90 92 95 91 92 94 74 62 42 28 16 19 31 46 57 68
77 72 73 64 60 64 54 33 25 53 24 50 53 62 68 73 72 91 99 81 68 69 83 70 71 79 82 88 85 65 37 21 52 87 86 88 85 86 82 54 22 23 17 18 29 46 48 59 78
74 69 73 78 74 44 38 27 26 29 24 32 52 58 61 74 81 90 89 90 70 65 73 70 75 81 84 91 85 61 63 29 17 32 56 60 56 45 25 19 18 16 16 25 39 48 49 60 85
88 75 73 73 65 44 28 30 22 29 33 34 62 85 69 74 79 84 92 89 65 66 73 76 81 83 86 81 74 52 80 35 19 13 12 14 15 16 17 17 17 17 21 30 40 47 52 53 56
87 83 83 83 62 39 31 28 23 26 27 36 42 80 75 69 68 71 89 90 60 67 80 80 87 86 86 62 44 47 89 48 24 15 13 14 15 16 16 18 19 21 23 28 34 42 45 46 48
90 75 84 85 61 37 27 26 26 24 41 53 60 68 80 74 76 87 81 80 61 74 82 84 89 85 74 45 33 47 78 76 39 22 17 16 18 18 18 19 21 23 25 28 32 37 38 38 47
99 88 67 70 56 40 32 24 29 36 56 62 58 66 92 69 75 87 84 67 67 79 82 86 84 82 61 34 31 44 59 88 63 37 24 19 18 19 19 21 22 23 24 27 29 32 33 34 37
88 77 75 57 52 43 32 36 38 46 52 65 61 92 97 74 80 72 90 73 69 80 85 85 85 82 64 40 32 37 60 77 83 55 32 26 22 20 21 22 23 24 25 26 28 30 32 34 37
87 90 84 66 50 42 39 39 44 47 52 64 74 72 73 74 71 73 93 80 80 83 86 86 88 81 74 48 36 34 50 65 79 48 31 30 27 25 24 23 23 23 23 24 27 29 30 32 33
96 87 75 65 58 42 39 38 44 52 73 94 90 81 80 77 80 82 93 92 99 90 79 82 84 80 73 53 39 33 36 52 51 51 34 35 34 32 30 27 26 25 25 24 24 24 26 29 33
86 84 78 84 82 61 40 44 42 51 53 86 88 76 87 78 71 73 68 86 99 84 78 84 80 78 71 60 43 34 33 37 45 46 43 38 37 38 35 30 26 26 25 25 26 25 25 31 38
92 81 80 91 87 70 63 43 49 45 48 50 73 70 80 82 78 76 75 85 89 85 80 80 79 77 74 68 51 41 30 33 36 38 43 47 51 54 49 35 34 29 30 29 36 36 40 38 34
90 92 85 91 80 75 63 73 62 52 53 61 70 78 76 84 88 78 70 77 83 79 84 80 77 76 70 70 67 54 44 36 37 47 52 56 61 56 51 45 51 50 41 42 49 51 46 46 45
89 95 82 86 88 80 66 72 52 53 62 68 80 83 84 75 85 92 82 81 82 80 82 83 81 75 77 59 65 62 63 61 60 59 63 62 63 65 59 59 55 57 50 50 54 60 63 60 55
86 88 85 79 93 86 84 64 65 54 53 72 68 87 90 84 84 83 86 94 89 85 84 79 79 79 78 80 69 75 68 73 72 69 68 70 72 69 67 68 62 60 59 58 61 62 65 68 67
84 81 95 87 89 86 78 76 64 60 59 57 64 66 86 89 82 82 82 83 88 85 88 85 84 81 79 78 80 83 83 79 79 80 82 82 78 70 70 75 72 70 71 71 68 68 71 72 71
75 98 90 86 86 88 78 85 59 61 64 56 53 56 57 70 85 82 77 78 80 80 81 90 91 88 86 83 82 79 84 79 79 78 82 81 86 84 81 82 79 72 80 78 78 78 76 76 76
84 94 85 79 88 86 90 82 73 59 67 52 49 48 50 51 48 68 75 77 75 79 83 77 77 83 91 92 90 84 81 78 79 79 80 81 83 80 84 85 76 80 89 91 89 89 90 92 92
57 76 75 67 70 76 76 81 75 74 68 49 46 47 47 49 42 42 55 69 73 81 82 84 82 83 90 93 94 92 82 79 83 85 81 76 76 80 78 80 86 97 96 95 96 95 94 92 87
56 59 63 67 64 71 66 66 60 70 62 48 44 45 43 41 43 43 44 62 60 68 77 80 80 78 82 90 95 98 92 82 78 81 78 82 83 84 76 79 90 92 94 94 93 88 91 92 90
56 57 67 71 76 72 72 74 67 56 50 46 42 41 39 38 38 38 42 44 58 53 53 64 70 74 77 78 75 87 91 94 83 80 87 85 83 81 83 79 77 74 80 79 85 89 92 91 93
64 52 51 69 80 94 72 90 58 56 47 46 41 39 40 37 33 34 37 39 42 57 61 57 55 59 66 72 73 72 72 71 82 83 83 82 83 83 82 76 73 71 64 48 54 59 96 99 99
57 52 62 70 68 63 71 72 68 52 52 43 42 37 34 35 32 31 35 36 41 43 57 76 78 76 74 77 74 70 69 71 79 84 83 82 83 81 74 75 60 49 49 59 48 64 74 75 78
48 61 64 80 89 94 68 71 70 61 45 37 36 34 31 32 34 34 34 33 42 46 48 72 72 80 82 83 80 74 69 70 71 76 81 81 78 71 66 54 62 53 52 57 45 35 35 39 44
59 89 99 98 98 92 67 81 62 47 43 34 34 30 30 29 30 35 34 34 36 39 42 44 55 75 69 67 65 69 71 73 73 71 73 70 67 68 62 66 59 50 41 31 28 28 32 33 34
73 91 92 83 92 78 65 84 56 40 34 32 27 30 29 29 29 33 34 32 34 35 36 43 43 51 68 70 66 69 67 69 71 72 73 76 72 69 74 73 50 32 32 28 29 32 36 36 36
74 87 60 83 80 87 63 52 39 35 30 33 33 32 32 32 32 30 31 34 36 35 42 44 41 42 46 62 73 70 72 68 69 71 71 72 68 66 66 43 33 33 31 31 33 35 40 44 46
68 64 89 98 97 85 63 62 48 32 38 36 41 38 34 31 30 31 32 33 38 43 45 42 38 38 39 42 49 61 70 84 87 83 73 70 65 55 40 34 40 41 39 38 40 40 44 46 47
86 92 81 71 68 82 61 54 36 36 35 44 47 40 35 32 33 40 48 47 48 47 46 44 41 40 41 39 40 45 54 58 60 59 53 44 41 41 44 45 42 41 42 43 42 45 48 46 47
80 77 70 83 83 78 77 56 37 41 47 50 52 42 38 35 32 31 35 39 44 50 50 50 49 48 46 42 42 43 45 46 44 43 45 47 46 45 46 47 48 47 43 45 49 51 51 52 53

GFSSGP_850_rhum_099.txt.gz
RH
88 88 83 77 74 73 68 56 32 49 50 31 37 53 55 58 54 63 96 95 73 69 74 76 67 76 84 69 27 22 88 94 95 95 89 91 95 94 83 74 60 27 15 14 22 38 49 50 53
80 82 90 80 68 78 66 37 37 48 34 55 59 67 64 76 75 99 98 92 74 71 74 74 71 83 82 60 27 22 87 89 92 91 94 94 90 82 74 42 26 16 15 23 39 42 49 57 65
85 87 81 94 88 54 44 34 29 36 41 39 56 64 69 93 86 98 99 94 76 71 72 73 78 84 80 46 35 21 61 86 82 82 86 83 80 70 30 19 15 14 22 37 38 39 48 49 60
92 98 88 87 77 52 29 24 26 45 37 41 42 83 79 95 93 82 94 91 73 72 71 75 77 80 85 65 68 32 20 69 84 82 81 76 55 20 16 14 15 21 28 36 37 38 44 44 48
98 93 85 84 65 44 34 28 32 49 52 46 65 80 95 90 84 75 87 86 73 78 73 78 79 81 81 68 85 67 27 16 20 22 20 16 16 16 16 17 20 24 26 29 33 40 46 54 50
100 97 86 81 67 41 30 26 27 40 49 52 61 76 94 81 81 85 84 87 72 73 79 83 82 82 80 59 81 78 39 19 13 13 16 16 17 18 19 21 23 26 28 30 34 40 45 50 46
86 94 90 64 63 47 34 26 30 49 46 50 47 87 99 100 97 86 89 86 75 79 80 88 86 83 62 42 64 88 51 28 19 16 18 18 19 20 21 24 26 28 31 32 33 37 42 47 54
96 98 76 67 56 48 33 40 34 52 58 61 61 96 96 84 84 85 98 80 77 84 84 92 90 83 52 34 51 84 74 42 27 20 18 19 20 20 22 24 27 29 30 32 34 34 36 38 45
94 97 71 69 47 42 38 44 48 49 61 72 65 80 74 71 72 86 93 82 86 88 90 91 93 81 45 35 44 67 85 70 49 26 22 19 20 21 23 24 26 29 29 30 33 35 38 40 41
98 95 68 86 72 47 44 44 51 59 78 94 92 80 79 83 57 67 76 88 89 90 93 94 93 80 50 42 36 57 65 65 41 29 24 24 24 23 23 24 24 24 25 26 28 30 32 36 38
97 89 84 92 82 65 44 49 48 62 61 76 94 100 99 80 68 58 56 89 86 83 92 93 92 81 60 43 36 42 54 58 45 30 29 27 26 29 28 27 26 26 26 26 26 26 27 31 42
98 93 89 92 82 68 68 47 53 47 47 53 80 59 81 76 63 54 48 85 95 73 78 87 94 79 69 44 35 34 41 49 46 38 32 30 31 32 35 31 28 27 27 28 33 33 36 41 40
94 89 88 89 78 79 60 73 57 67 62 62 67 72 77 82 61 67 60 70 62 90 82 83 88 83 67 53 40 34 34 36 39 40 40 39 44 46 46 38 42 44 39 39 43 48 47 48 47
89 96 84 86 84 86 82 66 54 61 81 73 74 75 76 65 72 67 56 53 60 74 86 83 84 82 73 63 48 37 32 35 33 35 40 48 56 60 53 53 56 57 54 50 52 58 60 60 58
91 92 78 82 84 82 87 66 76 66 87 80 66 68 70 67 67 70 74 66 63 64 76 78 84 84 75 63 61 46 43 41 38 40 44 48 54 58 61 62 63 67 65 61 58 60 64 68 68
90 91 98 82 81 76 77 83 69 66 60 76 85 70 64 68 72 72 70 69 78 82 73 67 78 77 77 72 68 62 65 68 68 70 70 68 69 69 65 67 72 76 71 70 71 70 70 71 73
82 98 100 88 85 81 83 85 67 64 61 57 56 74 64 61 68 86 75 72 72 73 78 76 80 84 84 84 83 68 69 70 71 76 79 80 78 80 81 77 79 81 76 79 83 83 81 77 78
97 93 91 93 87 87 83 83 78 67 64 62 54 51 66 66 71 71 77 81 78 81 80 79 76 80 86 79 84 87 89 89 83 80 78 79 79 81 83 84 86 86 78 85 88 86 88 93 89
70 78 79 78 79 86 86 86 80 74 66 62 54 49 47 54 44 58 71 83 82 82 82 79 77 79 85 91 90 87 85 86 86 84 78 79 78 75 74 80 85 83 78 84 84 88 91 86 81
60 74 70 68 75 75 86 85 79 81 73 60 55 52 44 46 45 44 50 60 67 77 82 84 81 79 78 78 84 89 87 85 86 83 78 76 78 78 77 77 78 83 80 79 81 83 88 85 87
60 63 67 71 79 74 78 81 76 69 66 59 59 53 47 43 42 42 44 44 47 58 69 73 78 80 79 79 85 84 91 92 91 86 81 78 74 78 81 78 78 78 91 78 67 72 53 47 53
64 54 54 84 86 94 69 77 62 64 68 62 59 52 44 43 43 40 38 38 40 40 41 49 63 63 68 78 82 84 78 80 74 79 79 80 84 82 81 80 81 77 70 75 74 54 51 58 56
59 57 62 82 72 73 90 81 66 54 68 57 53 49 43 38 41 40 39 37 34 36 39 48 51 50 61 65 72 69 81 76 72 71 74 77 84 84 85 83 83 78 79 82 70 65 63 59 45
51 69 83 90 84 95 77 80 72 67 51 46 44 40 37 33 33 35 37 32 34 34 40 48 60 66 64 65 66 69 69 72 74 73 75 78 78 80 83 84 85 81 69 62 67 61 61 53 36
69 83 98 98 98 92 70 82 71 49 46 41 38 32 28 29 31 31 33 34 32 35 38 47 54 63 73 70 74 75 73 72 74 74 72 72 72 72 74 85 87 63 64 66 57 51 40 37 28
82 92 93 89 95 94 72 86 66 40 36 37 31 28 28 27 28 28 29 30 33 34 35 43 45 45 53 58 64 64 65 68 73 74 72 72 74 74 75 77 76 86 70 56 38 31 33 34 33
80 93 81 98 81 90 81 57 41 36 36 33 35 35 34 32 32 30 29 29 34 34 35 36 36 39 44 48 58 67 69 66 67 72 71 71 76 82 77 83 78 74 62 54 35 36 36 40 42
73 72 91 98 96 92 72 63 51 33 35 36 42 37 33 32 34 32 30 29 30 34 35 37 41 45 46 48 50 52 64 74 75 76 76 76 78 82 75 69 66 65 48 41 40 38 40 43 45
90 89 78 78 86 91 72 56 46 41 31 39 42 38 36 34 32 32 34 33 34 37 37 40 46 45 42 41 40 40 41 49 67 81 86 87 82 78 66 49 40 42 45 49 47 45 45 46 48
86 78 75 87 90 80 80 65 40 49 47 39 45 44 38 34 32 34 39 47 48 48 46 47 46 43 42 42 43 43 44 48 55 60 64 58 47 41 43 46 50 56 53 55 59 61 53 50 51

GFSSGP_850_rhum_102.txt.gz
RH
94 87 82 78 95 86 89 64 45 57 66 42 37 51 55 52 54 61 94 84 68 73 82 81 67 60 63 31 26 87 91 86 63 72 76 78 87 89 75 67 39 18 13 20 30 42 42 49 62
99 95 89 86 95 97 85 48 51 46 42 40 46 62 64 66 82 96 98 90 66 72 81 75 82 72 66 27 28 90 92 90 83 77 81 87 90 78 65 41 19 12 19 31 35 42 49 46 51
100 96 93 98 80 80 57 44 38 41 49 52 66 67 72 89 96 95 95 89 68 74 72 76 79 78 64 23 30 88 96 94 93 94 96 94 84 68 27 18 12 18 30 31 33 36 44 47 47
100 100 100 97 80 58 39 33 28 49 50 58 65 80 88 97 98 97 100 88 71 76 71 82 80 76 56 26 29 80 92 93 94 94 82 72 67 22 17 14 18 29 33 33 32 36 39 46 46
89 100 98 93 74 50 33 28 28 41 49 50 57 81 97 99 99 100 93 86 75 74 75 83 81 74 42 34 21 61 82 85 83 83 80 62 26 17 14 18 25 34 37 38 38 41 37 49 49
98 92 97 97 73 50 35 27 43 43 39 35 51 77 94 96 94 97 93 86 78 72 82 83 81 71 51 66 35 22 61 79 77 61 35 18 16 16 18 23 29 34 38 41 48 48 48 51 50
94 94 98 93 64 49 36 27 53 52 44 41 49 90 99 100 99 100 92 85 83 77 86 86 83 76 64 84 64 27 16 16 15 16 16 16 18 19 21 25 29 32 36 42 47 46 51 50 53
86 99 84 91 61 50 36 33 42 51 51 50 56 82 99 99 100 100 93 84 84 81 87 89 83 80 68 89 81 40 20 15 16 18 18 19 20 21 22 24 27 31 34 37 41 44 45 44 42
81 95 92 86 68 41 41 51 52 48 56 66 63 55 70 93 99 99 96 91 83 88 89 94 84 79 58 65 90 62 36 22 18 20 20 20 20 22 24 26 28 30 32 34 37 38 38 40 40
86 96 85 60 71 50 42 47 59 68 84 79 91 75 73 84 92 97 98 90 90 92 93 95 91 82 50 47 90 93 64 39 25 20 20 21 22 23 24 26 28 29 31 32 33 33 35 37 39
93 95 77 68 89 73 46 54 54 74 82 66 67 97 79 68 70 78 76 76 86 88 94 92 86 79 47 42 66 87 94 58 38 28 23 22 22 23 24 24 24 25 26 26 26 27 29 31 38
83 80 91 82 90 70 54 50 57 51 57 59 53 70 97 90 67 45 62 80 62 84 87 88 86 78 50 44 45 64 83 64 44 33 29 26 26 27 28 28 26 26 27 27 29 29 29 34 41
89 87 90 99 92 77 62 65 63 74 86 67 63 70 76 94 83 69 88 80 70 68 88 82 80 78 70 52 42 47 61 63 49 38 33 32 32 32 35 32 31 28 32 34 40 42 46 47 46
92 89 88 95 89 84 71 68 56 71 99 67 64 57 54 62 72 76 86 65 40 65 92 91 85 78 71 56 50 39 42 54 55 50 39 37 39 42 45 38 42 48 49 45 48 55 56 54 55
88 85 86 89 83 81 84 81 89 71 88 75 62 73 83 69 71 66 60 49 39 38 83 91 78 81 78 67 56 48 38 40 46 47 47 49 55 59 58 51 53 60 62 54 53 55 59 64 66
86 92 100 84 83 77 70 96 76 70 74 74 79 63 64 69 64 65 60 52 51 46 53 68 95 78 76 75 71 58 51 40 43 40 48 59 63 66 68 64 65 70 72 68 63 65 66 68 70
87 99 100 94 82 78 77 90 76 71 65 61 62 75 61 70 72 77 63 59 54 59 57 58 65 84 79 83 74 71 65 56 53 55 64 70 73 75 74 74 74 80 81 75 77 75 74 77 78
96 96 94 97 86 74 81 84 72 68 76 69 59 54 71 63 72 76 76 70 63 60 55 60 71 83 88 86 81 75 76 76 76 79 82 83 81 79 81 82 79 84 87 79 79 80 86 88 88
76 84 88 86 85 81 84 77 71 72 70 74 62 53 48 62 68 62 71 80 79 76 69 70 72 60 70 86 80 76 63 84 88 86 82 83 81 79 79 78 79 82 82 77 76 79 79 85 84
72 82 83 85 85 80 86 74 67 70 75 68 65 57 48 44 49 58 64 70 81 78 80 81 85 81 80 83 66 74 71 76 83 81 81 79 83 81 78 76 78 72 71 75 82 82 81 74 82
61 70 70 83 88 78 88 87 83 75 69 62 58 55 50 44 42 46 51 61 68 73 73 76 84 87 86 84 82 78 84 86 87 87 83 82 82 83 77 76 82 78 73 86 91 93 76 74 73
65 56 58 88 86 91 73 72 83 74 74 69 62 52 46 42 40 40 44 46 52 54 60 69 72 77 84 80 78 76 75 71 71 78 76 80 84 85 85 85 83 86 83 75 84 82 78 70 65
63 63 68 85 81 85 88 85 65 69 75 64 56 54 45 45 40 39 40 40 38 39 43 54 68 68 71 76 73 72 71 74 79 75 75 85 89 87 83 81 85 85 92 95 86 87 86 71 66
60 76 84 90 83 98 82 84 74 70 59 52 48 48 43 43 42 37 39 41 39 38 36 38 47 61 66 62 64 69 69 75 72 73 74 74 77 84 85 82 81 89 91 100 97 80 70 67 60
70 74 96 98 99 93 75 92 69 53 49 45 44 38 37 38 38 37 34 36 40 37 32 33 36 43 60 67 70 70 68 66 68 74 76 76 75 74 78 79 81 80 91 79 77 73 61 48 36
82 77 89 88 97 94 80 95 74 48 40 37 39 32 31 33 28 26 27 33 34 35 33 34 35 41 46 51 58 64 62 68 70 72 71 71 73 74 76 78 81 83 70 73 81 56 37 33 35
85 97 74 90 80 92 86 71 44 37 38 34 35 35 31 30 32 29 26 27 31 32 32 33 35 44 46 46 48 51 54 59 63 64 67 69 75 74 78 84 86 79 74 74 66 57 48 40 40
77 75 96 99 97 95 76 68 56 34 34 34 41 40 36 36 40 37 31 31 29 29 33 36 37 41 43 43 47 50 51 57 64 67 69 71 77 83 84 89 88 88 78 75 66 46 41 40 43
95 100 91 87 84 92 77 58 47 42 39 35 40 39 39 37 36 38 36 33 30 30 35 38 39 40 43 46 47 48 47 44 43 46 60 73 86 94 99 93 82 68 52 45 46 49 47 54 60
80 97 96 92 97 83 83 68 40 46 58 50 40 42 40 36 36 36 38 41 43 39 37 41 42 45 47 45 43 42 41 41 43 54 74 88 96 95 85 68 46 44 51 59 59 62 63 58 52

GFSSGP_850_rhum_105.txt.gz
RH
97 100 99 94 88 99 76 66 46 50 51 47 42 52 47 49 50 46 71 78 67 71 87 83 64 57 51 29 38 67 56 31 67 70 74 78 76 76 72 51 23 40 43 68 67 53 64 66 55
90 99 100 93 94 97 79 55 51 46 41 43 53 62 62 52 64 91 97 87 71 75 88 81 63 58 39 26 74 79 76 61 75 74 81 86 87 76 58 25 13 23 33 48 40 45 53 54 49
95 99 100 98 87 86 66 50 42 40 50 48 60 63 61 74 90 83 95 94 71 79 87 75 67 64 31 37 87 92 85 68 75 82 87 89 80 65 35 15 18 30 34 41 50 48 45 46 40
100 99 98 98 89 67 52 36 33 48 64 59 70 72 86 89 95 91 91 87 79 82 82 83 76 69 29 34 90 99 93 88 85 90 99 86 70 26 16 15 27 32 36 41 47 47 42 41 41
95 96 86 81 83 60 47 29 38 49 58 70 74 84 95 97 93 95 93 85 80 84 86 85 80 66 26 28 92 99 98 95 98 96 77 62 25 16 14 21 31 34 36 39 45 46 48 48 46
96 92 87 95 83 64 45 36 35 48 63 71 69 87 85 95 97 96 92 85 82 83 86 85 81 61 26 25 67 87 86 88 84 71 62 32 16 14 19 24 30 32 34 38 42 47 48 50 46
93 89 96 92 82 68 50 35 37 46 54 60 59 78 86 97 94 96 95 83 86 84 86 85 84 54 40 21 52 76 78 78 77 71 39 17 15 18 22 26 28 30 33 35 39 42 44 44 45
86 91 88 95 84 68 41 34 34 42 41 56 53 80 86 98 100 99 97 88 86 85 87 85 82 62 66 47 24 54 74 76 68 35 18 17 18 20 25 27 29 30 33 35 37 37 39 40 42
86 92 98 75 85 62 38 36 41 52 56 62 53 55 51 99 99 99 99 93 86 88 89 88 80 71 83 74 50 21 19 19 19 19 19 19 20 22 26 28 30 32 35 35 37 36 35 36 37
85 82 88 75 61 71 70 42 58 62 82 76 60 67 51 80 99 99 99 95 90 89 91 89 85 75 76 81 72 37 20 18 21 21 21 21 24 25 26 28 30 32 34 34 34 35 36 37 36
86 77 88 79 70 62 76 59 60 67 76 74 68 61 69 68 100 99 100 97 96 90 93 94 84 79 58 90 81 60 38 23 23 25 24 23 25 26 28 28 30 30 32 32 32 32 33 34 35
83 75 88 90 95 80 78 61 63 63 64 54 47 40 66 76 97 90 100 97 95 93 99 92 86 75 46 58 86 83 58 39 28 23 24 23 24 25 26 26 26 27 27 28 28 28 29 30 37
83 83 79 84 94 99 73 66 69 80 88 69 57 51 78 76 71 90 65 95 87 84 90 96 85 75 47 40 64 85 85 60 39 33 28 26 25 26 27 28 28 28 29 30 34 35 35 42 44
84 82 81 80 88 93 78 68 71 79 83 84 64 60 63 67 69 82 78 70 89 96 87 83 88 81 61 44 40 60 74 86 68 44 40 36 35 37 36 37 35 33 40 41 45 49 52 51 53
81 76 80 85 91 86 74 72 79 78 93 74 60 57 60 63 78 84 77 58 75 89 84 80 80 87 75 56 43 38 52 66 75 58 52 48 44 49 57 50 47 56 56 51 51 56 60 64 67
84 83 98 79 87 80 82 77 74 76 80 85 72 59 59 61 56 78 71 88 84 73 73 85 74 86 90 77 55 45 41 46 60 62 64 58 55 62 69 64 61 63 65 61 57 58 64 68 70
79 91 99 84 85 90 81 86 68 69 75 79 80 84 62 62 63 67 65 75 73 80 67 59 59 78 86 88 79 66 59 48 44 51 56 54 64 68 70 68 69 73 74 73 68 65 68 70 71
93 94 89 91 87 86 83 73 63 66 67 79 67 70 81 72 69 77 64 77 68 70 51 46 51 66 85 81 84 83 81 71 53 49 46 57 66 74 76 77 80 79 79 79 73 76 78 78 82
76 81 88 86 81 91 90 76 60 61 60 62 63 62 64 92 70 78 71 70 74 52 53 50 51 51 57 76 81 78 82 81 77 72 66 76 79 79 79 78 81 80 78 78 82 82 86 86 87
77 84 88 84 83 80 84 76 56 65 62 57 55 56 58 58 84 74 72 79 67 58 56 61 58 62 63 68 80 86 80 82 84 79 77 68 71 80 80 77 80 81 75 76 86 87 91 92 90
69 77 84 77 83 83 83 79 68 63 68 55 46 48 51 53 48 64 75 69 72 78 68 60 70 67 65 71 66 74 63 75 97 78 86 73 79 80 81 78 78 81 85 76 82 81 87 88 89
66 57 60 86 90 93 80 75 67 63 59 55 42 44 47 46 45 45 51 71 72 71 76 78 80 81 78 75 81 76 73 69 74 82 72 90 87 79 76 80 87 93 98 99 88 85 91 84 82
62 65 77 83 79 85 87 88 74 66 69 56 52 48 44 44 42 41 40 45 55 64 63 69 74 78 77 64 83 90 93 81 88 70 85 88 82 85 84 87 88 93 88 83 92 89 94 80 74
69 77 82 86 81 94 77 82 67 72 67 55 49 49 49 44 40 37 37 39 42 46 53 63 70 73 77 75 74 78 82 79 84 75 77 82 77 82 82 84 83 80 80 81 90 99 89 84 87
69 77 95 97 97 89 75 91 66 54 48 44 44 43 44 41 38 36 36 37 39 42 41 41 41 48 61 68 70 68 71 75 72 71 72 72 74 74 75 75 79 79 81 86 89 99 76 81 75
86 82 86 91 94 87 83 92 65 53 45 44 41 38 38 35 36 35 41 36 37 39 40 39 33 34 41 49 60 66 67 67 68 69 70 71 72 73 73 75 77 78 96 98 99 82 77 73 47
84 99 74 86 82 82 77 68 44 37 44 40 35 33 35 35 35 34 31 33 34 36 39 35 33 34 37 44 52 57 57 60 56 58 59 64 65 64 74 73 80 90 94 79 79 80 56 49 44
85 83 99 98 96 94 74 69 52 39 35 34 36 39 39 39 46 38 28 26 25 31 34 35 34 34 40 48 50 50 51 55 55 54 58 60 65 65 69 79 85 88 84 82 78 71 67 52 43
95 98 94 95 82 83 72 53 44 43 42 45 37 41 40 39 49 50 42 33 33 33 34 34 35 36 39 44 42 43 49 53 55 54 54 57 71 86 98 99 98 94 94 86 73 54 46 48 48
83 100 100 95 97 77 73 57 40 46 57 62 45 45 41 41 43 50 51 46 38 34 34 36 39 38 39 40 46 48 48 45 44 45 51 59 77 99 100 100 99 89 70 48 48 56 60 61 60

GFSSGP_850_rhum_108.txt.gz
RH
92 99 100 100 98 71 56 48 32 35 39 38 36 35 34 34 41 45 71 85 84 92 95 85 70 58 53 42 29 42 32 62 50 57 74 78 88 82 72 59 80 82 79 81 91 87 57 44 39
86 92 99 100 96 87 52 34 38 33 34 40 45 51 39 37 59 87 95 96 92 99 96 95 67 57 52 31 46 40 39 71 63 67 81 88 80 78 54 45 63 47 88 83 74 67 56 45 38
92 90 98 97 87 70 47 32 31 31 33 40 43 51 45 41 77 86 96 98 96 100 99 92 63 56 40 32 67 41 48 74 72 74 86 86 80 59 23 18 29 85 52 44 51 54 49 41 31
94 94 98 96 85 63 36 28 30 30 35 39 40 49 77 90 85 88 99 100 100 100 100 69 61 53 27 73 78 75 81 73 79 81 86 94 70 33 14 22 30 38 43 40 45 49 42 38 30
98 96 84 92 56 62 35 28 32 31 36 36 41 66 63 93 97 100 100 100 100 100 100 69 69 43 35 88 89 81 70 78 81 89 94 79 46 20 16 28 31 36 41 40 38 39 42 40 33
82 74 74 92 79 46 52 35 28 27 30 41 48 58 70 90 95 97 98 99 100 100 97 81 78 41 48 90 92 88 83 84 91 100 92 60 21 14 24 30 28 33 35 36 38 38 39 40 42
74 72 74 60 88 66 58 39 27 25 28 35 44 52 74 87 94 92 98 100 100 100 98 93 81 37 51 94 97 96 95 97 98 77 55 24 15 18 27 29 30 32 35 37 41 41 41 41 40
72 66 68 78 89 76 58 57 39 31 28 35 48 48 60 62 85 95 98 100 100 100 100 99 96 47 53 94 99 100 100 95 76 62 36 17 16 22 29 30 33 33 36 38 41 44 44 43 43
71 67 68 83 85 60 46 56 54 34 42 44 49 41 53 44 62 100 100 99 99 99 98 100 93 88 75 87 90 89 88 85 74 50 23 18 22 28 33 36 34 35 37 38 40 42 42 42 42
65 64 74 81 86 71 69 67 54 37 40 48 51 76 67 56 62 100 98 100 100 97 98 100 90 88 92 62 56 84 89 88 84 37 21 52 68 80 89 36 38 38 41 42 41 40 40 41 42
56 61 61 84 93 97 72 63 59 48 38 43 50 65 84 78 65 100 100 100 98 98 94 100 96 97 89 84 77 69 68 90 91 90 83 84 88 35 42 40 43 42 43 44 42 40 41 41 45
58 70 81 86 99 87 83 61 66 57 42 43 45 57 85 65 54 90 100 100 99 99 92 91 100 99 99 80 90 67 72 67 84 88 75 62 60 41 55 47 39 39 39 38 37 41 35 35 36
62 69 79 82 89 80 77 67 71 51 55 77 52 73 82 60 67 75 90 93 100 99 97 91 96 97 99 83 82 53 82 57 36 33 27 32 32 33 33 35 33 32 32 31 30 30 31 33 48
70 68 69 73 78 78 86 71 72 49 62 68 65 64 76 76 64 64 95 75 71 98 94 96 94 83 54 96 89 68 65 49 25 26 26 27 28 29 29 29 30 30 31 31 38 42 47 52 49
70 70 62 71 70 75 87 73 75 54 63 64 66 66 82 59 61 80 71 84 68 98 97 99 91 78 49 42 75 79 56 47 34 32 29 29 31 32 36 36 38 36 37 43 45 51 56 59 54
60 62 84 71 70 75 90 78 56 62 63 60 52 62 88 96 81 77 78 84 87 98 99 99 94 82 60 48 43 48 70 70 57 48 48 49 45 46 51 59 52 56 59 55 56 59 65 81 76
62 65 87 55 79 81 84 84 56 60 63 74 63 67 70 98 76 75 85 79 88 93 92 99 98 90 79 69 56 48 45 63 69 74 68 60 59 56 64 68 65 64 65 66 65 64 78 86 84
60 62 47 52 70 74 83 83 54 54 62 65 74 88 79 77 79 72 86 87 81 88 95 94 92 91 93 86 80 72 64 55 53 59 77 71 67 61 69 70 70 70 72 74 76 71 71 86 93
56 53 34 64 64 79 84 84 66 47 57 58 72 81 69 75 76 77 91 95 97 81 83 82 78 74 86 87 91 90 80 74 64 53 53 60 62 73 73 75 76 79 77 77 81 82 82 84 88
58 57 64 64 66 82 73 77 60 46 49 52 62 68 80 84 74 74 89 91 94 87 82 74 72 63 60 69 75 86 89 93 83 79 66 64 67 78 84 86 84 83 80 80 80 86 83 88 84
61 56 63 60 70 76 71 64 57 50 47 50 53 61 64 82 86 78 97 84 82 97 79 73 76 68 58 59 71 81 89 87 87 85 88 87 82 82 86 88 89 85 84 86 89 94 90 88 88
53 49 55 67 72 82 60 51 64 50 49 44 45 53 59 62 74 80 90 89 63 61 84 75 68 77 71 58 62 75 70 64 74 78 82 79 72 77 78 79 84 85 82 89 94 98 88 86 83
53 58 53 61 64 63 71 63 43 44 49 44 41 42 49 56 56 61 72 83 79 73 63 74 77 76 70 57 47 64 71 72 84 84 79 70 72 64 66 69 83 80 92 96 93 96 94 94 76
60 60 63 62 65 73 46 61 30 44 40 38 38 41 44 48 50 49 53 60 72 74 76 76 81 79 83 95 84 66 69 75 92 78 83 62 71 65 69 72 77 78 76 81 84 96 97 96 83
62 61 77 78 87 61 59 72 36 35 37 34 34 36 38 47 51 51 47 44 44 53 70 71 69 74 81 84 88 81 79 89 81 83 73 74 78 74 70 77 78 72 76 84 90 99 98 99 98
58 67 61 61 59 55 68 68 36 39 37 35 38 36 38 39 46 42 39 38 38 41 45 50 59 66 72 75 79 80 84 86 84 86 84 80 76 75 75 76 75 75 78 80 99 100 100 96 81
96 92 62 71 60 63 50 47 34 26 31 32 33 32 35 36 41 43 35 34 36 38 42 41 42 41 45 61 69 72 73 72 73 75 75 74 72 71 70 71 72 73 76 99 100 100 99 81 74
71 77 98 94 88 62 48 48 36 33 32 29 29 32 38 40 39 37 40 36 39 37 37 40 42 36 36 41 50 63 68 70 70 68 68 68 67 69 70 74 80 84 96 100 96 83 85 68 52
64 76 86 99 90 58 45 37 30 36 40 41 33 38 39 49 48 46 38 32 33 33 32 36 40 36 37 40 46 53 57 59 63 60 59 62 67 70 76 83 92 99 100 88 86 81 70 67 54
63 87 100 94 86 91 60 39 33 41 46 45 38 44 47 54 60 54 49 39 39 36 34 37 40 38 38 42 49 48 46 48 52 53 56 60 64 70 78 90 98 100 94 94 86 78 56 50 53

GFSSGP_850_rhum_111.txt.gz
RH
94 89 96 98 97 96 59 43 25 26 23 27 27 27 28 25 25 44 67 64 63 87 97 84 69 55 44 43 40 36 46 61 71 67 60 79 83 79 62 79 78 53 76 82 66 76 77 58 50
86 91 85 99 93 90 61 35 32 24 21 23 29 32 29 29 39 66 68 68 70 89 95 92 72 55 47 42 32 29 53 60 68 65 72 84 82 73 72 84 77 45 84 80 69 38 31 30 28
78 83 98 91 85 86 54 30 27 22 21 22 29 34 33 31 42 70 74 70 74 88 99 97 68 54 47 38 32 38 61 64 62 69 78 88 82 68 79 72 62 44 79 74 52 40 34 29 26
69 75 84 98 74 64 49 29 22 22 21 26 32 37 43 63 56 65 80 74 82 92 99 86 63 53 46 28 59 43 66 69 69 81 85 82 75 49 90 59 77 44 47 46 42 37 29 27 28
64 74 64 74 83 51 41 36 26 23 22 26 40 40 42 70 76 79 85 81 81 95 99 76 61 54 37 40 53 36 72 76 79 81 84 80 56 21 39 50 36 38 37 39 37 32 31 29 32
66 56 65 67 47 64 41 39 36 27 26 25 39 40 50 74 83 89 93 93 84 99 95 75 61 46 32 69 67 66 74 75 80 87 92 69 31 14 27 33 37 38 42 37 37 38 36 35 38
68 53 61 50 40 38 65 58 50 49 37 27 29 39 57 79 90 97 100 98 93 97 100 94 64 36 79 88 85 76 77 83 88 94 95 49 19 19 29 33 71 48 42 39 41 41 40 41 42
64 63 53 45 46 38 46 60 61 48 55 36 35 35 62 79 99 94 94 99 96 91 98 99 84 69 87 94 94 79 85 91 99 100 77 26 16 24 31 39 76 49 49 47 46 46 43 42 42
61 75 72 46 44 44 52 78 58 59 67 43 33 42 41 78 100 95 84 97 96 96 97 97 83 90 92 97 98 94 94 100 100 90 47 21 19 30 39 57 96 81 56 51 49 47 43 42 44
72 73 55 34 56 80 62 76 80 73 64 39 46 42 53 91 97 93 88 87 96 96 98 95 73 74 91 97 96 100 100 100 95 71 31 63 53 77 88 51 77 90 55 51 47 47 44 45 47
54 78 39 55 81 89 73 73 80 86 74 41 53 73 71 98 100 80 86 89 93 96 96 87 73 64 80 95 100 100 100 99 94 80 61 75 86 78 97 47 64 70 54 51 46 42 42 59 73
62 45 50 65 78 79 83 92 84 78 59 50 56 68 76 99 99 99 90 98 100 99 97 84 70 73 76 86 98 98 95 96 90 86 73 76 86 93 95 58 62 58 52 78 53 47 73 55 63
58 54 64 72 83 83 83 76 81 65 54 54 77 90 77 94 100 85 77 76 85 96 99 92 73 80 86 76 77 84 85 83 82 84 80 84 91 90 92 90 91 86 69 82 77 73 66 57 67
49 58 59 66 71 78 76 63 71 70 61 60 68 74 72 72 88 82 71 55 78 90 100 94 79 91 91 82 86 79 76 80 88 90 89 89 89 89 89 88 83 76 64 68 65 63 61 61 73
57 63 66 60 60 65 64 55 68 67 59 54 53 62 72 75 84 69 59 48 70 79 94 99 93 76 90 90 88 81 79 77 80 85 86 81 77 76 59 60 55 55 37 57 70 72 74 75 76
60 64 77 53 59 68 61 78 59 56 61 50 46 58 69 78 93 76 54 72 72 70 84 99 89 86 86 98 88 96 89 90 88 75 60 55 53 42 41 41 37 46 40 55 58 69 70 86 83
50 56 81 50 58 65 60 61 56 72 58 46 45 52 67 82 95 78 72 83 69 64 68 97 95 94 78 82 96 93 99 99 91 84 76 39 36 33 38 65 72 77 65 59 72 84 82 85 86
56 51 44 54 59 59 58 64 66 68 51 45 50 41 60 77 92 70 81 92 89 84 78 94 90 98 94 87 87 94 98 96 75 48 48 52 63 57 55 94 99 96 89 94 87 86 84 87 87
49 43 38 30 52 59 53 62 65 54 52 47 53 69 66 69 95 86 94 95 96 96 100 100 91 98 99 90 82 76 72 78 98 93 92 96 98 91 90 95 98 96 98 97 97 97 91 90 92
47 41 39 47 50 60 51 55 57 50 44 47 54 69 70 93 97 88 90 94 80 84 93 100 98 93 98 95 83 72 85 78 78 83 86 94 97 94 98 99 98 99 98 98 98 96 95 94 90
44 46 43 47 53 54 65 59 63 49 42 45 52 66 75 81 84 91 88 85 84 84 84 95 89 98 97 94 97 99 96 97 95 94 82 64 66 65 81 93 95 93 94 95 94 88 88 90 85
50 42 46 50 54 52 46 75 62 54 49 46 48 63 71 81 80 61 71 92 80 77 77 82 73 89 78 90 81 75 80 86 82 87 90 90 88 85 85 85 86 87 85 83 84 94 92 91 81
51 48 47 45 48 46 43 51 50 49 52 47 43 51 62 82 94 83 75 93 95 78 64 62 80 93 90 86 83 78 72 71 70 67 75 78 89 83 71 68 78 76 71 76 82 92 99 99 81
48 51 45 45 53 66 39 45 46 48 49 42 37 42 53 66 77 87 82 89 95 73 64 92 78 86 91 87 78 77 69 56 52 58 62 76 75 73 80 72 70 69 64 62 78 86 89 92 86
50 57 76 75 78 56 48 49 34 29 32 39 38 38 42 55 65 66 71 83 80 75 63 78 71 65 79 70 72 74 71 56 50 62 62 64 54 70 71 74 73 73 65 70 87 88 92 77 82
59 57 73 81 60 41 50 51 45 30 30 31 33 34 36 42 50 56 59 58 65 71 65 75 86 72 76 81 74 68 68 62 53 68 61 56 80 91 61 69 80 70 75 81 78 94 93 93 99
75 77 55 70 44 46 37 36 26 25 28 30 30 31 32 33 36 47 49 52 50 45 61 77 69 74 80 81 85 84 80 77 84 94 87 76 79 76 72 74 76 76 77 81 92 100 99 100 100
57 65 81 76 78 54 37 36 40 36 35 28 28 28 33 40 42 45 48 47 50 52 53 51 62 74 72 71 76 74 78 85 88 83 86 89 87 80 74 75 74 75 82 96 99 99 99 100 99
54 74 73 97 88 90 58 50 35 42 40 38 29 34 39 49 54 56 57 48 40 40 44 55 54 54 53 58 51 66 66 72 75 74 75 76 69 71 71 70 74 81 84 99 100 99 100 95 90
50 60 76 76 95 69 71 71 33 37 35 33 36 40 44 51 55 64 58 40 36 36 38 44 47 46 53 57 47 51 63 70 75 75 73 75 73 72 71 76 90 99 100 99 99 96 88 76 67

GFSSGP_850_rhum_114.txt.gz
RH
88 85 85 78 98 99 86 62 39 34 31 26 28 26 28 25 31 43 62 62 66 53 56 55 50 39 39 41 52 62 70 73 71 71 78 79 74 69 78 81 60 59 64 42 72 78 61 46 54
86 84 80 94 98 88 63 45 43 34 25 22 25 26 28 30 37 52 66 63 65 66 54 60 58 44 39 40 41 42 60 70 71 75 73 79 74 68 73 77 54 83 63 42 61 45 37 31 37
72 86 76 94 81 79 53 36 38 29 24 23 22 26 27 33 54 58 64 64 69 80 72 67 63 48 40 43 42 46 44 62 69 72 79 81 73 79 76 73 69 84 61 35 30 26 26 25 24
68 70 80 97 78 60 52 43 36 33 25 23 22 25 28 54 58 63 65 66 76 86 81 72 66 51 41 41 33 60 54 53 68 70 84 82 73 81 74 63 73 85 59 38 33 29 26 26 27
65 65 77 86 81 57 44 36 37 40 38 32 24 29 38 60 63 66 67 69 79 88 88 81 66 53 43 36 36 56 61 50 64 76 88 78 72 57 43 44 58 73 51 38 31 28 28 30 33
62 59 76 77 57 45 48 41 38 35 50 42 36 37 37 63 60 65 72 77 84 84 94 87 65 52 46 30 55 58 62 65 68 85 89 80 57 45 37 32 40 46 51 40 34 30 32 35 37
68 71 74 64 51 42 35 35 50 53 58 64 55 59 53 72 65 65 81 93 94 82 94 87 65 56 39 58 36 63 75 73 82 87 87 78 31 41 43 32 36 53 81 41 40 38 36 40 42
68 75 78 68 55 48 31 27 38 48 51 59 61 74 68 69 82 68 84 91 93 82 96 76 63 49 64 77 34 71 84 85 87 94 95 53 21 37 34 82 50 57 83 46 43 39 40 41 43
75 94 92 69 60 46 28 57 45 43 63 75 70 78 65 80 82 86 92 96 96 99 93 75 61 62 80 84 74 82 81 90 98 99 92 29 26 52 46 96 80 46 44 47 47 44 42 42 43
85 86 70 49 42 42 48 60 69 59 66 75 80 68 62 64 70 92 96 99 99 98 97 87 75 74 90 95 90 85 90 96 99 100 74 22 27 42 56 98 91 56 52 50 50 48 45 43 44
61 79 54 48 47 56 77 74 78 78 74 71 78 73 74 79 81 98 91 98 97 91 94 88 86 80 90 95 94 87 95 99 99 98 40 39 36 71 89 98 100 88 54 48 48 46 46 49 63
63 52 51 50 68 72 67 78 71 69 66 67 65 74 66 86 84 94 86 100 100 97 99 83 82 92 90 93 88 89 98 100 94 58 49 85 76 75 77 61 89 56 48 50 48 46 47 54 70
67 53 52 54 68 73 72 66 74 69 52 65 68 68 68 78 81 92 100 98 95 76 91 88 66 87 87 91 92 97 100 98 79 50 77 80 86 82 74 50 50 49 56 56 52 59 72 53 53
58 58 52 58 68 66 66 54 62 51 47 58 66 76 65 78 67 99 100 94 79 72 80 95 76 71 88 88 94 98 94 95 83 65 77 80 86 90 76 51 58 63 65 84 71 58 60 51 64
57 70 62 63 64 65 64 58 46 38 53 70 74 77 75 74 85 100 99 78 71 75 62 87 98 78 65 74 87 91 88 84 84 77 80 83 79 84 78 82 77 71 60 58 56 60 65 67 71
62 62 88 56 62 58 72 55 33 60 55 72 74 73 76 50 72 95 93 74 64 53 54 83 95 94 76 78 78 77 81 84 87 81 84 82 72 73 66 66 53 47 41 50 57 70 70 72 70
62 83 85 70 60 62 77 71 49 61 68 69 74 64 72 72 100 99 71 57 50 49 52 83 98 90 87 82 77 80 75 76 87 84 78 78 71 61 50 46 44 47 47 50 58 61 63 74 84
97 95 60 68 65 65 69 71 49 55 72 70 67 55 62 84 94 81 70 57 57 63 69 73 88 96 84 86 82 88 85 81 78 73 61 62 51 41 42 62 74 78 68 71 71 80 76 85 85
57 55 54 38 58 60 63 56 53 57 53 56 52 45 62 68 84 82 66 70 65 67 55 53 73 98 81 87 91 81 85 85 85 86 82 54 46 46 58 87 97 96 85 83 90 85 86 79 87
50 56 53 48 56 63 60 59 49 54 56 50 49 50 72 82 88 85 81 84 89 96 99 78 82 94 74 77 95 91 92 90 85 77 79 76 77 65 58 82 89 93 88 91 97 97 90 90 86
52 68 52 52 49 56 63 68 59 56 52 46 49 55 59 69 92 87 89 92 98 99 99 100 99 97 81 68 67 79 99 100 100 100 100 93 92 91 91 88 93 86 90 91 93 96 94 92 89
66 57 50 44 51 85 56 79 60 58 58 58 52 66 76 71 77 79 71 89 95 97 90 100 81 100 97 86 77 74 73 75 76 65 66 66 68 68 75 90 90 84 85 81 82 83 83 91 86
59 50 53 51 50 57 48 63 91 57 61 56 57 66 87 78 78 89 66 62 67 70 81 87 86 93 99 95 79 74 72 71 92 94 91 88 85 87 84 83 82 83 79 75 76 77 86 82 82
46 55 54 51 55 84 50 52 97 61 58 57 54 58 70 85 79 72 60 55 70 70 69 74 71 73 91 98 90 81 75 77 78 70 70 78 86 83 79 73 75 76 70 74 67 64 65 70 64
55 68 93 94 95 86 45 50 53 39 37 58 64 57 62 74 86 77 71 84 77 72 72 68 71 75 81 87 82 87 75 69 74 65 62 66 60 57 56 59 64 64 72 83 84 76 74 73 74
67 80 97 95 94 91 47 79 48 35 34 51 61 47 56 63 66 73 90 91 66 74 80 74 72 73 64 70 73 75 75 81 85 75 70 61 62 66 53 45 47 55 55 73 82 75 76 80 82
68 85 66 97 59 70 50 42 38 36 37 33 42 43 40 34 58 55 57 63 67 70 79 81 86 83 75 66 72 78 80 79 80 79 75 64 62 74 73 57 48 53 68 86 88 80 82 80 99
64 63 85 88 94 69 57 58 63 54 48 39 40 42 42 50 46 52 57 55 51 50 72 73 78 66 67 66 77 76 78 81 74 74 75 70 52 51 65 57 68 73 88 89 88 84 81 92 99
74 79 71 94 92 97 96 97 47 52 45 44 47 47 53 58 61 58 51 49 54 55 51 53 66 75 73 72 80 77 70 74 83 80 73 54 74 79 70 79 85 88 88 89 77 76 75 99 100
53 58 88 94 89 88 99 98 42 48 48 44 44 44 44 50 61 65 61 52 46 50 52 54 61 63 75 74 68 70 70 74 76 71 74 74 76 73 78 92 92 85 94 93 92 97 99 99 100

GFSSGP_850_rhum_117.txt.gz
RH
32 90 69 71 92 98 85 68 52 46 41 33 33 33 36 32 37 51 46 56 54 48 42 34 24 29 36 50 61 66 70 72 64 72 79 75 68 78 69 45 85 88 49 80 92 46 60 63 66
81 80 71 82 93 96 46 49 51 44 34 30 27 31 29 30 33 54 74 55 62 56 48 38 30 27 35 49 62 66 70 70 65 73 77 75 74 80 68 38 70 65 61 80 68 43 50 61 63
83 72 68 94 92 80 54 44 39 39 38 37 29 25 28 33 31 41 64 59 63 68 56 44 37 27 32 42 54 62 68 70 68 77 76 75 74 80 62 56 88 42 55 54 39 36 36 35 36
72 74 66 96 92 67 58 50 43 42 38 36 42 47 32 36 33 59 66 56 60 67 64 52 44 32 32 35 37 47 63 70 73 70 78 75 75 78 52 68 84 37 36 31 27 26 26 25 26
64 66 91 96 83 68 58 48 42 44 38 36 54 56 50 42 53 63 66 65 71 69 68 58 52 39 34 37 37 36 47 65 71 67 82 74 80 78 50 72 77 39 31 34 29 26 27 28 35
66 63 96 90 72 56 47 42 47 48 42 43 55 63 55 66 64 67 66 66 76 72 75 67 60 47 40 40 37 43 44 52 69 72 86 78 84 79 53 59 73 37 33 32 28 29 32 37 40
76 83 81 80 78 64 49 35 38 43 43 45 52 64 54 54 98 77 69 63 76 80 76 73 65 53 47 39 30 40 62 44 72 78 91 82 76 62 48 48 56 40 32 30 30 34 37 38 40
73 80 83 79 75 67 44 38 33 34 44 34 49 69 71 61 91 100 86 70 76 87 80 79 65 56 50 39 43 50 65 54 72 89 92 94 64 46 44 46 47 57 34 34 33 38 43 43 43
79 98 91 81 76 67 48 48 39 37 51 42 45 50 57 54 63 70 97 81 79 93 85 82 66 58 66 58 62 71 68 68 86 97 91 76 66 56 55 56 73 81 39 39 38 41 44 45 46
90 95 75 63 59 58 49 52 58 68 58 58 58 55 48 43 56 71 70 92 77 91 90 87 66 62 82 61 70 80 82 84 94 99 95 53 62 68 99 88 87 64 42 44 43 43 43 46 47
83 85 66 56 52 52 64 60 70 78 84 63 61 55 53 48 63 76 87 97 70 79 82 92 66 83 86 59 79 86 90 92 98 100 92 34 42 54 99 89 64 44 46 46 46 44 43 45 48
72 66 62 56 56 55 65 65 80 73 68 52 56 52 48 48 63 76 76 99 100 99 79 80 75 76 92 78 82 92 90 94 99 98 88 26 38 66 95 83 54 48 48 48 47 45 42 44 49
80 72 60 55 58 57 63 73 74 60 48 43 47 54 59 54 58 73 75 83 99 100 94 84 80 75 95 95 92 93 92 94 98 100 60 27 34 33 64 97 56 44 47 46 44 42 44 45 52
69 72 75 69 58 68 76 77 72 61 49 54 54 50 72 56 65 71 68 65 100 100 93 95 95 88 85 95 93 92 95 99 100 92 37 43 32 36 42 47 38 44 45 48 48 49 55 46 55
67 80 64 62 59 69 65 80 76 57 51 50 43 58 74 68 74 64 65 63 100 98 87 82 86 97 97 94 91 91 95 99 83 52 56 74 51 53 53 48 44 46 47 53 59 58 58 55 65
72 69 87 57 65 69 69 76 53 52 61 59 67 73 72 67 62 65 84 78 100 100 86 71 71 70 86 95 91 95 98 96 63 79 75 81 79 60 63 48 50 52 56 60 55 58 66 65 70
78 95 86 78 54 69 74 85 62 49 57 69 69 69 68 75 77 72 73 68 82 100 98 81 76 80 62 100 85 96 96 95 70 82 83 84 83 76 68 61 58 55 50 44 49 57 68 66 68
98 92 83 86 61 70 84 90 67 59 59 74 70 66 69 73 84 88 68 78 98 98 98 77 72 77 80 79 76 96 89 86 78 83 84 82 79 77 73 65 50 41 41 40 47 54 60 67 73
84 68 78 66 65 74 78 77 65 51 60 61 68 63 66 77 99 83 99 93 91 82 85 82 73 65 84 89 82 83 91 85 87 80 84 78 70 62 58 45 46 47 51 52 58 66 74 78 83
56 63 85 81 63 68 69 69 58 56 61 58 54 56 66 90 82 83 96 93 97 95 88 86 80 74 88 93 81 78 74 78 83 85 83 74 60 54 53 66 70 74 73 70 78 83 80 81 82
57 68 74 66 49 63 71 70 69 55 54 52 50 55 64 77 74 86 81 90 99 88 86 87 91 96 83 98 91 83 79 75 75 77 76 63 51 51 64 87 92 87 86 84 97 92 87 82 82
77 57 57 62 69 79 63 84 64 71 60 52 58 65 71 65 68 64 83 87 93 99 99 96 87 87 84 96 99 90 85 87 88 79 78 74 77 80 74 88 92 91 90 88 87 88 82 78 83
72 58 60 65 71 64 58 83 94 75 76 71 73 83 79 69 68 82 83 83 82 87 94 91 100 98 83 66 90 88 77 74 84 74 89 98 98 95 88 80 77 84 85 87 82 80 81 86 95
57 64 65 64 69 87 64 74 70 55 74 80 69 71 80 67 84 75 74 74 75 94 79 100 94 100 96 81 74 86 73 67 68 98 99 99 99 93 88 74 77 80 80 76 74 73 71 70 85
59 80 94 91 94 89 58 66 62 46 72 82 78 73 78 98 94 84 82 80 73 73 78 87 92 95 97 86 73 78 58 61 65 67 76 76 78 82 80 80 75 76 76 63 65 63 59 62 78
74 80 98 96 91 93 69 68 64 44 45 87 82 76 62 79 92 98 85 72 73 70 80 79 87 93 90 98 89 80 80 74 71 71 68 67 67 65 70 67 66 65 63 60 56 56 50 56 64
73 90 67 97 93 90 77 67 51 46 45 53 81 78 72 59 66 77 82 78 83 74 87 83 80 78 82 77 98 95 89 88 86 81 77 80 77 76 75 67 67 64 66 66 71 75 56 61 76
67 66 79 90 94 95 88 97 82 66 60 55 58 66 63 65 59 61 70 68 72 78 79 87 84 82 82 80 82 75 71 69 78 78 73 79 76 77 80 74 72 76 73 88 81 76 70 76 87
74 83 84 87 96 97 96 98 59 64 62 62 58 52 58 64 65 59 54 54 58 58 58 66 82 78 82 88 84 86 91 85 83 79 68 81 78 77 70 74 74 77 82 81 84 75 84 74 93
58 67 84 93 91 97 98 99 70 77 58 53 55 49 48 59 67 69 65 55 51 56 64 63 72 78 79 79 86 90 91 96 91 95 89 85 73 79 70 69 77 68 84 85 89 95 94 87 80